<?xml version='1.0' encoding='UTF-8'?><gpx version="1.1" creator="JPX - https://github.com/jenetics/jpx" xmlns="http://www.topografix.com/GPX/1/1"><trk><trkseg><trkpt lat="43.9143784232255" lon="4.51238904109471"><ele>112.0</ele><time>2026-04-11T14:20:12.02Z</time></trkpt><trkpt lat="43.91447266022662" lon="4.51245295892131"><ele>111.99999999999999</ele><time>2026-04-11T14:20:14.019Z</time></trkpt><trkpt lat="43.91454721823725" lon="4.512496551063492"><ele>111.99999999999999</ele><time>2026-04-11T14:20:16.019Z</time></trkpt><trkpt lat="43.914623934332084" lon="4.512538326762715"><ele>112.0</ele><time>2026-04-11T14:20:18.001Z</time></trkpt><trkpt lat="43.914701373953044" lon="4.512523557268884"><ele>112.0</ele><time>2026-04-11T14:20:20Z</time></trkpt><trkpt lat="43.91479151890282" lon="4.512398519418914"><ele>112.0</ele><time>2026-04-11T14:20:22Z</time></trkpt><trkpt lat="43.914878427186856" lon="4.5122831733571855"><ele>112.0</ele><time>2026-04-11T14:20:24Z</time></trkpt><trkpt lat="43.91495836528565" lon="4.512170657598152"><ele>112.0</ele><time>2026-04-11T14:20:26Z</time></trkpt><trkpt lat="43.91504446389285" lon="4.512062277446002"><ele>112.0</ele><time>2026-04-11T14:20:28Z</time></trkpt><trkpt lat="43.91512636401715" lon="4.511970001822159"><ele>112.50000000000001</ele><time>2026-04-11T14:20:30Z</time></trkpt><trkpt lat="43.915187113135204" lon="4.511893092850358"><ele>113.0</ele><time>2026-04-11T14:20:32Z</time></trkpt><trkpt lat="43.915245062362445" lon="4.511846399425343"><ele>113.5</ele><time>2026-04-11T14:20:34Z</time></trkpt><trkpt lat="43.91529900917219" lon="4.511908472427266"><ele>114.0</ele><time>2026-04-11T14:20:37Z</time></trkpt><trkpt lat="43.91530630990113" lon="4.512042884726459"><ele>114.50000000000001</ele><time>2026-04-11T14:20:39Z</time></trkpt><trkpt lat="43.91532938060331" lon="4.512132113648808"><ele>115.0</ele><time>2026-04-11T14:20:40Z</time></trkpt><trkpt lat="43.91535415027544" lon="4.512228892956323"><ele>115.00000000000001</ele><time>2026-04-11T14:20:41Z</time></trkpt><trkpt lat="43.915382403127516" lon="4.512337974777185"><ele>115.0</ele><time>2026-04-11T14:20:42Z</time></trkpt><trkpt lat="43.91541184081425" lon="4.5124535288138885"><ele>115.0</ele><time>2026-04-11T14:20:43Z</time></trkpt><trkpt lat="43.91544291705171" lon="4.512564257173538"><ele>115.0</ele><time>2026-04-11T14:20:44Z</time></trkpt><trkpt lat="43.915464712455346" lon="4.512667222655038"><ele>115.00000000000001</ele><time>2026-04-11T14:20:45Z</time></trkpt><trkpt lat="43.91547123713574" lon="4.512755328865579"><ele>115.0</ele><time>2026-04-11T14:20:46Z</time></trkpt><trkpt lat="43.91546665892173" lon="4.512870367741176"><ele>115.16666666666667</ele><time>2026-04-11T14:20:48Z</time></trkpt><trkpt lat="43.9154677458877" lon="4.513009450771453"><ele>115.33333333333334</ele><time>2026-04-11T14:20:50Z</time></trkpt><trkpt lat="43.915454409256434" lon="4.513101950822403"><ele>115.5</ele><time>2026-04-11T14:20:51Z</time></trkpt><trkpt lat="43.91543338297777" lon="4.513201205359809"><ele>115.66666666666666</ele><time>2026-04-11T14:20:52Z</time></trkpt><trkpt lat="43.915417102634166" lon="4.513303155088255"><ele>115.83333333333333</ele><time>2026-04-11T14:20:53Z</time></trkpt><trkpt lat="43.91540072194207" lon="4.5134048124245965"><ele>116.0</ele><time>2026-04-11T14:20:54Z</time></trkpt><trkpt lat="43.91538544451645" lon="4.513509901309581"><ele>115.99999999999999</ele><time>2026-04-11T14:20:55Z</time></trkpt><trkpt lat="43.915379522717146" lon="4.5136125598026355"><ele>116.0</ele><time>2026-04-11T14:20:56Z</time></trkpt><trkpt lat="43.91538647609605" lon="4.5137205297852026"><ele>116.0</ele><time>2026-04-11T14:20:57Z</time></trkpt><trkpt lat="43.91540952523167" lon="4.513825830906005"><ele>116.0</ele><time>2026-04-11T14:20:58Z</time></trkpt><trkpt lat="43.91543739865066" lon="4.513932385176815"><ele>115.99999999999999</ele><time>2026-04-11T14:20:59Z</time></trkpt><trkpt lat="43.915466991703994" lon="4.514037660877993"><ele>116.0</ele><time>2026-04-11T14:21:00Z</time></trkpt><trkpt lat="43.91548640306307" lon="4.5141494953952055"><ele>116.66666666666666</ele><time>2026-04-11T14:21:01Z</time></trkpt><trkpt lat="43.91549819584802" lon="4.514266776096908"><ele>117.33333333333333</ele><time>2026-04-11T14:21:02Z</time></trkpt><trkpt lat="43.91547904704622" lon="4.514389631507304"><ele>118.0</ele><time>2026-04-11T14:21:03Z</time></trkpt><trkpt lat="43.91549146891008" lon="4.51451262033927"><ele>118.66666666666666</ele><time>2026-04-11T14:21:04Z</time></trkpt><trkpt lat="43.91548544860504" lon="4.514631889121028"><ele>119.33333333333333</ele><time>2026-04-11T14:21:04.999Z</time></trkpt><trkpt lat="43.91549271449906" lon="4.514748525023011"><ele>120.0</ele><time>2026-04-11T14:21:05.999Z</time></trkpt><trkpt lat="43.915483487494114" lon="4.514851241554265"><ele>120.14285714285714</ele><time>2026-04-11T14:21:06.999Z</time></trkpt><trkpt lat="43.91548793302973" lon="4.5149474797484945"><ele>120.28571428571428</ele><time>2026-04-11T14:21:07.999Z</time></trkpt><trkpt lat="43.91550865358407" lon="4.51504222804331"><ele>120.42857142857142</ele><time>2026-04-11T14:21:08.999Z</time></trkpt><trkpt lat="43.915511771517025" lon="4.515139107070557"><ele>120.57142857142857</ele><time>2026-04-11T14:21:09.999Z</time></trkpt><trkpt lat="43.915513626327495" lon="4.5152320620298765"><ele>120.7142857142857</ele><time>2026-04-11T14:21:10.999Z</time></trkpt><trkpt lat="43.91550229423567" lon="4.515330081697513"><ele>120.85714285714285</ele><time>2026-04-11T14:21:11.999Z</time></trkpt><trkpt lat="43.91552234078031" lon="4.515416501723688"><ele>121.0</ele><time>2026-04-11T14:21:12.999Z</time></trkpt><trkpt lat="43.91552542360425" lon="4.515556309357816"><ele>121.00000000000001</ele><time>2026-04-11T14:21:14.999Z</time></trkpt><trkpt lat="43.91554402937994" lon="4.515673597063407"><ele>121.0</ele><time>2026-04-11T14:21:16.999Z</time></trkpt><trkpt lat="43.915561210560256" lon="4.5157615362374735"><ele>121.0</ele><time>2026-04-11T14:21:17.999Z</time></trkpt><trkpt lat="43.91558239167856" lon="4.515869948472443"><ele>121.0</ele><time>2026-04-11T14:21:18.999Z</time></trkpt><trkpt lat="43.91561639848848" lon="4.515982466382681"><ele>121.00000000000001</ele><time>2026-04-11T14:21:19.999Z</time></trkpt><trkpt lat="43.91563389329513" lon="4.51610182248081"><ele>121.0</ele><time>2026-04-11T14:21:20.999Z</time></trkpt><trkpt lat="43.91567441798916" lon="4.516205400413059"><ele>120.50000000000001</ele><time>2026-04-11T14:21:21.999Z</time></trkpt><trkpt lat="43.91572223217987" lon="4.516301357882754"><ele>120.0</ele><time>2026-04-11T14:21:22.999Z</time></trkpt><trkpt lat="43.91577884576762" lon="4.516386736150728"><ele>119.5</ele><time>2026-04-11T14:21:23.999Z</time></trkpt><trkpt lat="43.91583593985013" lon="4.516466010370226"><ele>119.0</ele><time>2026-04-11T14:21:24.999Z</time></trkpt><trkpt lat="43.91587091492135" lon="4.516548531046847"><ele>118.50000000000001</ele><time>2026-04-11T14:21:25.999Z</time></trkpt><trkpt lat="43.915832286318064" lon="4.51670683055128"><ele>118.0</ele><time>2026-04-11T14:21:27.999Z</time></trkpt><trkpt lat="43.91580984821117" lon="4.516798186623497"><ele>118.00000000000001</ele><time>2026-04-11T14:21:28.999Z</time></trkpt><trkpt lat="43.915798328178774" lon="4.5168889915584645"><ele>118.0</ele><time>2026-04-11T14:21:29.999Z</time></trkpt><trkpt lat="43.915799446583875" lon="4.516986364632351"><ele>118.0</ele><time>2026-04-11T14:21:30.999Z</time></trkpt><trkpt lat="43.915770147777" lon="4.517150857910846"><ele>118.0</ele><time>2026-04-11T14:21:32.999Z</time></trkpt><trkpt lat="43.915730196120656" lon="4.517229949052171"><ele>118.00000000000001</ele><time>2026-04-11T14:21:33.999Z</time></trkpt><trkpt lat="43.915669753079726" lon="4.517280153019922"><ele>118.0</ele><time>2026-04-11T14:21:34.999Z</time></trkpt><trkpt lat="43.915596031073335" lon="4.517321971062541"><ele>117.4</ele><time>2026-04-11T14:21:35.999Z</time></trkpt><trkpt lat="43.915515686957264" lon="4.517359850769726"><ele>116.80000000000001</ele><time>2026-04-11T14:21:36.999Z</time></trkpt><trkpt lat="43.91544245913457" lon="4.517402846593227"><ele>116.2</ele><time>2026-04-11T14:21:37.999Z</time></trkpt><trkpt lat="43.915381289615844" lon="4.517447805538242"><ele>115.6</ele><time>2026-04-11T14:21:38.999Z</time></trkpt><trkpt lat="43.91529638733011" lon="4.51750196249732"><ele>115.0</ele><time>2026-04-11T14:21:40.999Z</time></trkpt><trkpt lat="43.915315562675126" lon="4.5177037143471654"><ele>114.99999999999999</ele><time>2026-04-11T14:21:43.999Z</time></trkpt><trkpt lat="43.915360021149965" lon="4.517787885696114"><ele>115.0</ele><time>2026-04-11T14:21:44.999Z</time></trkpt><trkpt lat="43.91537409729649" lon="4.517889733272598"><ele>114.99999999999999</ele><time>2026-04-11T14:21:45.999Z</time></trkpt><trkpt lat="43.915397084493144" lon="4.51797405403121"><ele>114.99999999999999</ele><time>2026-04-11T14:21:46.999Z</time></trkpt><trkpt lat="43.91540810311807" lon="4.518088238208916"><ele>115.0</ele><time>2026-04-11T14:21:48.999Z</time></trkpt><trkpt lat="43.915354514004925" lon="4.5181592197433105"><ele>114.99999999999999</ele><time>2026-04-11T14:21:50.999Z</time></trkpt><trkpt lat="43.91533356550119" lon="4.518241949353474"><ele>114.99999999999999</ele><time>2026-04-11T14:21:52.999Z</time></trkpt><trkpt lat="43.9153227054301" lon="4.518331612336949"><ele>114.0</ele><time>2026-04-11T14:21:54.999Z</time></trkpt><trkpt lat="43.91532694348447" lon="4.5184354592646265"><ele>113.0</ele><time>2026-04-11T14:21:56.999Z</time></trkpt><trkpt lat="43.91533970988332" lon="4.518555764070735"><ele>112.0</ele><time>2026-04-11T14:21:59.999Z</time></trkpt><trkpt lat="43.915361422756476" lon="4.518655537034595"><ele>111.0</ele><time>2026-04-11T14:22:01.999Z</time></trkpt><trkpt lat="43.91540427201725" lon="4.518788601767305"><ele>110.0</ele><time>2026-04-11T14:22:03.999Z</time></trkpt><trkpt lat="43.91543692816475" lon="4.5189434019087225"><ele>109.33333333333333</ele><time>2026-04-11T14:22:05.999Z</time></trkpt><trkpt lat="43.91545662840306" lon="4.5190368868079736"><ele>108.66666666666666</ele><time>2026-04-11T14:22:06.998Z</time></trkpt><trkpt lat="43.91547334254387" lon="4.5191698203221575"><ele>108.0</ele><time>2026-04-11T14:22:08.998Z</time></trkpt><trkpt lat="43.915499058195316" lon="4.519287986459245"><ele>107.33333333333334</ele><time>2026-04-11T14:22:10.998Z</time></trkpt><trkpt lat="43.91551980580638" lon="4.519383323929015"><ele>106.66666666666667</ele><time>2026-04-11T14:22:12.998Z</time></trkpt><trkpt lat="43.91554001024791" lon="4.519483353157497"><ele>106.0</ele><time>2026-04-11T14:22:14.998Z</time></trkpt><trkpt lat="43.9155741529201" lon="4.519621412797946"><ele>105.16666666666667</ele><time>2026-04-11T14:22:16.998Z</time></trkpt><trkpt lat="43.915600208550394" lon="4.519784413559458"><ele>104.33333333333334</ele><time>2026-04-11T14:22:18.998Z</time></trkpt><trkpt lat="43.91559700261353" lon="4.51987470900937"><ele>103.5</ele><time>2026-04-11T14:22:19.998Z</time></trkpt><trkpt lat="43.91562574349123" lon="4.519974817706946"><ele>102.66666666666666</ele><time>2026-04-11T14:22:20.998Z</time></trkpt><trkpt lat="43.91561771926846" lon="4.520081043523619"><ele>101.83333333333333</ele><time>2026-04-11T14:22:21.998Z</time></trkpt><trkpt lat="43.915636556007506" lon="4.520183063536017"><ele>101.0</ele><time>2026-04-11T14:22:22.998Z</time></trkpt><trkpt lat="43.91565126188783" lon="4.520288458728899"><ele>100.0</ele><time>2026-04-11T14:22:23.999Z</time></trkpt><trkpt lat="43.915649274212875" lon="4.520466800719234"><ele>99.0</ele><time>2026-04-11T14:22:25.999Z</time></trkpt><trkpt lat="43.91565821538431" lon="4.520580382493576"><ele>98.0</ele><time>2026-04-11T14:22:26.999Z</time></trkpt><trkpt lat="43.91566323286098" lon="4.520668264243369"><ele>97.0</ele><time>2026-04-11T14:22:27.999Z</time></trkpt><trkpt lat="43.91567923342391" lon="4.5208336385048105"><ele>96.0</ele><time>2026-04-11T14:22:29.999Z</time></trkpt><trkpt lat="43.91568613802085" lon="4.520985265199002"><ele>96.0</ele><time>2026-04-11T14:22:31.999Z</time></trkpt><trkpt lat="43.91570191375795" lon="4.5211176796109305"><ele>96.0</ele><time>2026-04-11T14:22:33.999Z</time></trkpt><trkpt lat="43.91573596848043" lon="4.5212207285677195"><ele>96.0</ele><time>2026-04-11T14:22:35.999Z</time></trkpt><trkpt lat="43.91579860856089" lon="4.521334342508069"><ele>96.0</ele><time>2026-04-11T14:22:37.999Z</time></trkpt><trkpt lat="43.91586092978355" lon="4.52147499792935"><ele>96.0</ele><time>2026-04-11T14:22:39.999Z</time></trkpt><trkpt lat="43.9159104278634" lon="4.521550934873013"><ele>95.8</ele><time>2026-04-11T14:22:40.999Z</time></trkpt><trkpt lat="43.91595095130364" lon="4.521630917202479"><ele>95.6</ele><time>2026-04-11T14:22:41.999Z</time></trkpt><trkpt lat="43.916022704104044" lon="4.521785602876878"><ele>95.4</ele><time>2026-04-11T14:22:43.999Z</time></trkpt><trkpt lat="43.91609154086559" lon="4.521940116348691"><ele>95.2</ele><time>2026-04-11T14:22:45.999Z</time></trkpt><trkpt lat="43.91612610300969" lon="4.522028664198044"><ele>95.0</ele><time>2026-04-11T14:22:46.999Z</time></trkpt><trkpt lat="43.9161859552549" lon="4.522190784806126"><ele>94.42857142857143</ele><time>2026-04-11T14:22:48.999Z</time></trkpt><trkpt lat="43.916218350288794" lon="4.522278966979402"><ele>93.85714285714286</ele><time>2026-04-11T14:22:49.999Z</time></trkpt><trkpt lat="43.916243131664075" lon="4.522373042589392"><ele>93.28571428571428</ele><time>2026-04-11T14:22:50.999Z</time></trkpt><trkpt lat="43.91626456933377" lon="4.522470437611269"><ele>92.71428571428572</ele><time>2026-04-11T14:22:51.999Z</time></trkpt><trkpt lat="43.91628163546319" lon="4.522569877810221"><ele>92.14285714285714</ele><time>2026-04-11T14:22:52.999Z</time></trkpt><trkpt lat="43.9162837611377" lon="4.522661477445963"><ele>91.57142857142857</ele><time>2026-04-11T14:22:53.999Z</time></trkpt><trkpt lat="43.916280066912826" lon="4.522756279355471"><ele>91.0</ele><time>2026-04-11T14:22:54.999Z</time></trkpt><trkpt lat="43.91628940645162" lon="4.522851399671773"><ele>90.66666666666666</ele><time>2026-04-11T14:22:55.999Z</time></trkpt><trkpt lat="43.916305558399685" lon="4.522943493775046"><ele>90.33333333333333</ele><time>2026-04-11T14:22:56.999Z</time></trkpt><trkpt lat="43.916328082717484" lon="4.523039791250548"><ele>90.0</ele><time>2026-04-11T14:22:57.999Z</time></trkpt><trkpt lat="43.91635546334122" lon="4.523125744574241"><ele>89.66666666666667</ele><time>2026-04-11T14:22:58.999Z</time></trkpt><trkpt lat="43.91641162053869" lon="4.5232605100428325"><ele>89.33333333333334</ele><time>2026-04-11T14:23:00.999Z</time></trkpt><trkpt lat="43.916444986913305" lon="4.52339772611096"><ele>89.0</ele><time>2026-04-11T14:23:02.999Z</time></trkpt><trkpt lat="43.916475792990774" lon="4.523485308303163"><ele>89.0</ele><time>2026-04-11T14:23:03.999Z</time></trkpt><trkpt lat="43.91650072022743" lon="4.523570598105872"><ele>89.0</ele><time>2026-04-11T14:23:04.999Z</time></trkpt><trkpt lat="43.916539918370106" lon="4.523728672306112"><ele>89.0</ele><time>2026-04-11T14:23:06.999Z</time></trkpt><trkpt lat="43.916569159063414" lon="4.5238776669596135"><ele>89.0</ele><time>2026-04-11T14:23:08.999Z</time></trkpt><trkpt lat="43.91657660435931" lon="4.524035848376083"><ele>89.0</ele><time>2026-04-11T14:23:10.999Z</time></trkpt><trkpt lat="43.91657048686363" lon="4.524175997755363"><ele>89.0</ele><time>2026-04-11T14:23:12.999Z</time></trkpt><trkpt lat="43.9165842570056" lon="4.524320602715283"><ele>89.0</ele><time>2026-04-11T14:23:14.999Z</time></trkpt><trkpt lat="43.91662320354883" lon="4.524461309421996"><ele>89.0</ele><time>2026-04-11T14:23:16.999Z</time></trkpt><trkpt lat="43.91664908988432" lon="4.524546053146431"><ele>89.0</ele><time>2026-04-11T14:23:17.999Z</time></trkpt><trkpt lat="43.91668653758365" lon="4.524700523896961"><ele>89.0</ele><time>2026-04-11T14:23:19.999Z</time></trkpt><trkpt lat="43.91670452755849" lon="4.524864700675723"><ele>89.0</ele><time>2026-04-11T14:23:21.999Z</time></trkpt><trkpt lat="43.9167365281512" lon="4.525024478928287"><ele>89.0</ele><time>2026-04-11T14:23:23.999Z</time></trkpt><trkpt lat="43.916769182718866" lon="4.525169039270775"><ele>89.0</ele><time>2026-04-11T14:23:25.999Z</time></trkpt><trkpt lat="43.91677551053415" lon="4.525263034525662"><ele>89.0</ele><time>2026-04-11T14:23:29.999Z</time></trkpt><trkpt lat="43.9166857386409" lon="4.525303995947686"><ele>89.0</ele><time>2026-04-11T14:23:32.999Z</time></trkpt><trkpt lat="43.9166326912804" lon="4.525400085613552"><ele>89.0</ele><time>2026-04-11T14:23:34.999Z</time></trkpt><trkpt lat="43.91656776662218" lon="4.525379461294159"><ele>89.0</ele><time>2026-04-11T14:23:36.999Z</time></trkpt><trkpt lat="43.91652348234784" lon="4.525270109973711"><ele>89.0</ele><time>2026-04-11T14:23:39.999Z</time></trkpt><trkpt lat="43.91655678060716" lon="4.5251568235577375"><ele>89.0</ele><time>2026-04-11T14:23:42.999Z</time></trkpt><trkpt lat="43.91655744754878" lon="4.525058803146279"><ele>89.0</ele><time>2026-04-11T14:23:46.999Z</time></trkpt><trkpt lat="43.91649398063799" lon="4.525023396118276"><ele>89.0</ele><time>2026-04-11T14:23:48.999Z</time></trkpt><trkpt lat="43.91641507240828" lon="4.524979692423309"><ele>88.99999999999999</ele><time>2026-04-11T14:23:51.999Z</time></trkpt><trkpt lat="43.91634775186048" lon="4.524985595963608"><ele>89.0</ele><time>2026-04-11T14:23:54.999Z</time></trkpt><trkpt lat="43.91628818951241" lon="4.525029404729348"><ele>89.0</ele><time>2026-04-11T14:24:05.999Z</time></trkpt><trkpt lat="43.91623799215008" lon="4.525091407662292"><ele>89.0</ele><time>2026-04-11T14:24:40.999Z</time></trkpt><trkpt lat="43.91617129763114" lon="4.525100871261989"><ele>89.0</ele><time>2026-04-11T14:24:51.999Z</time></trkpt><trkpt lat="43.91611410248814" lon="4.525039417322903"><ele>88.99999999999999</ele><time>2026-04-11T14:25:01.999Z</time></trkpt><trkpt lat="43.91604186144052" lon="4.525026737990053"><ele>89.0</ele><time>2026-04-11T14:25:20.999Z</time></trkpt><trkpt lat="43.91597626505882" lon="4.525039894549261"><ele>89.0</ele><time>2026-04-11T14:25:49.999Z</time></trkpt><trkpt lat="43.915924731042374" lon="4.525090437332333"><ele>89.0</ele><time>2026-04-11T14:25:55.999Z</time></trkpt><trkpt lat="43.91590286921837" lon="4.525195727455222"><ele>89.0</ele><time>2026-04-11T14:25:59.999Z</time></trkpt><trkpt lat="43.91584948989442" lon="4.525269998739634"><ele>89.0</ele><time>2026-04-11T14:26:03.999Z</time></trkpt><trkpt lat="43.91577446026617" lon="4.525318402623484"><ele>89.0</ele><time>2026-04-11T14:26:06.999Z</time></trkpt><trkpt lat="43.9157089350146" lon="4.5253781222822"><ele>89.0</ele><time>2026-04-11T14:26:08.999Z</time></trkpt><trkpt lat="43.91564076918993" lon="4.5253118505138"><ele>90.5</ele><time>2026-04-11T14:26:12.999Z</time></trkpt><trkpt lat="43.915572148792464" lon="4.525283557172125"><ele>92.0</ele><time>2026-04-11T14:26:15.999Z</time></trkpt><trkpt lat="43.91547864791915" lon="4.5252848843336"><ele>93.5</ele><time>2026-04-11T14:26:18.999Z</time></trkpt><trkpt lat="43.915399602956384" lon="4.525261297923876"><ele>95.0</ele><time>2026-04-11T14:26:20.999Z</time></trkpt><trkpt lat="43.91533333153438" lon="4.525295800460662"><ele>96.49999999999999</ele><time>2026-04-11T14:26:23.999Z</time></trkpt><trkpt lat="43.915248715814144" lon="4.525336570380948"><ele>98.0</ele><time>2026-04-11T14:26:25.999Z</time></trkpt><trkpt lat="43.91513970468752" lon="4.525318440407593"><ele>99.4</ele><time>2026-04-11T14:26:27.999Z</time></trkpt><trkpt lat="43.915027521726536" lon="4.525288720233599"><ele>100.80000000000001</ele><time>2026-04-11T14:26:29.999Z</time></trkpt><trkpt lat="43.9149262781557" lon="4.525296875644201"><ele>102.2</ele><time>2026-04-11T14:26:31.999Z</time></trkpt><trkpt lat="43.914842897577266" lon="4.525318996831462"><ele>103.6</ele><time>2026-04-11T14:26:33.999Z</time></trkpt><trkpt lat="43.91474814104108" lon="4.525355135221659"><ele>105.0</ele><time>2026-04-11T14:26:35.999Z</time></trkpt><trkpt lat="43.91466193099507" lon="4.525376388293695"><ele>103.8</ele><time>2026-04-11T14:26:37.999Z</time></trkpt><trkpt lat="43.91458570335107" lon="4.525437289973237"><ele>102.6</ele><time>2026-04-11T14:26:39.999Z</time></trkpt><trkpt lat="43.91451373079009" lon="4.525525253492659"><ele>101.4</ele><time>2026-04-11T14:26:41.999Z</time></trkpt><trkpt lat="43.91443145166852" lon="4.525588249034333"><ele>100.2</ele><time>2026-04-11T14:26:43.999Z</time></trkpt><trkpt lat="43.91434338393479" lon="4.525556116352986"><ele>99.0</ele><time>2026-04-11T14:26:45.999Z</time></trkpt><trkpt lat="43.9142670825466" lon="4.525469345961314"><ele>99.0</ele><time>2026-04-11T14:26:47.999Z</time></trkpt><trkpt lat="43.914165821962115" lon="4.52545155795568"><ele>99.0</ele><time>2026-04-11T14:26:49.999Z</time></trkpt><trkpt lat="43.91408160164186" lon="4.5254358934297905"><ele>99.0</ele><time>2026-04-11T14:26:51.999Z</time></trkpt><trkpt lat="43.913994998892626" lon="4.5253888495670305"><ele>99.0</ele><time>2026-04-11T14:26:53.999Z</time></trkpt><trkpt lat="43.9139284936576" lon="4.525344973750729"><ele>99.0</ele><time>2026-04-11T14:26:55.999Z</time></trkpt><trkpt lat="43.913846474135624" lon="4.52528711782491"><ele>99.0</ele><time>2026-04-11T14:26:57.999Z</time></trkpt><trkpt lat="43.91378520971221" lon="4.525315407737158"><ele>99.0</ele><time>2026-04-11T14:28:10.999Z</time></trkpt><trkpt lat="43.913766507861816" lon="4.525422177324066"><ele>99.0</ele><time>2026-04-11T14:28:14.999Z</time></trkpt><trkpt lat="43.91376255214987" lon="4.525524423483693"><ele>99.0</ele><time>2026-04-11T14:28:17.999Z</time></trkpt><trkpt lat="43.913766826349246" lon="4.525617886620817"><ele>99.0</ele><time>2026-04-11T14:28:20.999Z</time></trkpt><trkpt lat="43.91373363093519" lon="4.52571051485525"><ele>99.0</ele><time>2026-04-11T14:28:23.999Z</time></trkpt><trkpt lat="43.913721434857024" lon="4.525796602493086"><ele>99.0</ele><time>2026-04-11T14:28:26.999Z</time></trkpt><trkpt lat="43.91375431676487" lon="4.525913316279859"><ele>99.0</ele><time>2026-04-11T14:28:29.999Z</time></trkpt><trkpt lat="43.9138351892195" lon="4.5260064423358495"><ele>99.0</ele><time>2026-04-11T14:28:31.999Z</time></trkpt><trkpt lat="43.913893598144796" lon="4.5260624996795205"><ele>99.0</ele><time>2026-04-11T14:28:32.999Z</time></trkpt><trkpt lat="43.91396357825613" lon="4.526116494005272"><ele>99.0</ele><time>2026-04-11T14:28:34.999Z</time></trkpt><trkpt lat="43.91396284383958" lon="4.526211356398104"><ele>99.0</ele><time>2026-04-11T14:28:59Z</time></trkpt><trkpt lat="43.91391686949526" lon="4.526286408818717"><ele>99.0</ele><time>2026-04-11T14:29:01Z</time></trkpt><trkpt lat="43.91386453285434" lon="4.526341817784495"><ele>99.0</ele><time>2026-04-11T14:29:03Z</time></trkpt><trkpt lat="43.91379764203969" lon="4.526405914151497"><ele>99.0</ele><time>2026-04-11T14:29:05Z</time></trkpt><trkpt lat="43.91374726029949" lon="4.526505897448632"><ele>98.16666666666667</ele><time>2026-04-11T14:29:07Z</time></trkpt><trkpt lat="43.913663214845" lon="4.5265771419450855"><ele>97.33333333333333</ele><time>2026-04-11T14:29:09Z</time></trkpt><trkpt lat="43.913579574857664" lon="4.526635439843249"><ele>96.5</ele><time>2026-04-11T14:29:11Z</time></trkpt><trkpt lat="43.91351890613891" lon="4.526686779695148"><ele>95.66666666666666</ele><time>2026-04-11T14:29:13Z</time></trkpt><trkpt lat="43.91346348685043" lon="4.526749302987087"><ele>94.83333333333333</ele><time>2026-04-11T14:29:15Z</time></trkpt><trkpt lat="43.913370767547214" lon="4.526785313390889"><ele>94.0</ele><time>2026-04-11T14:29:17Z</time></trkpt><trkpt lat="43.91325328490703" lon="4.526760240263854"><ele>93.66666666666666</ele><time>2026-04-11T14:29:19Z</time></trkpt><trkpt lat="43.91317583054566" lon="4.526734847232179"><ele>93.33333333333333</ele><time>2026-04-11T14:29:21Z</time></trkpt><trkpt lat="43.91311592574712" lon="4.526792667976998"><ele>93.0</ele><time>2026-04-11T14:29:25Z</time></trkpt><trkpt lat="43.913092293454234" lon="4.526909198721443"><ele>92.66666666666667</ele><time>2026-04-11T14:29:29Z</time></trkpt><trkpt lat="43.91304689222379" lon="4.526998935344793"><ele>92.33333333333334</ele><time>2026-04-11T14:29:33Z</time></trkpt><trkpt lat="43.91300814741042" lon="4.5270712533130215"><ele>92.0</ele><time>2026-04-11T14:29:35Z</time></trkpt><trkpt lat="43.91297030730155" lon="4.527148817408672"><ele>91.85714285714286</ele><time>2026-04-11T14:29:37Z</time></trkpt><trkpt lat="43.912929949698" lon="4.527218136203458"><ele>91.71428571428571</ele><time>2026-04-11T14:29:39Z</time></trkpt><trkpt lat="43.91286618399328" lon="4.527267916075428"><ele>91.57142857142857</ele><time>2026-04-11T14:30:09Z</time></trkpt><trkpt lat="43.91280133566273" lon="4.527247784827136"><ele>91.42857142857143</ele><time>2026-04-11T14:30:12Z</time></trkpt><trkpt lat="43.912740425136505" lon="4.5271962971701045"><ele>91.28571428571428</ele><time>2026-04-11T14:30:36.999Z</time></trkpt><trkpt lat="43.912682129639244" lon="4.527119463068301"><ele>91.14285714285714</ele><time>2026-04-11T14:30:48Z</time></trkpt><trkpt lat="43.912610485786075" lon="4.52707197036087"><ele>91.0</ele><time>2026-04-11T14:30:51Z</time></trkpt><trkpt lat="43.91252541043491" lon="4.5270302071674005"><ele>91.5</ele><time>2026-04-11T14:30:53Z</time></trkpt><trkpt lat="43.91246210874689" lon="4.526992997272611"><ele>92.0</ele><time>2026-04-11T14:30:55Z</time></trkpt><trkpt lat="43.912385873423624" lon="4.526953142621808"><ele>92.5</ele><time>2026-04-11T14:30:57Z</time></trkpt><trkpt lat="43.912276148346315" lon="4.5269170879671465"><ele>93.0</ele><time>2026-04-11T14:30:59Z</time></trkpt><trkpt lat="43.91220489632902" lon="4.526854667133899"><ele>93.5</ele><time>2026-04-11T14:31:01Z</time></trkpt><trkpt lat="43.912180329081025" lon="4.526743643485585"><ele>94.0</ele><time>2026-04-11T14:31:03Z</time></trkpt><trkpt lat="43.91210197709081" lon="4.5266636717528215"><ele>94.0</ele><time>2026-04-11T14:31:05Z</time></trkpt><trkpt lat="43.91201187184302" lon="4.526610302263479"><ele>94.0</ele><time>2026-04-11T14:31:07Z</time></trkpt><trkpt lat="43.91193742871907" lon="4.526636868038242"><ele>94.0</ele><time>2026-04-11T14:31:13Z</time></trkpt><trkpt lat="43.91187619858745" lon="4.526563670405166"><ele>94.0</ele><time>2026-04-11T14:31:15Z</time></trkpt><trkpt lat="43.91180502881749" lon="4.526522798095979"><ele>94.0</ele><time>2026-04-11T14:31:17Z</time></trkpt><trkpt lat="43.911728397118175" lon="4.526472520743417"><ele>94.0</ele><time>2026-04-11T14:31:19Z</time></trkpt><trkpt lat="43.911649023505035" lon="4.526388677221735"><ele>94.2</ele><time>2026-04-11T14:31:21Z</time></trkpt><trkpt lat="43.911573041038956" lon="4.526357581526046"><ele>94.4</ele><time>2026-04-11T14:31:23Z</time></trkpt><trkpt lat="43.911481288038885" lon="4.526294918300059"><ele>94.6</ele><time>2026-04-11T14:31:26Z</time></trkpt><trkpt lat="43.911384806851146" lon="4.526256736554584"><ele>94.8</ele><time>2026-04-11T14:31:28Z</time></trkpt><trkpt lat="43.91128631802605" lon="4.526216176938108"><ele>95.0</ele><time>2026-04-11T14:31:31Z</time></trkpt><trkpt lat="43.91125013266799" lon="4.526297892819968"><ele>95.0</ele><time>2026-04-11T14:31:34Z</time></trkpt><trkpt lat="43.911186047235375" lon="4.526353100455566"><ele>95.0</ele><time>2026-04-11T14:31:36Z</time></trkpt><trkpt lat="43.911104335234675" lon="4.526379636557965"><ele>95.0</ele><time>2026-04-11T14:31:40Z</time></trkpt><trkpt lat="43.911024035454545" lon="4.526418490300479"><ele>95.0</ele><time>2026-04-11T14:31:43Z</time></trkpt><trkpt lat="43.911003391115294" lon="4.52650869645737"><ele>95.0</ele><time>2026-04-11T14:31:45Z</time></trkpt><trkpt lat="43.910933241526884" lon="4.5265216889414255"><ele>95.0</ele><time>2026-04-11T14:31:55Z</time></trkpt><trkpt lat="43.91087193661182" lon="4.526570865791838"><ele>95.42857142857143</ele><time>2026-04-11T14:31:59Z</time></trkpt><trkpt lat="43.91079645399666" lon="4.526566352504972"><ele>95.85714285714286</ele><time>2026-04-11T14:32:02Z</time></trkpt><trkpt lat="43.91073296273402" lon="4.526536999526833"><ele>96.28571428571428</ele><time>2026-04-11T14:32:05Z</time></trkpt><trkpt lat="43.91067052527687" lon="4.52650267592615"><ele>96.71428571428572</ele><time>2026-04-11T14:32:08Z</time></trkpt><trkpt lat="43.910597045301294" lon="4.526495292257713"><ele>97.14285714285714</ele><time>2026-04-11T14:32:10Z</time></trkpt><trkpt lat="43.91052422159919" lon="4.526455136361455"><ele>97.57142857142857</ele><time>2026-04-11T14:32:12Z</time></trkpt><trkpt lat="43.91045717495589" lon="4.526412772818126"><ele>98.0</ele><time>2026-04-11T14:32:14Z</time></trkpt><trkpt lat="43.91039240088064" lon="4.526398725292948"><ele>98.0</ele><time>2026-04-11T14:32:16Z</time></trkpt><trkpt lat="43.91031965477874" lon="4.526369687242494"><ele>98.0</ele><time>2026-04-11T14:32:18Z</time></trkpt><trkpt lat="43.91025561633917" lon="4.526378853548114"><ele>98.0</ele><time>2026-04-11T14:32:22Z</time></trkpt><trkpt lat="43.910167370975515" lon="4.526407252301084"><ele>98.0</ele><time>2026-04-11T14:32:26Z</time></trkpt><trkpt lat="43.910106269873616" lon="4.526457626896247"><ele>98.0</ele><time>2026-04-11T14:32:28Z</time></trkpt><trkpt lat="43.91007482386023" lon="4.52653378888088"><ele>98.0</ele><time>2026-04-11T14:32:31Z</time></trkpt><trkpt lat="43.90999907343674" lon="4.526488725910546"><ele>98.0</ele><time>2026-04-11T14:32:34Z</time></trkpt><trkpt lat="43.90993724941688" lon="4.526434439125465"><ele>98.0</ele><time>2026-04-11T14:32:38Z</time></trkpt><trkpt lat="43.909932275520184" lon="4.5263429229253695"><ele>98.0</ele><time>2026-04-11T14:32:41Z</time></trkpt><trkpt lat="43.90991656029229" lon="4.526224830053826"><ele>98.0</ele><time>2026-04-11T14:32:44Z</time></trkpt><trkpt lat="43.90987671459814" lon="4.526151982929435"><ele>98.0</ele><time>2026-04-11T14:32:46Z</time></trkpt><trkpt lat="43.9098086419315" lon="4.526122335512087"><ele>98.0</ele><time>2026-04-11T14:32:49Z</time></trkpt><trkpt lat="43.90974678385528" lon="4.526064901610531"><ele>98.0</ele><time>2026-04-11T14:32:52Z</time></trkpt><trkpt lat="43.90975521873804" lon="4.525964810047895"><ele>98.0</ele><time>2026-04-11T14:32:55.001Z</time></trkpt><trkpt lat="43.909714074624816" lon="4.525890273507637"><ele>97.99999999999999</ele><time>2026-04-11T14:32:57.001Z</time></trkpt><trkpt lat="43.90969868478205" lon="4.525753184106131"><ele>98.0</ele><time>2026-04-11T14:32:59.001Z</time></trkpt><trkpt lat="43.909655114356724" lon="4.525645019479705"><ele>98.0</ele><time>2026-04-11T14:33:01.001Z</time></trkpt><trkpt lat="43.90961052058234" lon="4.525560134084614"><ele>98.0</ele><time>2026-04-11T14:33:04.001Z</time></trkpt><trkpt lat="43.90960208751362" lon="4.525440016494925"><ele>97.99999999999999</ele><time>2026-04-11T14:33:07.001Z</time></trkpt><trkpt lat="43.90952962417564" lon="4.5253839574867385"><ele>98.0</ele><time>2026-04-11T14:33:09.001Z</time></trkpt><trkpt lat="43.90943019076976" lon="4.525374972736046"><ele>97.99999999999999</ele><time>2026-04-11T14:33:11Z</time></trkpt><trkpt lat="43.90933872998862" lon="4.525331615177747"><ele>98.0</ele><time>2026-04-11T14:33:13Z</time></trkpt><trkpt lat="43.90926914165953" lon="4.525371027921949"><ele>98.0</ele><time>2026-04-11T14:33:15Z</time></trkpt><trkpt lat="43.909259020137924" lon="4.5254811410506175"><ele>98.0</ele><time>2026-04-11T14:33:17Z</time></trkpt><trkpt lat="43.9092947724196" lon="4.525555299982937"><ele>97.99999999999999</ele><time>2026-04-11T14:33:19Z</time></trkpt><trkpt lat="43.90928290472915" lon="4.525646298966056"><ele>98.0</ele><time>2026-04-11T14:33:24Z</time></trkpt><trkpt lat="43.909290716806275" lon="4.5257424415365755"><ele>98.49999999999999</ele><time>2026-04-11T14:33:26Z</time></trkpt><trkpt lat="43.909216356954204" lon="4.525682160918649"><ele>99.0</ele><time>2026-04-11T14:33:29Z</time></trkpt><trkpt lat="43.90914260896842" lon="4.525600761659898"><ele>99.5</ele><time>2026-04-11T14:33:31Z</time></trkpt><trkpt lat="43.90906751231419" lon="4.5256559748135"><ele>100.0</ele><time>2026-04-11T14:33:33Z</time></trkpt><trkpt lat="43.909003211871145" lon="4.525693963576598"><ele>100.49999999999999</ele><time>2026-04-11T14:33:35Z</time></trkpt><trkpt lat="43.90893218531668" lon="4.52570927927852"><ele>101.0</ele><time>2026-04-11T14:33:38Z</time></trkpt><trkpt lat="43.908927952543664" lon="4.525797560522249"><ele>100.99999999999999</ele><time>2026-04-11T14:33:41Z</time></trkpt><trkpt lat="43.908890837048496" lon="4.525933142783469"><ele>101.0</ele><time>2026-04-11T14:33:44Z</time></trkpt><trkpt lat="43.90883142857318" lon="4.52601561493832"><ele>101.0</ele><time>2026-04-11T14:33:46Z</time></trkpt><trkpt lat="43.908810554235714" lon="4.526101048953012"><ele>101.0</ele><time>2026-04-11T14:33:48Z</time></trkpt><trkpt lat="43.90883647317146" lon="4.526190613713461"><ele>100.99999999999999</ele><time>2026-04-11T14:33:50Z</time></trkpt><trkpt lat="43.90880764473226" lon="4.526278619767796"><ele>101.0</ele><time>2026-04-11T14:33:54Z</time></trkpt><trkpt lat="43.908887007213444" lon="4.526307320224436"><ele>101.66666666666666</ele><time>2026-04-11T14:33:56Z</time></trkpt><trkpt lat="43.9088990195353" lon="4.526422924268784"><ele>102.33333333333333</ele><time>2026-04-11T14:33:59Z</time></trkpt><trkpt lat="43.90891445691525" lon="4.526512606160249"><ele>103.0</ele><time>2026-04-11T14:34:01Z</time></trkpt><trkpt lat="43.90898159193128" lon="4.526623637065392"><ele>103.66666666666666</ele><time>2026-04-11T14:34:03Z</time></trkpt><trkpt lat="43.909035117551866" lon="4.526722921617914"><ele>104.33333333333333</ele><time>2026-04-11T14:34:05Z</time></trkpt><trkpt lat="43.909064305216155" lon="4.52684180458889"><ele>105.0</ele><time>2026-04-11T14:34:07Z</time></trkpt><trkpt lat="43.90910651871534" lon="4.526961361621733"><ele>105.0</ele><time>2026-04-11T14:34:09Z</time></trkpt><trkpt lat="43.90917142051773" lon="4.527023206861625"><ele>105.0</ele><time>2026-04-11T14:34:11Z</time></trkpt><trkpt lat="43.90921558910138" lon="4.527116105999269"><ele>105.0</ele><time>2026-04-11T14:34:13Z</time></trkpt><trkpt lat="43.90922707741129" lon="4.52721840605474"><ele>105.0</ele><time>2026-04-11T14:34:15Z</time></trkpt><trkpt lat="43.90923909717263" lon="4.527361646739176"><ele>105.0</ele><time>2026-04-11T14:34:17Z</time></trkpt><trkpt lat="43.90917275975446" lon="4.527417451194006"><ele>105.0</ele><time>2026-04-11T14:34:19Z</time></trkpt><trkpt lat="43.90915200491513" lon="4.527545582614494"><ele>105.33333333333333</ele><time>2026-04-11T14:34:22Z</time></trkpt><trkpt lat="43.90917646256562" lon="4.527657218670321"><ele>105.66666666666666</ele><time>2026-04-11T14:34:24Z</time></trkpt><trkpt lat="43.9091166259483" lon="4.5277323004754955"><ele>106.0</ele><time>2026-04-11T14:34:26Z</time></trkpt><trkpt lat="43.90906968804273" lon="4.527810645814343"><ele>106.33333333333333</ele><time>2026-04-11T14:34:28Z</time></trkpt><trkpt lat="43.90906132754459" lon="4.527924287159736"><ele>106.66666666666666</ele><time>2026-04-11T14:34:31Z</time></trkpt><trkpt lat="43.90902725026168" lon="4.528008268417042"><ele>107.0</ele><time>2026-04-11T14:34:35Z</time></trkpt><trkpt lat="43.909076316308806" lon="4.528076351490395"><ele>106.99999999999999</ele><time>2026-04-11T14:34:38Z</time></trkpt><trkpt lat="43.90908375904591" lon="4.528193957808563"><ele>107.0</ele><time>2026-04-11T14:34:41Z</time></trkpt><trkpt lat="43.909132620909595" lon="4.528265218334035"><ele>107.0</ele><time>2026-04-11T14:34:43Z</time></trkpt><trkpt lat="43.9091935876663" lon="4.528352799208645"><ele>107.0</ele><time>2026-04-11T14:34:46Z</time></trkpt><trkpt lat="43.90914443479881" lon="4.528435271450866"><ele>106.99999999999999</ele><time>2026-04-11T14:34:48Z</time></trkpt><trkpt lat="43.90909593614313" lon="4.528518006663763"><ele>107.0</ele><time>2026-04-11T14:34:51Z</time></trkpt><trkpt lat="43.90908850620088" lon="4.528658486754367"><ele>106.39999999999999</ele><time>2026-04-11T14:34:53Z</time></trkpt><trkpt lat="43.90905943302372" lon="4.528792424155942"><ele>105.79999999999998</ele><time>2026-04-11T14:34:55Z</time></trkpt><trkpt lat="43.90909656899636" lon="4.528872339304693"><ele>105.2</ele><time>2026-04-11T14:34:58Z</time></trkpt><trkpt lat="43.90920523355804" lon="4.5288585132924695"><ele>104.6</ele><time>2026-04-11T14:35:01.001Z</time></trkpt><trkpt lat="43.90930254714508" lon="4.528863608616638"><ele>104.0</ele><time>2026-04-11T14:35:03.001Z</time></trkpt><trkpt lat="43.90938661405797" lon="4.528912722810101"><ele>103.5</ele><time>2026-04-11T14:35:05.001Z</time></trkpt><trkpt lat="43.909486949455555" lon="4.528986607340525"><ele>103.0</ele><time>2026-04-11T14:35:07.001Z</time></trkpt><trkpt lat="43.909556269838205" lon="4.529111762532104"><ele>102.5</ele><time>2026-04-11T14:35:09Z</time></trkpt><trkpt lat="43.90956224034585" lon="4.529286368203055"><ele>102.0</ele><time>2026-04-11T14:35:11Z</time></trkpt><trkpt lat="43.909511802307115" lon="4.529406376225852"><ele>102.0</ele><time>2026-04-11T14:35:13Z</time></trkpt><trkpt lat="43.90941512534111" lon="4.529443635091816"><ele>102.0</ele><time>2026-04-11T14:35:15Z</time></trkpt><trkpt lat="43.90930898972283" lon="4.529435891506293"><ele>102.0</ele><time>2026-04-11T14:35:17Z</time></trkpt><trkpt lat="43.90928829961947" lon="4.529556119146002"><ele>102.0</ele><time>2026-04-11T14:35:21Z</time></trkpt><trkpt lat="43.909279287841386" lon="4.529658274275081"><ele>102.0</ele><time>2026-04-11T14:35:23Z</time></trkpt><trkpt lat="43.90924139805069" lon="4.529744898089309"><ele>102.0</ele><time>2026-04-11T14:35:26Z</time></trkpt><trkpt lat="43.90918132432141" lon="4.52979101753528"><ele>102.6</ele><time>2026-04-11T14:35:29Z</time></trkpt><trkpt lat="43.90911172713301" lon="4.529900564609152"><ele>103.19999999999999</ele><time>2026-04-11T14:35:31Z</time></trkpt><trkpt lat="43.909068169714956" lon="4.529992299965526"><ele>103.8</ele><time>2026-04-11T14:35:33Z</time></trkpt><trkpt lat="43.90901863765781" lon="4.530087403375879"><ele>104.4</ele><time>2026-04-11T14:35:36Z</time></trkpt><trkpt lat="43.90896624570125" lon="4.5302205621048115"><ele>105.0</ele><time>2026-04-11T14:35:38Z</time></trkpt><trkpt lat="43.908949092350184" lon="4.530345636857067"><ele>105.4</ele><time>2026-04-11T14:35:41Z</time></trkpt><trkpt lat="43.90894747881425" lon="4.530483480734767"><ele>105.8</ele><time>2026-04-11T14:35:43Z</time></trkpt><trkpt lat="43.90891724088273" lon="4.530569418010684"><ele>106.19999999999999</ele><time>2026-04-11T14:35:45Z</time></trkpt><trkpt lat="43.908890519633175" lon="4.530679100565688"><ele>106.6</ele><time>2026-04-11T14:35:48Z</time></trkpt><trkpt lat="43.90886341227656" lon="4.53081994687679"><ele>107.0</ele><time>2026-04-11T14:35:50Z</time></trkpt><trkpt lat="43.90881280608087" lon="4.530951712540428"><ele>106.99999999999999</ele><time>2026-04-11T14:35:52Z</time></trkpt><trkpt lat="43.908750114823505" lon="4.531026328096509"><ele>107.0</ele><time>2026-04-11T14:35:55Z</time></trkpt><trkpt lat="43.908734287052965" lon="4.531135257485022"><ele>107.0</ele><time>2026-04-11T14:37:11Z</time></trkpt><trkpt lat="43.90873506826264" lon="4.531256754411108"><ele>107.0</ele><time>2026-04-11T14:37:13Z</time></trkpt><trkpt lat="43.90872211530818" lon="4.53138134664541"><ele>106.99999999999999</ele><time>2026-04-11T14:37:15Z</time></trkpt><trkpt lat="43.908712131575335" lon="4.531469545841844"><ele>107.0</ele><time>2026-04-11T14:37:16Z</time></trkpt><trkpt lat="43.90864750737745" lon="4.531642834834124"><ele>107.49999999999999</ele><time>2026-04-11T14:37:18Z</time></trkpt><trkpt lat="43.90863665548903" lon="4.531757046147117"><ele>108.0</ele><time>2026-04-11T14:37:19Z</time></trkpt><trkpt lat="43.908621563171714" lon="4.531864610693578"><ele>108.5</ele><time>2026-04-11T14:37:20Z</time></trkpt><trkpt lat="43.90861529630722" lon="4.531965972783104"><ele>109.0</ele><time>2026-04-11T14:37:21Z</time></trkpt><trkpt lat="43.90861651095285" lon="4.5320537899405124"><ele>109.49999999999999</ele><time>2026-04-11T14:37:22Z</time></trkpt><trkpt lat="43.90860498697485" lon="4.5322024179827345"><ele>110.0</ele><time>2026-04-11T14:37:24Z</time></trkpt><trkpt lat="43.90859410051108" lon="4.53232976561557"><ele>109.99999999999999</ele><time>2026-04-11T14:37:26Z</time></trkpt><trkpt lat="43.90859803634386" lon="4.532454020370499"><ele>110.0</ele><time>2026-04-11T14:37:28Z</time></trkpt><trkpt lat="43.908612417226294" lon="4.532549007191244"><ele>110.0</ele><time>2026-04-11T14:37:29Z</time></trkpt><trkpt lat="43.908631536727164" lon="4.532643249556844"><ele>110.0</ele><time>2026-04-11T14:37:30Z</time></trkpt><trkpt lat="43.90866633024299" lon="4.5327384186843505"><ele>109.99999999999999</ele><time>2026-04-11T14:37:31Z</time></trkpt><trkpt lat="43.90870641788855" lon="4.532824221226071"><ele>110.0</ele><time>2026-04-11T14:37:32Z</time></trkpt><trkpt lat="43.908740037545414" lon="4.5329229957985575"><ele>110.57142857142856</ele><time>2026-04-11T14:37:33Z</time></trkpt><trkpt lat="43.908761856652134" lon="4.533019549877527"><ele>111.14285714285714</ele><time>2026-04-11T14:37:34Z</time></trkpt><trkpt lat="43.90877225124513" lon="4.533117688062684"><ele>111.71428571428571</ele><time>2026-04-11T14:37:35Z</time></trkpt><trkpt lat="43.90877699571805" lon="4.533223469520873"><ele>112.28571428571428</ele><time>2026-04-11T14:37:36Z</time></trkpt><trkpt lat="43.908782710400175" lon="4.533328390220118"><ele>112.85714285714285</ele><time>2026-04-11T14:37:37Z</time></trkpt><trkpt lat="43.90877255580581" lon="4.533425224715015"><ele>113.42857142857142</ele><time>2026-04-11T14:37:38Z</time></trkpt><trkpt lat="43.90879338126231" lon="4.533525799654912"><ele>114.0</ele><time>2026-04-11T14:37:39Z</time></trkpt><trkpt lat="43.90880233816088" lon="4.533622319204277"><ele>115.0</ele><time>2026-04-11T14:37:40Z</time></trkpt><trkpt lat="43.90881061629573" lon="4.533726662273249"><ele>116.0</ele><time>2026-04-11T14:37:41Z</time></trkpt><trkpt lat="43.908806054350066" lon="4.533817460267578"><ele>117.0</ele><time>2026-04-11T14:37:42Z</time></trkpt><trkpt lat="43.908817845735705" lon="4.53391026238168"><ele>118.0</ele><time>2026-04-11T14:37:43Z</time></trkpt><trkpt lat="43.90885784727081" lon="4.534030861101946"><ele>119.0</ele><time>2026-04-11T14:37:45Z</time></trkpt><trkpt lat="43.90889630776417" lon="4.534132426637975"><ele>120.0</ele><time>2026-04-11T14:37:55Z</time></trkpt><trkpt lat="43.908963098020706" lon="4.534288189359282"><ele>120.0</ele><time>2026-04-11T14:37:57Z</time></trkpt><trkpt lat="43.90899615161239" lon="4.534373151400503"><ele>120.0</ele><time>2026-04-11T14:37:58Z</time></trkpt><trkpt lat="43.909021193351435" lon="4.534453963048225"><ele>120.0</ele><time>2026-04-11T14:37:59Z</time></trkpt><trkpt lat="43.90905073252835" lon="4.53453424869707"><ele>120.0</ele><time>2026-04-11T14:38:00Z</time></trkpt><trkpt lat="43.90912069212136" lon="4.534674034149185"><ele>120.0</ele><time>2026-04-11T14:38:02Z</time></trkpt><trkpt lat="43.909153465661596" lon="4.534755250918281"><ele>120.0</ele><time>2026-04-11T14:38:03Z</time></trkpt><trkpt lat="43.90919273946246" lon="4.534906461212331"><ele>119.8</ele><time>2026-04-11T14:38:05Z</time></trkpt><trkpt lat="43.909241222927335" lon="4.5350348571437245"><ele>119.6</ele><time>2026-04-11T14:38:07Z</time></trkpt><trkpt lat="43.90930004981321" lon="4.535119995968683"><ele>119.4</ele><time>2026-04-11T14:38:09Z</time></trkpt><trkpt lat="43.909395448260774" lon="4.535273100914595"><ele>119.2</ele><time>2026-04-11T14:38:11Z</time></trkpt><trkpt lat="43.909418357304276" lon="4.535385783744347"><ele>119.0</ele><time>2026-04-11T14:38:12Z</time></trkpt><trkpt lat="43.909450462996034" lon="4.535478144852561"><ele>118.49999999999999</ele><time>2026-04-11T14:38:13Z</time></trkpt><trkpt lat="43.90947994359145" lon="4.535566867494302"><ele>118.0</ele><time>2026-04-11T14:38:14Z</time></trkpt><trkpt lat="43.90949738259782" lon="4.5356550738198"><ele>117.5</ele><time>2026-04-11T14:38:15Z</time></trkpt><trkpt lat="43.909575554592266" lon="4.535810287431446"><ele>117.0</ele><time>2026-04-11T14:38:17Z</time></trkpt><trkpt lat="43.90962358117693" lon="4.535902712838921"><ele>116.49999999999999</ele><time>2026-04-11T14:38:18Z</time></trkpt><trkpt lat="43.90967265328527" lon="4.535991168274701"><ele>116.0</ele><time>2026-04-11T14:38:19Z</time></trkpt><trkpt lat="43.90971122829775" lon="4.536076230262916"><ele>115.99999999999999</ele><time>2026-04-11T14:38:19.999Z</time></trkpt><trkpt lat="43.909746895956744" lon="4.536177309882908"><ele>116.0</ele><time>2026-04-11T14:38:20.999Z</time></trkpt><trkpt lat="43.90977447579277" lon="4.536273283110157"><ele>116.0</ele><time>2026-04-11T14:38:21.999Z</time></trkpt><trkpt lat="43.90981028756143" lon="4.536345787197914"><ele>116.0</ele><time>2026-04-11T14:38:22.999Z</time></trkpt><trkpt lat="43.9098607392234" lon="4.536421552581274"><ele>115.99999999999999</ele><time>2026-04-11T14:38:23.999Z</time></trkpt><trkpt lat="43.90990264074256" lon="4.5365014239273735"><ele>116.0</ele><time>2026-04-11T14:38:24.999Z</time></trkpt><trkpt lat="43.909989797509574" lon="4.536642673058579"><ele>116.00000000000001</ele><time>2026-04-11T14:38:26.999Z</time></trkpt><trkpt lat="43.91004743639708" lon="4.53669704037434"><ele>116.0</ele><time>2026-04-11T14:38:27.999Z</time></trkpt><trkpt lat="43.910109638826405" lon="4.53675457340944"><ele>116.00000000000001</ele><time>2026-04-11T14:38:28.999Z</time></trkpt><trkpt lat="43.91016603349507" lon="4.536810539564658"><ele>116.00000000000001</ele><time>2026-04-11T14:38:29.999Z</time></trkpt><trkpt lat="43.9102180468498" lon="4.536877184840343"><ele>116.0</ele><time>2026-04-11T14:38:30.999Z</time></trkpt><trkpt lat="43.91027350665672" lon="4.53695236886093"><ele>116.00000000000001</ele><time>2026-04-11T14:38:31.999Z</time></trkpt><trkpt lat="43.910322972772725" lon="4.53702499133447"><ele>116.00000000000001</ele><time>2026-04-11T14:38:32.999Z</time></trkpt><trkpt lat="43.910371059184854" lon="4.537090953261011"><ele>115.14285714285715</ele><time>2026-04-11T14:38:33.999Z</time></trkpt><trkpt lat="43.910437672198164" lon="4.537150394818158"><ele>114.28571428571429</ele><time>2026-04-11T14:38:34.999Z</time></trkpt><trkpt lat="43.9104997979713" lon="4.537211613972533"><ele>113.42857142857143</ele><time>2026-04-11T14:38:35.999Z</time></trkpt><trkpt lat="43.91055513494046" lon="4.537259445924278"><ele>112.57142857142858</ele><time>2026-04-11T14:38:36.999Z</time></trkpt><trkpt lat="43.9106193374052" lon="4.53729796094644"><ele>111.71428571428572</ele><time>2026-04-11T14:38:37.999Z</time></trkpt><trkpt lat="43.91069525781447" lon="4.537325852613398"><ele>110.85714285714285</ele><time>2026-04-11T14:38:38.999Z</time></trkpt><trkpt lat="43.91075630676527" lon="4.53735189426848"><ele>110.0</ele><time>2026-04-11T14:38:39.999Z</time></trkpt><trkpt lat="43.91082425430125" lon="4.537370308388835"><ele>109.99999999999999</ele><time>2026-04-11T14:38:40.999Z</time></trkpt><trkpt lat="43.91090341680321" lon="4.537347843268327"><ele>110.0</ele><time>2026-04-11T14:38:41.999Z</time></trkpt><trkpt lat="43.91098068072191" lon="4.537322629707235"><ele>110.0</ele><time>2026-04-11T14:38:42.999Z</time></trkpt><trkpt lat="43.9110521133977" lon="4.537294821661126"><ele>110.0</ele><time>2026-04-11T14:38:43.999Z</time></trkpt><trkpt lat="43.91112330594418" lon="4.5372858145260855"><ele>109.99999999999999</ele><time>2026-04-11T14:38:44.999Z</time></trkpt><trkpt lat="43.91123041187561" lon="4.537290832372368"><ele>110.0</ele><time>2026-04-11T14:38:46.999Z</time></trkpt><trkpt lat="43.91133078701135" lon="4.537261454066444"><ele>109.42857142857142</ele><time>2026-04-11T14:38:48.999Z</time></trkpt><trkpt lat="43.911385287805" lon="4.537213025122662"><ele>108.85714285714286</ele><time>2026-04-11T14:38:49.999Z</time></trkpt><trkpt lat="43.911436821790915" lon="4.53716104324996"><ele>108.28571428571428</ele><time>2026-04-11T14:38:50.999Z</time></trkpt><trkpt lat="43.91151039687865" lon="4.5370968735042165"><ele>107.71428571428571</ele><time>2026-04-11T14:38:52.999Z</time></trkpt><trkpt lat="43.91156108524685" lon="4.537180612879362"><ele>107.14285714285714</ele><time>2026-04-11T14:40:09Z</time></trkpt><trkpt lat="43.91155366316053" lon="4.53728101907808"><ele>106.57142857142857</ele><time>2026-04-11T14:40:11Z</time></trkpt><trkpt lat="43.911520219735266" lon="4.537380522893872"><ele>106.0</ele><time>2026-04-11T14:40:29.999Z</time></trkpt><trkpt lat="43.911491564314034" lon="4.537494161588382"><ele>106.0</ele><time>2026-04-11T14:40:31.999Z</time></trkpt><trkpt lat="43.911468574047355" lon="4.537597068981369"><ele>106.0</ele><time>2026-04-11T14:40:34.999Z</time></trkpt><trkpt lat="43.911447139028944" lon="4.537746559709641"><ele>106.0</ele><time>2026-04-11T14:40:37.999Z</time></trkpt><trkpt lat="43.91141453137742" lon="4.537905696122588"><ele>106.0</ele><time>2026-04-11T14:40:39.999Z</time></trkpt><trkpt lat="43.911389066965505" lon="4.538064901133817"><ele>106.0</ele><time>2026-04-11T14:40:41.999Z</time></trkpt><trkpt lat="43.911405105738105" lon="4.538158769484642"><ele>106.4</ele><time>2026-04-11T14:40:44.999Z</time></trkpt><trkpt lat="43.911475119235206" lon="4.538215866677382"><ele>106.8</ele><time>2026-04-11T14:40:47.999Z</time></trkpt><trkpt lat="43.91158754286745" lon="4.538249889046351"><ele>107.20000000000002</ele><time>2026-04-11T14:40:49.999Z</time></trkpt><trkpt lat="43.91170590606595" lon="4.53823132646183"><ele>107.60000000000001</ele><time>2026-04-11T14:40:51.999Z</time></trkpt><trkpt lat="43.9117902825237" lon="4.538257655888043"><ele>108.0</ele><time>2026-04-11T14:40:53.999Z</time></trkpt><trkpt lat="43.91184977556209" lon="4.538222313660736"><ele>107.42857142857143</ele><time>2026-04-11T14:41:19Z</time></trkpt><trkpt lat="43.911876912064194" lon="4.538137254082568"><ele>106.85714285714286</ele><time>2026-04-11T14:41:22Z</time></trkpt><trkpt lat="43.9119459218032" lon="4.538140172910951"><ele>106.28571428571428</ele><time>2026-04-11T14:41:32Z</time></trkpt><trkpt lat="43.912012853842946" lon="4.538157308857512"><ele>105.71428571428572</ele><time>2026-04-11T14:41:34Z</time></trkpt><trkpt lat="43.91208678992799" lon="4.538169680923994"><ele>105.14285714285715</ele><time>2026-04-11T14:41:36Z</time></trkpt><trkpt lat="43.91216354569691" lon="4.538193366499203"><ele>104.57142857142857</ele><time>2026-04-11T14:41:38Z</time></trkpt><trkpt lat="43.91224911788389" lon="4.53816409098856"><ele>104.0</ele><time>2026-04-11T14:41:40Z</time></trkpt><trkpt lat="43.91236033509568" lon="4.538136424140458"><ele>104.0</ele><time>2026-04-11T14:41:42Z</time></trkpt><trkpt lat="43.912467361349236" lon="4.538131050253974"><ele>104.0</ele><time>2026-04-11T14:41:44Z</time></trkpt><trkpt lat="43.9126000906469" lon="4.538101784575416"><ele>104.0</ele><time>2026-04-11T14:41:46Z</time></trkpt><trkpt lat="43.91268970755639" lon="4.538080957267483"><ele>104.0</ele><time>2026-04-11T14:41:48Z</time></trkpt><trkpt lat="43.912786628901344" lon="4.538062647270707"><ele>104.0</ele><time>2026-04-11T14:41:50Z</time></trkpt><trkpt lat="43.91285769809424" lon="4.538106350198467"><ele>103.0</ele><time>2026-04-11T14:41:52Z</time></trkpt><trkpt lat="43.912929795094996" lon="4.538131380006046"><ele>102.0</ele><time>2026-04-11T14:41:54Z</time></trkpt><trkpt lat="43.91301907761373" lon="4.53808474575303"><ele>101.0</ele><time>2026-04-11T14:41:56Z</time></trkpt><trkpt lat="43.91314302804137" lon="4.538085066927388"><ele>100.0</ele><time>2026-04-11T14:41:58Z</time></trkpt><trkpt lat="43.9132252651145" lon="4.538060998721908"><ele>99.0</ele><time>2026-04-11T14:42:00Z</time></trkpt><trkpt lat="43.91333150973535" lon="4.538037181442105"><ele>98.80000000000001</ele><time>2026-04-11T14:42:03Z</time></trkpt><trkpt lat="43.91344690715062" lon="4.538021106544322"><ele>98.60000000000001</ele><time>2026-04-11T14:42:05Z</time></trkpt><trkpt lat="43.91355119935666" lon="4.5379933847708385"><ele>98.4</ele><time>2026-04-11T14:42:07Z</time></trkpt><trkpt lat="43.913651090206976" lon="4.537965389353783"><ele>98.2</ele><time>2026-04-11T14:42:25Z</time></trkpt><trkpt lat="43.913735204829514" lon="4.53794312541295"><ele>98.0</ele><time>2026-04-11T14:42:27Z</time></trkpt><trkpt lat="43.91373287571867" lon="4.537849538557936"><ele>97.71428571428571</ele><time>2026-04-11T14:42:30.999Z</time></trkpt><trkpt lat="43.913724685757494" lon="4.537745650504372"><ele>97.42857142857143</ele><time>2026-04-11T14:42:32.999Z</time></trkpt><trkpt lat="43.913711538016784" lon="4.537658639699567"><ele>97.14285714285714</ele><time>2026-04-11T14:42:34.999Z</time></trkpt><trkpt lat="43.91367867892987" lon="4.537567287910789"><ele>96.85714285714286</ele><time>2026-04-11T14:42:36.999Z</time></trkpt><trkpt lat="43.91368128363909" lon="4.537466830807245"><ele>96.57142857142857</ele><time>2026-04-11T14:42:39.999Z</time></trkpt><trkpt lat="43.91370125210424" lon="4.537363820660459"><ele>96.28571428571428</ele><time>2026-04-11T14:42:42.999Z</time></trkpt><trkpt lat="43.913764733486126" lon="4.537311681103608"><ele>96.0</ele><time>2026-04-11T14:42:45.999Z</time></trkpt><trkpt lat="43.913835700930754" lon="4.5371987653036285"><ele>96.0</ele><time>2026-04-11T14:42:47.999Z</time></trkpt><trkpt lat="43.91394087329522" lon="4.537137944313539"><ele>96.0</ele><time>2026-04-11T14:42:49.999Z</time></trkpt><trkpt lat="43.91400460393978" lon="4.537106194635639"><ele>96.0</ele><time>2026-04-11T14:42:50.999Z</time></trkpt><trkpt lat="43.914077303282866" lon="4.537064105905772"><ele>96.0</ele><time>2026-04-11T14:42:51.999Z</time></trkpt><trkpt lat="43.914156250181996" lon="4.537043573357896"><ele>96.0</ele><time>2026-04-11T14:42:52.999Z</time></trkpt><trkpt lat="43.91423296417297" lon="4.537023959964584"><ele>96.0</ele><time>2026-04-11T14:42:53.999Z</time></trkpt><trkpt lat="43.914313231406155" lon="4.53701641415157"><ele>95.5</ele><time>2026-04-11T14:42:54.999Z</time></trkpt><trkpt lat="43.91438685686116" lon="4.537006119192363"><ele>95.0</ele><time>2026-04-11T14:42:55.999Z</time></trkpt><trkpt lat="43.91445286355523" lon="4.536967375619551"><ele>94.5</ele><time>2026-04-11T14:42:56.999Z</time></trkpt><trkpt lat="43.91455117221017" lon="4.536893643703616"><ele>94.0</ele><time>2026-04-11T14:42:58.999Z</time></trkpt><trkpt lat="43.91462163440762" lon="4.53694237660761"><ele>93.5</ele><time>2026-04-11T14:43:00.999Z</time></trkpt><trkpt lat="43.91466973268273" lon="4.537014831216208"><ele>93.0</ele><time>2026-04-11T14:43:02.999Z</time></trkpt><trkpt lat="43.91475981079597" lon="4.537065293771559"><ele>93.0</ele><time>2026-04-11T14:43:04.999Z</time></trkpt><trkpt lat="43.91483133873668" lon="4.537056527603338"><ele>93.0</ele><time>2026-04-11T14:43:05.999Z</time></trkpt><trkpt lat="43.914964598640026" lon="4.537041486496049"><ele>93.0</ele><time>2026-04-11T14:43:07.999Z</time></trkpt><trkpt lat="43.91503947472016" lon="4.537048758765526"><ele>93.0</ele><time>2026-04-11T14:43:08.999Z</time></trkpt><trkpt lat="43.915141890511464" lon="4.537096024234334"><ele>93.0</ele><time>2026-04-11T14:43:10.999Z</time></trkpt><trkpt lat="43.91521084985428" lon="4.537156150398932"><ele>93.0</ele><time>2026-04-11T14:43:12.999Z</time></trkpt><trkpt lat="43.91531816187802" lon="4.5371382845672334"><ele>93.0</ele><time>2026-04-11T14:43:14.999Z</time></trkpt><trkpt lat="43.915387461410276" lon="4.5371328162824724"><ele>93.0</ele><time>2026-04-11T14:43:15.999Z</time></trkpt><trkpt lat="43.91549827969105" lon="4.537145346810486"><ele>93.0</ele><time>2026-04-11T14:43:17.999Z</time></trkpt><trkpt lat="43.91561871247172" lon="4.53718308987567"><ele>93.0</ele><time>2026-04-11T14:43:19.999Z</time></trkpt><trkpt lat="43.915681006452886" lon="4.537206634759656"><ele>93.0</ele><time>2026-04-11T14:43:20.999Z</time></trkpt><trkpt lat="43.91579189452997" lon="4.53719007919793"><ele>93.0</ele><time>2026-04-11T14:43:22.999Z</time></trkpt><trkpt lat="43.91589908623713" lon="4.537175071319317"><ele>93.0</ele><time>2026-04-11T14:43:25Z</time></trkpt><trkpt lat="43.91599723479582" lon="4.537123565047525"><ele>93.0</ele><time>2026-04-11T14:43:27Z</time></trkpt><trkpt lat="43.91605208112466" lon="4.537074199840823"><ele>93.0</ele><time>2026-04-11T14:43:28Z</time></trkpt><trkpt lat="43.91611355800748" lon="4.537044699781111"><ele>92.16666666666667</ele><time>2026-04-11T14:43:29Z</time></trkpt><trkpt lat="43.916188659626755" lon="4.537030996577777"><ele>91.33333333333333</ele><time>2026-04-11T14:43:30Z</time></trkpt><trkpt lat="43.91627280184455" lon="4.537014964919682"><ele>90.5</ele><time>2026-04-11T14:43:31Z</time></trkpt><trkpt lat="43.9163630303815" lon="4.537016842333419"><ele>89.66666666666666</ele><time>2026-04-11T14:43:32Z</time></trkpt><trkpt lat="43.916455033396375" lon="4.537018917553417"><ele>88.83333333333333</ele><time>2026-04-11T14:43:33Z</time></trkpt><trkpt lat="43.916543836183536" lon="4.536998217372337"><ele>88.0</ele><time>2026-04-11T14:43:34Z</time></trkpt><trkpt lat="43.916629177193215" lon="4.536974278151628"><ele>88.0</ele><time>2026-04-11T14:43:35Z</time></trkpt><trkpt lat="43.91671425009593" lon="4.536972121117829"><ele>88.0</ele><time>2026-04-11T14:43:36Z</time></trkpt><trkpt lat="43.91677675180657" lon="4.536987804790093"><ele>88.0</ele><time>2026-04-11T14:43:37Z</time></trkpt><trkpt lat="43.916843348958096" lon="4.53695648899471"><ele>88.0</ele><time>2026-04-11T14:44:18Z</time></trkpt><trkpt lat="43.91691752715422" lon="4.536943375415668"><ele>88.0</ele><time>2026-04-11T14:44:21Z</time></trkpt><trkpt lat="43.91700346077907" lon="4.536928244539801"><ele>88.0</ele><time>2026-04-11T14:44:24Z</time></trkpt><trkpt lat="43.91711933248548" lon="4.536897731848866"><ele>87.80000000000001</ele><time>2026-04-11T14:44:26Z</time></trkpt><trkpt lat="43.91719669629629" lon="4.5368949410379384"><ele>87.6</ele><time>2026-04-11T14:44:27Z</time></trkpt><trkpt lat="43.91726208264111" lon="4.536885343669199"><ele>87.4</ele><time>2026-04-11T14:44:28Z</time></trkpt><trkpt lat="43.917388080275416" lon="4.536867720473403"><ele>87.19999999999999</ele><time>2026-04-11T14:44:30Z</time></trkpt><trkpt lat="43.9175116679655" lon="4.536838449974906"><ele>87.0</ele><time>2026-04-11T14:44:31.999Z</time></trkpt><trkpt lat="43.91757554714357" lon="4.53683093422387"><ele>86.66666666666667</ele><time>2026-04-11T14:44:32.999Z</time></trkpt><trkpt lat="43.91764047942134" lon="4.536863818757652"><ele>86.33333333333333</ele><time>2026-04-11T14:44:33.999Z</time></trkpt><trkpt lat="43.91775135873882" lon="4.536893877890355"><ele>86.0</ele><time>2026-04-11T14:44:35.999Z</time></trkpt><trkpt lat="43.9178235328193" lon="4.536900609064151"><ele>85.66666666666666</ele><time>2026-04-11T14:44:36.999Z</time></trkpt><trkpt lat="43.91789612113246" lon="4.536922733558874"><ele>85.33333333333333</ele><time>2026-04-11T14:44:37.999Z</time></trkpt><trkpt lat="43.917985263037075" lon="4.536925229712523"><ele>85.0</ele><time>2026-04-11T14:44:39.999Z</time></trkpt><trkpt lat="43.918078934294044" lon="4.536866804668397"><ele>85.0</ele><time>2026-04-11T14:44:41.999Z</time></trkpt><trkpt lat="43.91815238147247" lon="4.536881271824992"><ele>85.0</ele><time>2026-04-11T14:44:42.999Z</time></trkpt><trkpt lat="43.91822538152838" lon="4.536879509358922"><ele>85.0</ele><time>2026-04-11T14:44:43.999Z</time></trkpt><trkpt lat="43.918304297633036" lon="4.536849910587331"><ele>85.0</ele><time>2026-04-11T14:44:44.999Z</time></trkpt><trkpt lat="43.9183835477666" lon="4.536816218161578"><ele>85.0</ele><time>2026-04-11T14:44:45.999Z</time></trkpt><trkpt lat="43.918460217668546" lon="4.536800998822775"><ele>85.0</ele><time>2026-04-11T14:44:46.999Z</time></trkpt><trkpt lat="43.91854789146654" lon="4.536771637976509"><ele>84.66666666666666</ele><time>2026-04-11T14:44:47.999Z</time></trkpt><trkpt lat="43.91863396555678" lon="4.536746470438081"><ele>84.33333333333333</ele><time>2026-04-11T14:44:48.999Z</time></trkpt><trkpt lat="43.918719067232445" lon="4.536729203556239"><ele>84.0</ele><time>2026-04-11T14:44:49.999Z</time></trkpt><trkpt lat="43.91879700538902" lon="4.536730117555933"><ele>83.66666666666667</ele><time>2026-04-11T14:44:50.999Z</time></trkpt><trkpt lat="43.918907300723426" lon="4.536799022928701"><ele>83.33333333333334</ele><time>2026-04-11T14:44:52.999Z</time></trkpt><trkpt lat="43.918940409900415" lon="4.536885047555392"><ele>83.0</ele><time>2026-04-11T14:44:54.999Z</time></trkpt><trkpt lat="43.919055129111946" lon="4.536844325227566"><ele>83.0</ele><time>2026-04-11T14:45:07.999Z</time></trkpt><trkpt lat="43.91914671604529" lon="4.536782207848315"><ele>83.0</ele><time>2026-04-11T14:45:09.999Z</time></trkpt><trkpt lat="43.91923563458812" lon="4.5367211987068"><ele>83.0</ele><time>2026-04-11T14:45:11.999Z</time></trkpt><trkpt lat="43.91935437078225" lon="4.536677434092017"><ele>83.0</ele><time>2026-04-11T14:45:13.999Z</time></trkpt><trkpt lat="43.919430764442524" lon="4.536709773530458"><ele>83.0</ele><time>2026-04-11T14:45:15.999Z</time></trkpt><trkpt lat="43.91942832845952" lon="4.536813307753873"><ele>82.33333333333334</ele><time>2026-04-11T14:45:18.999Z</time></trkpt><trkpt lat="43.91946679694461" lon="4.5369464368725225"><ele>81.66666666666667</ele><time>2026-04-11T14:45:20.999Z</time></trkpt><trkpt lat="43.91957297779718" lon="4.537002088786917"><ele>81.0</ele><time>2026-04-11T14:45:22.999Z</time></trkpt><trkpt lat="43.91963182216147" lon="4.536949245156721"><ele>80.33333333333333</ele><time>2026-04-11T14:45:24.999Z</time></trkpt><trkpt lat="43.9196475007778" lon="4.536859608780036"><ele>79.66666666666666</ele><time>2026-04-11T14:45:26.999Z</time></trkpt><trkpt lat="43.91961748203063" lon="4.536739178010681"><ele>79.0</ele><time>2026-04-11T14:45:28.999Z</time></trkpt><trkpt lat="43.919618727074344" lon="4.536621078125359"><ele>79.0</ele><time>2026-04-11T14:45:31Z</time></trkpt><trkpt lat="43.91963566776015" lon="4.5365166805494095"><ele>79.0</ele><time>2026-04-11T14:45:33Z</time></trkpt><trkpt lat="43.919683693015834" lon="4.536439202203928"><ele>79.0</ele><time>2026-04-11T14:45:35Z</time></trkpt><trkpt lat="43.919747743193334" lon="4.536378347559328"><ele>79.0</ele><time>2026-04-11T14:45:38Z</time></trkpt><trkpt lat="43.91979010752555" lon="4.5362986980810005"><ele>79.0</ele><time>2026-04-11T14:45:40Z</time></trkpt><trkpt lat="43.91982676902395" lon="4.536182241129044"><ele>79.0</ele><time>2026-04-11T14:45:42Z</time></trkpt><trkpt lat="43.91983641201944" lon="4.536095372361726"><ele>78.33333333333333</ele><time>2026-04-11T14:45:43Z</time></trkpt><trkpt lat="43.919848228245385" lon="4.535917298020799"><ele>77.66666666666666</ele><time>2026-04-11T14:45:45Z</time></trkpt><trkpt lat="43.91983214173243" lon="4.535830804157085"><ele>77.0</ele><time>2026-04-11T14:45:46Z</time></trkpt><trkpt lat="43.91981117650755" lon="4.535747455114037"><ele>76.33333333333333</ele><time>2026-04-11T14:45:47Z</time></trkpt><trkpt lat="43.91979597605452" lon="4.535596110784785"><ele>75.66666666666667</ele><time>2026-04-11T14:45:49Z</time></trkpt><trkpt lat="43.91980201679608" lon="4.535487983151576"><ele>75.0</ele><time>2026-04-11T14:45:51Z</time></trkpt><trkpt lat="43.919786029252414" lon="4.535399007196919"><ele>74.66666666666667</ele><time>2026-04-11T14:45:53Z</time></trkpt><trkpt lat="43.91975140404384" lon="4.535258675806857"><ele>74.33333333333333</ele><time>2026-04-11T14:45:55Z</time></trkpt><trkpt lat="43.919737682386746" lon="4.535145166669588"><ele>74.0</ele><time>2026-04-11T14:45:57Z</time></trkpt><trkpt lat="43.919745478715214" lon="4.535046527246288"><ele>73.66666666666666</ele><time>2026-04-11T14:46:00Z</time></trkpt><trkpt lat="43.919749942064904" lon="4.534941806888425"><ele>73.33333333333333</ele><time>2026-04-11T14:46:03Z</time></trkpt><trkpt lat="43.91979698832005" lon="4.534837044280377"><ele>73.0</ele><time>2026-04-11T14:46:06Z</time></trkpt><trkpt lat="43.91982043191809" lon="4.534743770947515"><ele>73.0</ele><time>2026-04-11T14:46:08Z</time></trkpt><trkpt lat="43.91986699189957" lon="4.534635476629345"><ele>73.0</ele><time>2026-04-11T14:46:11Z</time></trkpt><trkpt lat="43.919916137863936" lon="4.534569575505472"><ele>73.0</ele><time>2026-04-11T14:46:44.999Z</time></trkpt><trkpt lat="43.91998534760204" lon="4.534492631850972"><ele>73.0</ele><time>2026-04-11T14:46:47.999Z</time></trkpt><trkpt lat="43.920043354855736" lon="4.534435262353673"><ele>73.0</ele><time>2026-04-11T14:46:49.999Z</time></trkpt><trkpt lat="43.92009156474635" lon="4.534363507202398"><ele>73.0</ele><time>2026-04-11T14:46:51.999Z</time></trkpt><trkpt lat="43.92013630713862" lon="4.534299943194633"><ele>72.4</ele><time>2026-04-11T14:47:03.999Z</time></trkpt><trkpt lat="43.920145344523945" lon="4.534190741652336"><ele>71.8</ele><time>2026-04-11T14:47:06.999Z</time></trkpt><trkpt lat="43.920048009328134" lon="4.53404180995915"><ele>71.2</ele><time>2026-04-11T14:47:08.999Z</time></trkpt><trkpt lat="43.919972006262114" lon="4.533969549632083"><ele>70.6</ele><time>2026-04-11T14:47:09.999Z</time></trkpt><trkpt lat="43.91988750967801" lon="4.533894579995556"><ele>70.0</ele><time>2026-04-11T14:47:10.999Z</time></trkpt><trkpt lat="43.91979883514571" lon="4.533812687430237"><ele>70.0</ele><time>2026-04-11T14:47:11.999Z</time></trkpt><trkpt lat="43.91972407648898" lon="4.533735279593971"><ele>70.0</ele><time>2026-04-11T14:47:12.999Z</time></trkpt><trkpt lat="43.91966280940274" lon="4.533669649206359"><ele>70.0</ele><time>2026-04-11T14:47:13.999Z</time></trkpt><trkpt lat="43.91960092906691" lon="4.533581424800433"><ele>70.0</ele><time>2026-04-11T14:47:15.999Z</time></trkpt><trkpt lat="43.91960596163153" lon="4.533447306779442"><ele>70.0</ele><time>2026-04-11T14:47:17.999Z</time></trkpt><trkpt lat="43.9195963670608" lon="4.5333481857509135"><ele>70.0</ele><time>2026-04-11T14:47:18.999Z</time></trkpt><trkpt lat="43.91956838391405" lon="4.5332614825393565"><ele>69.5</ele><time>2026-04-11T14:47:19.999Z</time></trkpt><trkpt lat="43.91953635780434" lon="4.533180054920041"><ele>69.0</ele><time>2026-04-11T14:47:20.999Z</time></trkpt><trkpt lat="43.91950938093997" lon="4.533098779643634"><ele>68.5</ele><time>2026-04-11T14:47:21.999Z</time></trkpt><trkpt lat="43.91946960262944" lon="4.533012379736378"><ele>68.0</ele><time>2026-04-11T14:47:22.999Z</time></trkpt><trkpt lat="43.919429474386625" lon="4.532925231359794"><ele>67.5</ele><time>2026-04-11T14:47:23.999Z</time></trkpt><trkpt lat="43.91938424860419" lon="4.532779199582537"><ele>67.0</ele><time>2026-04-11T14:47:25.999Z</time></trkpt><trkpt lat="43.91934714327632" lon="4.532697588388098"><ele>67.0</ele><time>2026-04-11T14:47:26.999Z</time></trkpt><trkpt lat="43.919302128633426" lon="4.53261825324084"><ele>67.0</ele><time>2026-04-11T14:47:27.999Z</time></trkpt><trkpt lat="43.91925792590593" lon="4.5325461112909675"><ele>67.0</ele><time>2026-04-11T14:47:28.999Z</time></trkpt><trkpt lat="43.91920889680187" lon="4.532466663222908"><ele>67.0</ele><time>2026-04-11T14:47:29.999Z</time></trkpt><trkpt lat="43.91915172207951" lon="4.532384791446786"><ele>67.0</ele><time>2026-04-11T14:47:30.999Z</time></trkpt><trkpt lat="43.9190809749661" lon="4.532305419094325"><ele>67.0</ele><time>2026-04-11T14:47:31.999Z</time></trkpt><trkpt lat="43.91901264890705" lon="4.532217795541146"><ele>67.5</ele><time>2026-04-11T14:47:32.999Z</time></trkpt><trkpt lat="43.918941912413196" lon="4.5321250461727836"><ele>68.0</ele><time>2026-04-11T14:47:33.999Z</time></trkpt><trkpt lat="43.918866338254205" lon="4.532055782407257"><ele>68.5</ele><time>2026-04-11T14:47:34.999Z</time></trkpt><trkpt lat="43.918795498840296" lon="4.531998358728059"><ele>69.0</ele><time>2026-04-11T14:47:36Z</time></trkpt><trkpt lat="43.91872943799523" lon="4.5319459151602235"><ele>69.5</ele><time>2026-04-11T14:47:37Z</time></trkpt><trkpt lat="43.91865823876212" lon="4.531883024679346"><ele>70.0</ele><time>2026-04-11T14:47:38Z</time></trkpt><trkpt lat="43.918576274170285" lon="4.53182308476636"><ele>70.0</ele><time>2026-04-11T14:47:39Z</time></trkpt><trkpt lat="43.9184970563372" lon="4.531772444008047"><ele>70.0</ele><time>2026-04-11T14:47:40Z</time></trkpt><trkpt lat="43.918420889991665" lon="4.531723667661058"><ele>70.0</ele><time>2026-04-11T14:47:41Z</time></trkpt><trkpt lat="43.918367596293436" lon="4.531662203333354"><ele>70.0</ele><time>2026-04-11T14:47:42Z</time></trkpt><trkpt lat="43.91835345560888" lon="4.53149074897104"><ele>70.0</ele><time>2026-04-11T14:47:44Z</time></trkpt><trkpt lat="43.9183735761909" lon="4.531396384896951"><ele>70.0</ele><time>2026-04-11T14:47:45Z</time></trkpt><trkpt lat="43.918399919467156" lon="4.531295213232506"><ele>70.2</ele><time>2026-04-11T14:47:46Z</time></trkpt><trkpt lat="43.918414400735735" lon="4.531188743658497"><ele>70.4</ele><time>2026-04-11T14:47:47Z</time></trkpt><trkpt lat="43.918411334367555" lon="4.531080482032615"><ele>70.6</ele><time>2026-04-11T14:47:48Z</time></trkpt><trkpt lat="43.918371784647945" lon="4.530971459541191"><ele>70.8</ele><time>2026-04-11T14:47:50Z</time></trkpt><trkpt lat="43.91830497705729" lon="4.530907063763235"><ele>71.0</ele><time>2026-04-11T14:47:53Z</time></trkpt><trkpt lat="43.91821875193441" lon="4.530772943446968"><ele>71.16666666666667</ele><time>2026-04-11T14:47:55Z</time></trkpt><trkpt lat="43.9181655414597" lon="4.530699545785438"><ele>71.33333333333334</ele><time>2026-04-11T14:47:56Z</time></trkpt><trkpt lat="43.91812374558374" lon="4.530625596550674"><ele>71.5</ele><time>2026-04-11T14:47:57Z</time></trkpt><trkpt lat="43.918095993415534" lon="4.530531847798754"><ele>71.66666666666667</ele><time>2026-04-11T14:47:58Z</time></trkpt><trkpt lat="43.91805183983114" lon="4.530375902078131"><ele>71.83333333333333</ele><time>2026-04-11T14:48:00Z</time></trkpt><trkpt lat="43.91804194018634" lon="4.530281397172287"><ele>72.0</ele><time>2026-04-11T14:48:01Z</time></trkpt><trkpt lat="43.91802698716722" lon="4.530171825627185"><ele>72.16666666666667</ele><time>2026-04-11T14:48:02Z</time></trkpt><trkpt lat="43.9180222332511" lon="4.530059610931675"><ele>72.33333333333333</ele><time>2026-04-11T14:48:03Z</time></trkpt><trkpt lat="43.918023683269034" lon="4.529937062526225"><ele>72.5</ele><time>2026-04-11T14:48:04Z</time></trkpt><trkpt lat="43.91801373492818" lon="4.529823799678333"><ele>72.66666666666666</ele><time>2026-04-11T14:48:05Z</time></trkpt><trkpt lat="43.9179999404188" lon="4.52971021827413"><ele>72.83333333333333</ele><time>2026-04-11T14:48:06Z</time></trkpt><trkpt lat="43.91797739497672" lon="4.529619501273654"><ele>73.0</ele><time>2026-04-11T14:48:07Z</time></trkpt><trkpt lat="43.91791439004919" lon="4.529494302611083"><ele>73.6</ele><time>2026-04-11T14:48:09Z</time></trkpt><trkpt lat="43.91785214957933" lon="4.529377008383997"><ele>74.19999999999999</ele><time>2026-04-11T14:48:11Z</time></trkpt><trkpt lat="43.91775050696332" lon="4.52928283035882"><ele>74.8</ele><time>2026-04-11T14:48:13Z</time></trkpt><trkpt lat="43.917718949845394" lon="4.5292061077630885"><ele>75.39999999999999</ele><time>2026-04-11T14:48:14Z</time></trkpt><trkpt lat="43.91764849499667" lon="4.529127250649229"><ele>76.0</ele><time>2026-04-11T14:48:16Z</time></trkpt><trkpt lat="43.9175909761258" lon="4.529053396469597"><ele>76.33333333333333</ele><time>2026-04-11T14:48:17Z</time></trkpt><trkpt lat="43.91754796964679" lon="4.528982362745663"><ele>76.66666666666666</ele><time>2026-04-11T14:48:18Z</time></trkpt><trkpt lat="43.91749361217388" lon="4.528901172454951"><ele>77.0</ele><time>2026-04-11T14:48:19Z</time></trkpt><trkpt lat="43.91745769532049" lon="4.528817828720361"><ele>77.33333333333333</ele><time>2026-04-11T14:48:20Z</time></trkpt><trkpt lat="43.91737858211877" lon="4.528723835471882"><ele>77.66666666666667</ele><time>2026-04-11T14:48:22Z</time></trkpt><trkpt lat="43.91733544851969" lon="4.5285870893944695"><ele>78.0</ele><time>2026-04-11T14:48:24Z</time></trkpt><trkpt lat="43.91730533740384" lon="4.528473960104143"><ele>78.33333333333333</ele><time>2026-04-11T14:48:26Z</time></trkpt><trkpt lat="43.91721420333767" lon="4.528449099002089"><ele>78.66666666666667</ele><time>2026-04-11T14:48:28Z</time></trkpt><trkpt lat="43.917154431770875" lon="4.528393208786548"><ele>79.0</ele><time>2026-04-11T14:48:29Z</time></trkpt><trkpt lat="43.91709158785426" lon="4.528330646206655"><ele>79.33333333333334</ele><time>2026-04-11T14:48:30Z</time></trkpt><trkpt lat="43.917021562652934" lon="4.528309695382351"><ele>79.66666666666667</ele><time>2026-04-11T14:48:31Z</time></trkpt><trkpt lat="43.916952842383886" lon="4.52824080319722"><ele>80.0</ele><time>2026-04-11T14:48:33Z</time></trkpt><trkpt lat="43.91683803663452" lon="4.5282536134289515"><ele>80.0</ele><time>2026-04-11T14:48:36Z</time></trkpt><trkpt lat="43.91679838532188" lon="4.528177236551301"><ele>80.0</ele><time>2026-04-11T14:48:37Z</time></trkpt><trkpt lat="43.916756926908114" lon="4.5280627965657"><ele>80.0</ele><time>2026-04-11T14:48:39Z</time></trkpt><trkpt lat="43.91671762486225" lon="4.527952517769953"><ele>80.0</ele><time>2026-04-11T14:48:42Z</time></trkpt><trkpt lat="43.91671039567817" lon="4.527781390308003"><ele>80.0</ele><time>2026-04-11T14:48:44Z</time></trkpt><trkpt lat="43.91667181474703" lon="4.5276906735629225"><ele>80.0</ele><time>2026-04-11T14:48:46Z</time></trkpt><trkpt lat="43.91664509965737" lon="4.527593509534087"><ele>80.6</ele><time>2026-04-11T14:48:47Z</time></trkpt><trkpt lat="43.91661110377214" lon="4.527456261386421"><ele>81.2</ele><time>2026-04-11T14:48:49Z</time></trkpt><trkpt lat="43.91654993758803" lon="4.527382990543317"><ele>81.80000000000001</ele><time>2026-04-11T14:48:50Z</time></trkpt><trkpt lat="43.9164728093559" lon="4.527285485083093"><ele>82.4</ele><time>2026-04-11T14:48:52Z</time></trkpt><trkpt lat="43.916403388675825" lon="4.527224984724505"><ele>83.0</ele><time>2026-04-11T14:48:53.999Z</time></trkpt><trkpt lat="43.916336156052424" lon="4.527064049697885"><ele>83.4</ele><time>2026-04-11T14:48:55.999Z</time></trkpt><trkpt lat="43.916272634141656" lon="4.526964740427063"><ele>83.80000000000001</ele><time>2026-04-11T14:48:57.999Z</time></trkpt><trkpt lat="43.91622141973245" lon="4.52679838979338"><ele>84.2</ele><time>2026-04-11T14:48:59.999Z</time></trkpt><trkpt lat="43.916232266934685" lon="4.526704802657199"><ele>84.6</ele><time>2026-04-11T14:49:00.999Z</time></trkpt><trkpt lat="43.91625967242966" lon="4.526535936892723"><ele>85.0</ele><time>2026-04-11T14:49:02.999Z</time></trkpt><trkpt lat="43.916301256756604" lon="4.526445207599379"><ele>85.0</ele><time>2026-04-11T14:49:04.999Z</time></trkpt><trkpt lat="43.91636818986106" lon="4.52638238392214"><ele>85.0</ele><time>2026-04-11T14:49:07.999Z</time></trkpt><trkpt lat="43.916387777491806" lon="4.526207925167243"><ele>85.0</ele><time>2026-04-11T14:49:09.999Z</time></trkpt><trkpt lat="43.91644712756795" lon="4.526097680888255"><ele>85.0</ele><time>2026-04-11T14:49:11.999Z</time></trkpt><trkpt lat="43.91656798748321" lon="4.52602392707759"><ele>85.0</ele><time>2026-04-11T14:49:13.999Z</time></trkpt><trkpt lat="43.91663930536428" lon="4.526044894935669"><ele>85.33333333333333</ele><time>2026-04-11T14:49:14.999Z</time></trkpt><trkpt lat="43.916721872949516" lon="4.5260529178730575"><ele>85.66666666666666</ele><time>2026-04-11T14:49:15.999Z</time></trkpt><trkpt lat="43.91679889706601" lon="4.526055639847874"><ele>86.0</ele><time>2026-04-11T14:49:16.999Z</time></trkpt><trkpt lat="43.9169093546453" lon="4.526040340226875"><ele>86.33333333333333</ele><time>2026-04-11T14:49:18.999Z</time></trkpt><trkpt lat="43.9168775963215" lon="4.525926758108211"><ele>86.66666666666667</ele><time>2026-04-11T14:49:22.999Z</time></trkpt><trkpt lat="43.916961714533365" lon="4.525938075379574"><ele>87.0</ele><time>2026-04-11T14:49:51Z</time></trkpt><trkpt lat="43.917025045388364" lon="4.526003649812743"><ele>87.5</ele><time>2026-04-11T14:49:54Z</time></trkpt><trkpt lat="43.917105695007926" lon="4.526042354973444"><ele>88.0</ele><time>2026-04-11T14:49:56Z</time></trkpt><trkpt lat="43.917176998408344" lon="4.526108773209363"><ele>88.5</ele><time>2026-04-11T14:49:58Z</time></trkpt><trkpt lat="43.91725599808873" lon="4.526125338666849"><ele>89.0</ele><time>2026-04-11T14:50:00Z</time></trkpt><trkpt lat="43.91727071765313" lon="4.52625821697777"><ele>89.5</ele><time>2026-04-11T14:50:02Z</time></trkpt><trkpt lat="43.917265645031165" lon="4.526368980922101"><ele>90.0</ele><time>2026-04-11T14:50:03Z</time></trkpt><trkpt lat="43.91729502201633" lon="4.52649398983216"><ele>90.0</ele><time>2026-04-11T14:50:04Z</time></trkpt><trkpt lat="43.917338563858166" lon="4.526624312295465"><ele>90.0</ele><time>2026-04-11T14:50:05Z</time></trkpt><trkpt lat="43.917375458034066" lon="4.526740442020201"><ele>90.0</ele><time>2026-04-11T14:50:06Z</time></trkpt><trkpt lat="43.917406445351915" lon="4.526849059124109"><ele>90.0</ele><time>2026-04-11T14:50:07Z</time></trkpt><trkpt lat="43.91743452162126" lon="4.526948531361199"><ele>90.0</ele><time>2026-04-11T14:50:08Z</time></trkpt><trkpt lat="43.91748763453272" lon="4.527012931354151"><ele>90.0</ele><time>2026-04-11T14:50:09Z</time></trkpt><trkpt lat="43.91754625748777" lon="4.527083209341051"><ele>91.2</ele><time>2026-04-11T14:50:11Z</time></trkpt><trkpt lat="43.917637017547065" lon="4.527015126886461"><ele>92.4</ele><time>2026-04-11T14:50:13Z</time></trkpt><trkpt lat="43.917755237169125" lon="4.526983209040068"><ele>93.6</ele><time>2026-04-11T14:50:15Z</time></trkpt><trkpt lat="43.91782046120628" lon="4.527001886595995"><ele>94.8</ele><time>2026-04-11T14:50:16Z</time></trkpt><trkpt lat="43.91788430748969" lon="4.527029189174884"><ele>96.0</ele><time>2026-04-11T14:50:17Z</time></trkpt><trkpt lat="43.91799764125363" lon="4.527025783002225"><ele>96.0</ele><time>2026-04-11T14:50:19Z</time></trkpt><trkpt lat="43.918111580723426" lon="4.526939873985079"><ele>96.0</ele><time>2026-04-11T14:50:21Z</time></trkpt><trkpt lat="43.9182049254639" lon="4.526936118241993"><ele>96.0</ele><time>2026-04-11T14:50:23Z</time></trkpt><trkpt lat="43.91832957512893" lon="4.527002532048489"><ele>96.0</ele><time>2026-04-11T14:50:25Z</time></trkpt><trkpt lat="43.918404742885215" lon="4.527020369764258"><ele>96.0</ele><time>2026-04-11T14:50:26Z</time></trkpt><trkpt lat="43.91848189296074" lon="4.527051727828168"><ele>95.83333333333333</ele><time>2026-04-11T14:50:27Z</time></trkpt><trkpt lat="43.91854264726309" lon="4.5270877501741635"><ele>95.66666666666667</ele><time>2026-04-11T14:50:28Z</time></trkpt><trkpt lat="43.91861441587739" lon="4.52709793566962"><ele>95.5</ele><time>2026-04-11T14:50:29Z</time></trkpt><trkpt lat="43.91870177939535" lon="4.527100624889149"><ele>95.33333333333334</ele><time>2026-04-11T14:50:30Z</time></trkpt><trkpt lat="43.91880337873228" lon="4.527106833175615"><ele>95.16666666666667</ele><time>2026-04-11T14:50:31Z</time></trkpt><trkpt lat="43.91891091909828" lon="4.527114453899112"><ele>95.0</ele><time>2026-04-11T14:50:32Z</time></trkpt><trkpt lat="43.91902430307268" lon="4.527117083975025"><ele>95.0</ele><time>2026-04-11T14:50:33Z</time></trkpt><trkpt lat="43.91913131827063" lon="4.527129176678642"><ele>95.0</ele><time>2026-04-11T14:50:34Z</time></trkpt><trkpt lat="43.91923121796344" lon="4.527144949538553"><ele>95.0</ele><time>2026-04-11T14:50:35Z</time></trkpt><trkpt lat="43.919330156330616" lon="4.527128008624736"><ele>95.0</ele><time>2026-04-11T14:50:36Z</time></trkpt><trkpt lat="43.9194171084457" lon="4.527101965619763"><ele>95.0</ele><time>2026-04-11T14:50:37Z</time></trkpt><trkpt lat="43.919478474707674" lon="4.52707181436096"><ele>95.66666666666667</ele><time>2026-04-11T14:50:38Z</time></trkpt><trkpt lat="43.919546645459285" lon="4.526964074976618"><ele>96.33333333333334</ele><time>2026-04-11T14:50:40Z</time></trkpt><trkpt lat="43.91949558581057" lon="4.527019727812421"><ele>97.0</ele><time>2026-04-11T14:51:31.999Z</time></trkpt><trkpt lat="43.919487510316586" lon="4.527121561578872"><ele>97.66666666666667</ele><time>2026-04-11T14:51:34.999Z</time></trkpt><trkpt lat="43.91950969337833" lon="4.52721762967974"><ele>98.33333333333333</ele><time>2026-04-11T14:51:37.999Z</time></trkpt><trkpt lat="43.91945902631469" lon="4.527300017148278"><ele>99.0</ele><time>2026-04-11T14:51:40.999Z</time></trkpt><trkpt lat="43.91948981469416" lon="4.527423429167176"><ele>99.0</ele><time>2026-04-11T14:51:44.999Z</time></trkpt><trkpt lat="43.91957334317315" lon="4.527466131897146"><ele>99.0</ele><time>2026-04-11T14:51:46.999Z</time></trkpt><trkpt lat="43.91964604907866" lon="4.527521930492461"><ele>99.0</ele><time>2026-04-11T14:51:49Z</time></trkpt><trkpt lat="43.91971228544312" lon="4.527593694187351"><ele>99.0</ele><time>2026-04-11T14:51:51Z</time></trkpt><trkpt lat="43.919790884081735" lon="4.52764516572175"><ele>99.0</ele><time>2026-04-11T14:51:53Z</time></trkpt><trkpt lat="43.91987936958758" lon="4.527581383238994"><ele>99.0</ele><time>2026-04-11T14:52:55Z</time></trkpt><trkpt lat="43.919908702213576" lon="4.527473669775703"><ele>99.0</ele><time>2026-04-11T14:53:05.999Z</time></trkpt><trkpt lat="43.91995590489169" lon="4.527378951102948"><ele>99.0</ele><time>2026-04-11T14:53:09.999Z</time></trkpt><trkpt lat="43.92002563909422" lon="4.527308807800768"><ele>99.0</ele><time>2026-04-11T14:53:12.999Z</time></trkpt><trkpt lat="43.92009181061253" lon="4.527270493545224"><ele>99.0</ele><time>2026-04-11T14:53:14.999Z</time></trkpt><trkpt lat="43.92015821593906" lon="4.527237268658904"><ele>99.0</ele><time>2026-04-11T14:53:25.999Z</time></trkpt><trkpt lat="43.920230635132015" lon="4.527159579830525"><ele>99.0</ele><time>2026-04-11T14:53:28.999Z</time></trkpt><trkpt lat="43.920286643103736" lon="4.527106662478018"><ele>99.16666666666667</ele><time>2026-04-11T14:53:32.999Z</time></trkpt><trkpt lat="43.920348282191036" lon="4.527045935321476"><ele>99.33333333333334</ele><time>2026-04-11T14:53:41.999Z</time></trkpt><trkpt lat="43.920405558474634" lon="4.527000687715311"><ele>99.5</ele><time>2026-04-11T14:53:44.999Z</time></trkpt><trkpt lat="43.92048869599208" lon="4.526930826005359"><ele>99.66666666666667</ele><time>2026-04-11T14:53:46.999Z</time></trkpt><trkpt lat="43.92054897680426" lon="4.5268493824666045"><ele>99.83333333333334</ele><time>2026-04-11T14:53:48.999Z</time></trkpt><trkpt lat="43.92060492167659" lon="4.526808374114877"><ele>100.0</ele><time>2026-04-11T14:53:50.999Z</time></trkpt><trkpt lat="43.92065237437072" lon="4.526742775437187"><ele>100.00000000000001</ele><time>2026-04-11T14:53:52.999Z</time></trkpt><trkpt lat="43.92060785116424" lon="4.526638374941082"><ele>100.0</ele><time>2026-04-11T14:53:56Z</time></trkpt><trkpt lat="43.920533476750926" lon="4.526515598387937"><ele>100.0</ele><time>2026-04-11T14:53:58Z</time></trkpt><trkpt lat="43.92049341810684" lon="4.526427161609681"><ele>100.0</ele><time>2026-04-11T14:54:00Z</time></trkpt><trkpt lat="43.92051696799055" lon="4.526306969038753"><ele>100.00000000000001</ele><time>2026-04-11T14:54:03Z</time></trkpt><trkpt lat="43.92049898947777" lon="4.526214057816991"><ele>100.0</ele><time>2026-04-11T14:54:06Z</time></trkpt><trkpt lat="43.92047584647461" lon="4.526117060010245"><ele>100.8</ele><time>2026-04-11T14:54:08Z</time></trkpt><trkpt lat="43.92043805567215" lon="4.525993521991197"><ele>101.6</ele><time>2026-04-11T14:54:11Z</time></trkpt><trkpt lat="43.9203974612201" lon="4.525894995973953"><ele>102.4</ele><time>2026-04-11T14:54:13Z</time></trkpt><trkpt lat="43.9203737090426" lon="4.525756536617487"><ele>103.2</ele><time>2026-04-11T14:54:15Z</time></trkpt><trkpt lat="43.92033860040914" lon="4.525634202767881"><ele>104.0</ele><time>2026-04-11T14:54:17Z</time></trkpt><trkpt lat="43.92030957704838" lon="4.525504967513101"><ele>103.99999999999999</ele><time>2026-04-11T14:54:19Z</time></trkpt><trkpt lat="43.92033718984233" lon="4.525412583439781"><ele>104.0</ele><time>2026-04-11T14:54:28Z</time></trkpt><trkpt lat="43.92036735974801" lon="4.525304093358383"><ele>104.0</ele><time>2026-04-11T14:54:32Z</time></trkpt><trkpt lat="43.92038214198449" lon="4.525195626464393"><ele>104.0</ele><time>2026-04-11T14:54:34Z</time></trkpt><trkpt lat="43.92038738678643" lon="4.525070770281453"><ele>103.99999999999999</ele><time>2026-04-11T14:54:36Z</time></trkpt><trkpt lat="43.920440745529724" lon="4.524968972072547"><ele>104.0</ele><time>2026-04-11T14:54:38Z</time></trkpt><trkpt lat="43.9205149936117" lon="4.524851382968157"><ele>104.2</ele><time>2026-04-11T14:54:40Z</time></trkpt><trkpt lat="43.920555450098874" lon="4.524708161895374"><ele>104.4</ele><time>2026-04-11T14:54:42Z</time></trkpt><trkpt lat="43.920590685472334" lon="4.524590781468315"><ele>104.6</ele><time>2026-04-11T14:54:44Z</time></trkpt><trkpt lat="43.92060760445809" lon="4.5244486340573085"><ele>104.8</ele><time>2026-04-11T14:54:46Z</time></trkpt><trkpt lat="43.92063189773024" lon="4.524364358720046"><ele>105.0</ele><time>2026-04-11T14:54:50Z</time></trkpt><trkpt lat="43.920688277182315" lon="4.524225231540485"><ele>105.0</ele><time>2026-04-11T14:54:53Z</time></trkpt><trkpt lat="43.920753946559294" lon="4.524065055577252"><ele>105.0</ele><time>2026-04-11T14:54:55Z</time></trkpt><trkpt lat="43.9207901649294" lon="4.523980954870879"><ele>105.0</ele><time>2026-04-11T14:54:56Z</time></trkpt><trkpt lat="43.92082159797433" lon="4.523885194801915"><ele>105.0</ele><time>2026-04-11T14:54:57Z</time></trkpt><trkpt lat="43.92086172481107" lon="4.523780751241414"><ele>105.0</ele><time>2026-04-11T14:54:58Z</time></trkpt><trkpt lat="43.92092633970104" lon="4.523680979948254"><ele>104.16666666666667</ele><time>2026-04-11T14:54:59Z</time></trkpt><trkpt lat="43.92098611445151" lon="4.523581076049072"><ele>103.33333333333334</ele><time>2026-04-11T14:55:00Z</time></trkpt><trkpt lat="43.92103851701387" lon="4.523485012001232"><ele>102.5</ele><time>2026-04-11T14:55:01Z</time></trkpt><trkpt lat="43.92107850140211" lon="4.523416901975048"><ele>101.66666666666667</ele><time>2026-04-11T14:55:02Z</time></trkpt><trkpt lat="43.9211292487922" lon="4.5233447271197464"><ele>100.83333333333334</ele><time>2026-04-11T14:55:04Z</time></trkpt><trkpt lat="43.921188988159045" lon="4.523252950704732"><ele>100.0</ele><time>2026-04-11T14:55:19.999Z</time></trkpt><trkpt lat="43.92126552307128" lon="4.523135059099504"><ele>100.00000000000001</ele><time>2026-04-11T14:55:21.999Z</time></trkpt><trkpt lat="43.92130825570088" lon="4.5230638064782855"><ele>100.0</ele><time>2026-04-11T14:55:22.999Z</time></trkpt><trkpt lat="43.921350833995035" lon="4.522985873280837"><ele>100.0</ele><time>2026-04-11T14:55:23.999Z</time></trkpt><trkpt lat="43.92139186419898" lon="4.522898314657838"><ele>100.0</ele><time>2026-04-11T14:55:24.999Z</time></trkpt><trkpt lat="43.92144221838331" lon="4.522762658277031"><ele>100.00000000000001</ele><time>2026-04-11T14:55:26.999Z</time></trkpt><trkpt lat="43.92144839532539" lon="4.522648546982643"><ele>100.0</ele><time>2026-04-11T14:55:28.999Z</time></trkpt><trkpt lat="43.9214558068142" lon="4.522533201801087"><ele>100.16666666666667</ele><time>2026-04-11T14:55:30.999Z</time></trkpt><trkpt lat="43.92142125918882" lon="4.522405551620805"><ele>100.33333333333334</ele><time>2026-04-11T14:55:32.999Z</time></trkpt><trkpt lat="43.92139008081286" lon="4.522316336740527"><ele>100.5</ele><time>2026-04-11T14:55:33.999Z</time></trkpt><trkpt lat="43.921372283221096" lon="4.522199699746155"><ele>100.66666666666666</ele><time>2026-04-11T14:55:34.999Z</time></trkpt><trkpt lat="43.921363592648895" lon="4.522101387624676"><ele>100.83333333333333</ele><time>2026-04-11T14:55:35.999Z</time></trkpt><trkpt lat="43.92133178119212" lon="4.521959730382115"><ele>101.0</ele><time>2026-04-11T14:55:37.999Z</time></trkpt><trkpt lat="43.921256425028446" lon="4.52184550039997"><ele>101.8</ele><time>2026-04-11T14:55:39.999Z</time></trkpt><trkpt lat="43.92120728600457" lon="4.521757135672909"><ele>102.6</ele><time>2026-04-11T14:55:40.999Z</time></trkpt><trkpt lat="43.921169397540694" lon="4.521670443329198"><ele>103.4</ele><time>2026-04-11T14:55:41.999Z</time></trkpt><trkpt lat="43.92114070292474" lon="4.521552700830057"><ele>104.2</ele><time>2026-04-11T14:55:42.999Z</time></trkpt><trkpt lat="43.92111087829289" lon="4.521413435181565"><ele>105.0</ele><time>2026-04-11T14:55:43.999Z</time></trkpt><trkpt lat="43.92107255724495" lon="4.521270723845551"><ele>104.83333333333333</ele><time>2026-04-11T14:55:44.999Z</time></trkpt><trkpt lat="43.92104121600422" lon="4.521141604947722"><ele>104.66666666666666</ele><time>2026-04-11T14:55:45.999Z</time></trkpt><trkpt lat="43.92101840996139" lon="4.521019000523637"><ele>104.5</ele><time>2026-04-11T14:55:46.999Z</time></trkpt><trkpt lat="43.92099088624798" lon="4.520900860757612"><ele>104.33333333333333</ele><time>2026-04-11T14:55:47.999Z</time></trkpt><trkpt lat="43.920957970180034" lon="4.520798174613497"><ele>104.16666666666666</ele><time>2026-04-11T14:55:48.999Z</time></trkpt><trkpt lat="43.92091867007007" lon="4.520726598135651"><ele>104.0</ele><time>2026-04-11T14:55:49.999Z</time></trkpt><trkpt lat="43.92088441023396" lon="4.520613731588198"><ele>104.6</ele><time>2026-04-11T14:55:51.999Z</time></trkpt><trkpt lat="43.92100199671608" lon="4.520592649997117"><ele>105.2</ele><time>2026-04-11T14:55:56.999Z</time></trkpt><trkpt lat="43.92107141323944" lon="4.520595452266429"><ele>105.79999999999998</ele><time>2026-04-11T14:55:57.999Z</time></trkpt><trkpt lat="43.9211719130227" lon="4.520595831974387"><ele>106.39999999999999</ele><time>2026-04-11T14:56:00Z</time></trkpt><trkpt lat="43.921239063632065" lon="4.520591836267568"><ele>107.0</ele><time>2026-04-11T14:56:02Z</time></trkpt><trkpt lat="43.921363420651815" lon="4.520590985034626"><ele>107.0</ele><time>2026-04-11T14:56:04Z</time></trkpt><trkpt lat="43.92145883679112" lon="4.520557202917186"><ele>106.99999999999999</ele><time>2026-04-11T14:56:05Z</time></trkpt><trkpt lat="43.92154818420616" lon="4.520533089852366"><ele>106.99999999999999</ele><time>2026-04-11T14:56:06Z</time></trkpt><trkpt lat="43.921646697694044" lon="4.520503925279999"><ele>107.0</ele><time>2026-04-11T14:56:07Z</time></trkpt><trkpt lat="43.92173791537175" lon="4.520491562756984"><ele>107.0</ele><time>2026-04-11T14:56:08Z</time></trkpt><trkpt lat="43.92181229851379" lon="4.5204779777494775"><ele>107.19999999999999</ele><time>2026-04-11T14:56:09Z</time></trkpt><trkpt lat="43.92189930952552" lon="4.5204729016310985"><ele>107.39999999999999</ele><time>2026-04-11T14:56:10Z</time></trkpt><trkpt lat="43.92199980243927" lon="4.520439187866462"><ele>107.60000000000001</ele><time>2026-04-11T14:56:11Z</time></trkpt><trkpt lat="43.9220983437362" lon="4.520387473506543"><ele>107.80000000000001</ele><time>2026-04-11T14:56:12Z</time></trkpt><trkpt lat="43.92218841384973" lon="4.520351971974179"><ele>108.0</ele><time>2026-04-11T14:56:13Z</time></trkpt><trkpt lat="43.92226695049884" lon="4.52033166679407"><ele>109.2</ele><time>2026-04-11T14:56:14Z</time></trkpt><trkpt lat="43.92237601160648" lon="4.520311347749873"><ele>110.4</ele><time>2026-04-11T14:56:15Z</time></trkpt><trkpt lat="43.92248347543493" lon="4.5202755792150695"><ele>111.60000000000001</ele><time>2026-04-11T14:56:16Z</time></trkpt><trkpt lat="43.922584108276666" lon="4.5202292895521765"><ele>112.80000000000001</ele><time>2026-04-11T14:56:17Z</time></trkpt><trkpt lat="43.92267198414758" lon="4.520192758845498"><ele>114.0</ele><time>2026-04-11T14:56:18Z</time></trkpt><trkpt lat="43.92276278360571" lon="4.520168913023497"><ele>114.33333333333333</ele><time>2026-04-11T14:56:19Z</time></trkpt><trkpt lat="43.92286656228855" lon="4.520162416349742"><ele>114.66666666666666</ele><time>2026-04-11T14:56:20Z</time></trkpt><trkpt lat="43.922960250697656" lon="4.5201621970743835"><ele>115.0</ele><time>2026-04-11T14:56:21Z</time></trkpt><trkpt lat="43.92303826255608" lon="4.52015192070263"><ele>115.33333333333333</ele><time>2026-04-11T14:56:22Z</time></trkpt><trkpt lat="43.9231210151416" lon="4.520127491165655"><ele>115.66666666666666</ele><time>2026-04-11T14:56:23Z</time></trkpt><trkpt lat="43.923206679178406" lon="4.520106369385237"><ele>116.0</ele><time>2026-04-11T14:56:24Z</time></trkpt><trkpt lat="43.923296118943746" lon="4.520084541678208"><ele>116.4</ele><time>2026-04-11T14:56:25Z</time></trkpt><trkpt lat="43.923407137830935" lon="4.520068740137035"><ele>116.8</ele><time>2026-04-11T14:56:26Z</time></trkpt><trkpt lat="43.92351009540752" lon="4.52005079964303"><ele>117.20000000000002</ele><time>2026-04-11T14:56:27Z</time></trkpt><trkpt lat="43.92360820073129" lon="4.520047162167829"><ele>117.60000000000001</ele><time>2026-04-11T14:56:28Z</time></trkpt><trkpt lat="43.92368968103211" lon="4.520044909218542"><ele>118.0</ele><time>2026-04-11T14:56:29Z</time></trkpt><trkpt lat="43.92377352451714" lon="4.52004923869302"><ele>118.00000000000001</ele><time>2026-04-11T14:56:30Z</time></trkpt><trkpt lat="43.92383922837799" lon="4.520055587315871"><ele>118.0</ele><time>2026-04-11T14:56:31Z</time></trkpt><trkpt lat="43.92390187027921" lon="4.520085146935246"><ele>118.0</ele><time>2026-04-11T14:56:32Z</time></trkpt><trkpt lat="43.924020159207124" lon="4.520106982654865"><ele>118.0</ele><time>2026-04-11T14:56:34Z</time></trkpt><trkpt lat="43.92413116676248" lon="4.520085166097776"><ele>118.00000000000001</ele><time>2026-04-11T14:56:36Z</time></trkpt><trkpt lat="43.92419498346196" lon="4.520072516011577"><ele>118.0</ele><time>2026-04-11T14:56:37Z</time></trkpt><trkpt lat="43.924274492418924" lon="4.52006627591399"><ele>118.60000000000001</ele><time>2026-04-11T14:56:38Z</time></trkpt><trkpt lat="43.92436468087332" lon="4.520058154975504"><ele>119.20000000000002</ele><time>2026-04-11T14:56:39Z</time></trkpt><trkpt lat="43.92445802751096" lon="4.520021613518664"><ele>119.8</ele><time>2026-04-11T14:56:40Z</time></trkpt><trkpt lat="43.92454182971069" lon="4.519996883480885"><ele>120.4</ele><time>2026-04-11T14:56:41Z</time></trkpt><trkpt lat="43.92461004200127" lon="4.5199719396360925"><ele>121.0</ele><time>2026-04-11T14:56:42Z</time></trkpt><trkpt lat="43.92470355579281" lon="4.519898184400281"><ele>121.0</ele><time>2026-04-11T14:56:44Z</time></trkpt><trkpt lat="43.9248253574395" lon="4.519849935083072"><ele>121.0</ele><time>2026-04-11T14:56:46Z</time></trkpt><trkpt lat="43.92489050853122" lon="4.51984246531608"><ele>121.0</ele><time>2026-04-11T14:56:47Z</time></trkpt><trkpt lat="43.92497633460458" lon="4.519796112408951"><ele>121.0</ele><time>2026-04-11T14:56:48Z</time></trkpt><trkpt lat="43.925034627296576" lon="4.519731314037601"><ele>121.0</ele><time>2026-04-11T14:56:49Z</time></trkpt><trkpt lat="43.92511014228399" lon="4.519646367812653"><ele>121.19999999999999</ele><time>2026-04-11T14:56:51Z</time></trkpt><trkpt lat="43.92517576772529" lon="4.519615282078258"><ele>121.39999999999999</ele><time>2026-04-11T14:56:52Z</time></trkpt><trkpt lat="43.92530239162118" lon="4.51958337963903"><ele>121.6</ele><time>2026-04-11T14:56:54Z</time></trkpt><trkpt lat="43.925391976863224" lon="4.519511691988967"><ele>121.8</ele><time>2026-04-11T14:56:55Z</time></trkpt><trkpt lat="43.92548851142017" lon="4.5194424786014995"><ele>122.0</ele><time>2026-04-11T14:56:56Z</time></trkpt><trkpt lat="43.92558024653531" lon="4.519366512400357"><ele>122.39999999999999</ele><time>2026-04-11T14:56:57Z</time></trkpt><trkpt lat="43.92565569590697" lon="4.519286623031097"><ele>122.79999999999998</ele><time>2026-04-11T14:56:58Z</time></trkpt><trkpt lat="43.92572543626781" lon="4.519200430707143"><ele>123.2</ele><time>2026-04-11T14:56:59Z</time></trkpt><trkpt lat="43.925785863609754" lon="4.519130502841834"><ele>123.6</ele><time>2026-04-11T14:57:00Z</time></trkpt><trkpt lat="43.92582426796129" lon="4.519056652058909"><ele>124.0</ele><time>2026-04-11T14:57:01Z</time></trkpt><trkpt lat="43.92589286118292" lon="4.518904265726458"><ele>124.2</ele><time>2026-04-11T14:57:03Z</time></trkpt><trkpt lat="43.92591995076387" lon="4.5187961049734024"><ele>124.4</ele><time>2026-04-11T14:57:04Z</time></trkpt><trkpt lat="43.925966182174456" lon="4.51865470501953"><ele>124.6</ele><time>2026-04-11T14:57:05.999Z</time></trkpt><trkpt lat="43.926072645669954" lon="4.518544165970162"><ele>124.8</ele><time>2026-04-11T14:57:07.999Z</time></trkpt><trkpt lat="43.92613317398093" lon="4.518499237843088"><ele>125.0</ele><time>2026-04-11T14:57:08.999Z</time></trkpt><trkpt lat="43.92619078784718" lon="4.518448343271173"><ele>124.99999999999999</ele><time>2026-04-11T14:57:09.999Z</time></trkpt><trkpt lat="43.926240925119465" lon="4.518390575179482"><ele>125.0</ele><time>2026-04-11T14:57:10.999Z</time></trkpt><trkpt lat="43.926277629046865" lon="4.518318441511495"><ele>125.0</ele><time>2026-04-11T14:57:11.999Z</time></trkpt><trkpt lat="43.92631583988103" lon="4.518246517821291"><ele>125.0</ele><time>2026-04-11T14:57:12.999Z</time></trkpt><trkpt lat="43.926371803638276" lon="4.51810977766484"><ele>124.99999999999999</ele><time>2026-04-11T14:57:14.999Z</time></trkpt><trkpt lat="43.92645965704121" lon="4.518066142714002"><ele>125.0</ele><time>2026-04-11T14:57:16.999Z</time></trkpt><trkpt lat="43.92653351648435" lon="4.5180729138181865"><ele>124.99999999999999</ele><time>2026-04-11T14:57:18.999Z</time></trkpt><trkpt lat="43.92659670631985" lon="4.518054823571261"><ele>125.0</ele><time>2026-04-11T14:57:49.999Z</time></trkpt><trkpt lat="43.9266809474518" lon="4.518037199248487"><ele>125.0</ele><time>2026-04-11T14:57:53.999Z</time></trkpt><trkpt lat="43.926749537805335" lon="4.518022294695204"><ele>125.0</ele><time>2026-04-11T14:57:56.999Z</time></trkpt><trkpt lat="43.926831445602566" lon="4.518005680125471"><ele>124.99999999999999</ele><time>2026-04-11T14:57:59.999Z</time></trkpt><trkpt lat="43.92689994974822" lon="4.517990597688502"><ele>125.0</ele><time>2026-04-11T14:58:03.999Z</time></trkpt><trkpt lat="43.92697915713834" lon="4.517979257797492"><ele>126.0</ele><time>2026-04-11T14:58:21Z</time></trkpt><trkpt lat="43.92707329109495" lon="4.517953789319749"><ele>127.0</ele><time>2026-04-11T14:58:23Z</time></trkpt><trkpt lat="43.92718382454498" lon="4.517941682344252"><ele>128.0</ele><time>2026-04-11T14:58:25Z</time></trkpt><trkpt lat="43.9273007132151" lon="4.517920007224661"><ele>129.0</ele><time>2026-04-11T14:58:27Z</time></trkpt><trkpt lat="43.92741147819835" lon="4.5179066029880985"><ele>130.0</ele><time>2026-04-11T14:58:29Z</time></trkpt><trkpt lat="43.927507020710216" lon="4.517892011243372"><ele>130.2857142857143</ele><time>2026-04-11T14:58:31Z</time></trkpt><trkpt lat="43.92758069227974" lon="4.5178869942635576"><ele>130.57142857142858</ele><time>2026-04-11T14:58:34Z</time></trkpt><trkpt lat="43.927648747717" lon="4.517883474460051"><ele>130.85714285714286</ele><time>2026-04-11T14:58:37Z</time></trkpt><trkpt lat="43.92775100684049" lon="4.517895101411132"><ele>131.14285714285717</ele><time>2026-04-11T14:58:39Z</time></trkpt><trkpt lat="43.92781729336733" lon="4.51789547296806"><ele>131.42857142857144</ele><time>2026-04-11T14:58:40Z</time></trkpt><trkpt lat="43.92788697728595" lon="4.517901160711643"><ele>131.71428571428572</ele><time>2026-04-11T14:58:41Z</time></trkpt><trkpt lat="43.92795500169808" lon="4.517910860778614"><ele>132.0</ele><time>2026-04-11T14:58:42Z</time></trkpt><trkpt lat="43.92802158224385" lon="4.517914468003062"><ele>132.0</ele><time>2026-04-11T14:58:43Z</time></trkpt><trkpt lat="43.928084784654835" lon="4.517917029965094"><ele>132.0</ele><time>2026-04-11T14:58:44Z</time></trkpt><trkpt lat="43.92818415922804" lon="4.517917777160269"><ele>132.0</ele><time>2026-04-11T14:58:46Z</time></trkpt><trkpt lat="43.92826244625662" lon="4.517973420273068"><ele>132.0</ele><time>2026-04-11T14:58:48Z</time></trkpt><trkpt lat="43.928306503472356" lon="4.518069492648113"><ele>132.0</ele><time>2026-04-11T14:58:50Z</time></trkpt><trkpt lat="43.928309763147396" lon="4.518190100022993"><ele>132.0</ele><time>2026-04-11T14:58:52Z</time></trkpt><trkpt lat="43.928322523208706" lon="4.518292246211015"><ele>133.0</ele><time>2026-04-11T14:58:54Z</time></trkpt><trkpt lat="43.92839943591527" lon="4.518327840632787"><ele>134.0</ele><time>2026-04-11T14:58:57Z</time></trkpt><trkpt lat="43.92847000486902" lon="4.518318049670748"><ele>135.0</ele><time>2026-04-11T14:58:59Z</time></trkpt><trkpt lat="43.92858942383108" lon="4.518329733198723"><ele>136.0</ele><time>2026-04-11T14:59:07Z</time></trkpt><trkpt lat="43.928697207621276" lon="4.518343780377927"><ele>137.0</ele><time>2026-04-11T14:59:09Z</time></trkpt><trkpt lat="43.92880184141129" lon="4.518359623028116"><ele>137.0</ele><time>2026-04-11T14:59:11Z</time></trkpt><trkpt lat="43.92890983762338" lon="4.518373127958626"><ele>137.0</ele><time>2026-04-11T14:59:13Z</time></trkpt><trkpt lat="43.92902771819972" lon="4.518384559986637"><ele>137.0</ele><time>2026-04-11T14:59:14.999Z</time></trkpt><trkpt lat="43.9291486908049" lon="4.518399783676005"><ele>137.0</ele><time>2026-04-11T14:59:16.999Z</time></trkpt><trkpt lat="43.929271050860834" lon="4.518415354940396"><ele>137.66666666666666</ele><time>2026-04-11T14:59:18.999Z</time></trkpt><trkpt lat="43.92933637449595" lon="4.5184234151258"><ele>138.33333333333331</ele><time>2026-04-11T14:59:19.999Z</time></trkpt><trkpt lat="43.92943592883582" lon="4.5184305414044506"><ele>139.0</ele><time>2026-04-11T14:59:21.999Z</time></trkpt><trkpt lat="43.929504495114124" lon="4.518354462356498"><ele>139.66666666666666</ele><time>2026-04-11T14:59:42.999Z</time></trkpt><trkpt lat="43.92958402372928" lon="4.518329664748271"><ele>140.33333333333334</ele><time>2026-04-11T14:59:45.999Z</time></trkpt><trkpt lat="43.92965774478921" lon="4.518256317341688"><ele>141.0</ele><time>2026-04-11T14:59:48.999Z</time></trkpt><trkpt lat="43.929735626397694" lon="4.518199828387571"><ele>141.0</ele><time>2026-04-11T14:59:50.999Z</time></trkpt><trkpt lat="43.92980992837628" lon="4.518135197469904"><ele>141.0</ele><time>2026-04-11T14:59:52.999Z</time></trkpt><trkpt lat="43.929884185601" lon="4.518077006524532"><ele>141.0</ele><time>2026-04-11T14:59:55.999Z</time></trkpt><trkpt lat="43.92993692007105" lon="4.518026727001679"><ele>141.0</ele><time>2026-04-11T14:59:57.999Z</time></trkpt><trkpt lat="43.92999261878362" lon="4.517970119429467"><ele>141.0</ele><time>2026-04-11T14:59:59.999Z</time></trkpt><trkpt lat="43.930056960852454" lon="4.517871413322797"><ele>141.0</ele><time>2026-04-11T15:00:02.999Z</time></trkpt><trkpt lat="43.93013222605898" lon="4.517804136762591"><ele>142.66666666666666</ele><time>2026-04-11T15:00:04.999Z</time></trkpt><trkpt lat="43.93020620163713" lon="4.517724054389405"><ele>144.33333333333334</ele><time>2026-04-11T15:00:06.999Z</time></trkpt><trkpt lat="43.93026329299769" lon="4.517678691526152"><ele>146.0</ele><time>2026-04-11T15:00:08.999Z</time></trkpt><trkpt lat="43.930330067908294" lon="4.517631917276199"><ele>147.66666666666669</ele><time>2026-04-11T15:00:12Z</time></trkpt><trkpt lat="43.930403547590736" lon="4.517597811753486"><ele>149.33333333333334</ele><time>2026-04-11T15:00:14Z</time></trkpt><trkpt lat="43.93046717893939" lon="4.51754896662343"><ele>151.0</ele><time>2026-04-11T15:00:16Z</time></trkpt><trkpt lat="43.930567361935154" lon="4.517495455867652"><ele>151.0</ele><time>2026-04-11T15:00:18Z</time></trkpt><trkpt lat="43.93063565257333" lon="4.517426739689779"><ele>151.0</ele><time>2026-04-11T15:00:21Z</time></trkpt><trkpt lat="43.93069847070157" lon="4.517373293896808"><ele>151.0</ele><time>2026-04-11T15:00:23Z</time></trkpt><trkpt lat="43.93075026232083" lon="4.517295519530722"><ele>151.0</ele><time>2026-04-11T15:00:25Z</time></trkpt><trkpt lat="43.93080564463776" lon="4.5171743696686555"><ele>151.0</ele><time>2026-04-11T15:00:27Z</time></trkpt><trkpt lat="43.93088603421863" lon="4.5170964750909555"><ele>151.0</ele><time>2026-04-11T15:00:29Z</time></trkpt><trkpt lat="43.93096061690057" lon="4.517048306232779"><ele>151.5</ele><time>2026-04-11T15:00:31Z</time></trkpt><trkpt lat="43.93102462251249" lon="4.516998822847787"><ele>152.0</ele><time>2026-04-11T15:00:33Z</time></trkpt><trkpt lat="43.931080021741195" lon="4.516940823411002"><ele>152.5</ele><time>2026-04-11T15:00:35Z</time></trkpt><trkpt lat="43.931145496277786" lon="4.516858398872282"><ele>153.0</ele><time>2026-04-11T15:00:37Z</time></trkpt><trkpt lat="43.931217080300506" lon="4.516765565212706"><ele>153.5</ele><time>2026-04-11T15:00:39Z</time></trkpt><trkpt lat="43.93127486465434" lon="4.5167092310925785"><ele>154.0</ele><time>2026-04-11T15:00:43Z</time></trkpt><trkpt lat="43.931345367710165" lon="4.516654291678284"><ele>154.0</ele><time>2026-04-11T15:00:46Z</time></trkpt><trkpt lat="43.93142066597847" lon="4.516601100192785"><ele>154.0</ele><time>2026-04-11T15:00:48Z</time></trkpt><trkpt lat="43.93148306443777" lon="4.516555399591797"><ele>154.0</ele><time>2026-04-11T15:00:50Z</time></trkpt><trkpt lat="43.931555720348385" lon="4.516499578152642"><ele>154.0</ele><time>2026-04-11T15:00:53Z</time></trkpt><trkpt lat="43.93159804952187" lon="4.516432815319447"><ele>154.0</ele><time>2026-04-11T15:00:56Z</time></trkpt><trkpt lat="43.93165746861002" lon="4.516372871128634"><ele>154.0</ele><time>2026-04-11T15:01:15Z</time></trkpt><trkpt lat="43.931714304422094" lon="4.516321431479665"><ele>154.0</ele><time>2026-04-11T15:01:19Z</time></trkpt><trkpt lat="43.93177842752973" lon="4.516255722063964"><ele>151.85714285714286</ele><time>2026-04-11T15:01:28.999Z</time></trkpt><trkpt lat="43.93183248812845" lon="4.516209049503023"><ele>149.71428571428572</ele><time>2026-04-11T15:01:33.999Z</time></trkpt><trkpt lat="43.93189443564446" lon="4.516167740687255"><ele>147.57142857142856</ele><time>2026-04-11T15:01:42.999Z</time></trkpt><trkpt lat="43.93196102137271" lon="4.516135667116711"><ele>145.42857142857144</ele><time>2026-04-11T15:01:47.999Z</time></trkpt><trkpt lat="43.93204029016934" lon="4.516101609877539"><ele>143.28571428571428</ele><time>2026-04-11T15:02:00.999Z</time></trkpt><trkpt lat="43.9320990560262" lon="4.516065139504555"><ele>141.14285714285714</ele><time>2026-04-11T15:02:11.999Z</time></trkpt><trkpt lat="43.932161387966275" lon="4.516015747705091"><ele>139.0</ele><time>2026-04-11T15:02:19Z</time></trkpt><trkpt lat="43.932214844633464" lon="4.51595844252679"><ele>139.0</ele><time>2026-04-11T15:02:37Z</time></trkpt><trkpt lat="43.93228810019318" lon="4.515904086533739"><ele>139.0</ele><time>2026-04-11T15:03:22.999Z</time></trkpt><trkpt lat="43.932371609823306" lon="4.515872230719772"><ele>139.0</ele><time>2026-04-11T15:03:27.999Z</time></trkpt><trkpt lat="43.932437666668484" lon="4.515889541441937"><ele>139.0</ele><time>2026-04-11T15:06:53Z</time></trkpt><trkpt lat="43.93250471139021" lon="4.515896244312848"><ele>139.0</ele><time>2026-04-11T15:07:07Z</time></trkpt><trkpt lat="43.93251211613484" lon="4.516017340136093"><ele>139.0</ele><time>2026-04-11T15:08:09.999Z</time></trkpt><trkpt lat="43.9325230419464" lon="4.516118748337048"><ele>139.0</ele><time>2026-04-11T15:09:29Z</time></trkpt><trkpt lat="43.93251231847666" lon="4.516218533984048"><ele>139.0</ele><time>2026-04-11T15:09:33.999Z</time></trkpt><trkpt lat="43.93250759563729" lon="4.516315953253182"><ele>139.0</ele><time>2026-04-11T15:09:39.999Z</time></trkpt><trkpt lat="43.93249693484076" lon="4.516420699391638"><ele>139.0</ele><time>2026-04-11T15:09:43.999Z</time></trkpt><trkpt lat="43.93252893353175" lon="4.516519973808964"><ele>139.0</ele><time>2026-04-11T15:09:48.999Z</time></trkpt><trkpt lat="43.93254447556933" lon="4.516618206865051"><ele>139.0</ele><time>2026-04-11T15:09:51.999Z</time></trkpt><trkpt lat="43.93251066576592" lon="4.51669840070139"><ele>139.0</ele><time>2026-04-11T15:09:56.999Z</time></trkpt><trkpt lat="43.93253198685151" lon="4.516781555252108"><ele>138.57142857142856</ele><time>2026-04-11T15:09:58.999Z</time></trkpt><trkpt lat="43.932575233178625" lon="4.51685924365563"><ele>138.14285714285714</ele><time>2026-04-11T15:10:02.999Z</time></trkpt><trkpt lat="43.93261859358418" lon="4.516939384497124"><ele>137.71428571428572</ele><time>2026-04-11T15:10:11.999Z</time></trkpt><trkpt lat="43.932661044527684" lon="4.517024230569028"><ele>137.28571428571428</ele><time>2026-04-11T15:10:14.999Z</time></trkpt><trkpt lat="43.93268140816384" lon="4.5171203389614325"><ele>136.85714285714286</ele><time>2026-04-11T15:10:19.999Z</time></trkpt><trkpt lat="43.932695723844226" lon="4.517211466848012"><ele>136.42857142857142</ele><time>2026-04-11T15:10:25.999Z</time></trkpt><trkpt lat="43.93270674338365" lon="4.517304579541266"><ele>136.0</ele><time>2026-04-11T15:10:42Z</time></trkpt><trkpt lat="43.93272662486418" lon="4.517393104096948"><ele>135.99999999999997</ele><time>2026-04-11T15:10:51Z</time></trkpt><trkpt lat="43.932768687641094" lon="4.517460924536696"><ele>136.0</ele><time>2026-04-11T15:11:05Z</time></trkpt><trkpt lat="43.932809014737295" lon="4.517537692345732"><ele>136.0</ele><time>2026-04-11T15:11:07Z</time></trkpt><trkpt lat="43.93284994311176" lon="4.517609606986654"><ele>136.0</ele><time>2026-04-11T15:11:15Z</time></trkpt><trkpt lat="43.93289975866287" lon="4.517676853708513"><ele>136.0</ele><time>2026-04-11T15:11:34Z</time></trkpt><trkpt lat="43.932929341291846" lon="4.517758740857397"><ele>135.99999999999997</ele><time>2026-04-11T15:11:40.999Z</time></trkpt><trkpt lat="43.93299459748203" lon="4.517784050510591"><ele>136.0</ele><time>2026-04-11T15:11:59.999Z</time></trkpt><trkpt lat="43.93308228133183" lon="4.517818191876246"><ele>135.99999999999997</ele><time>2026-04-11T15:12:33.999Z</time></trkpt><trkpt lat="43.93314335235365" lon="4.517864911185319"><ele>136.0</ele><time>2026-04-11T15:12:36.999Z</time></trkpt><trkpt lat="43.93319325828207" lon="4.517938540079085"><ele>136.0</ele><time>2026-04-11T15:12:50Z</time></trkpt><trkpt lat="43.933238694859206" lon="4.518010726594049"><ele>136.0</ele><time>2026-04-11T15:13:16Z</time></trkpt><trkpt lat="43.93327373374484" lon="4.518083551894849"><ele>136.0</ele><time>2026-04-11T15:13:25Z</time></trkpt><trkpt lat="43.93331431466999" lon="4.5181619634888825"><ele>135.99999999999997</ele><time>2026-04-11T15:13:30Z</time></trkpt><trkpt lat="43.933334762328485" lon="4.518245561296696"><ele>136.0</ele><time>2026-04-11T15:13:33Z</time></trkpt><trkpt lat="43.93341386111108" lon="4.5182490954056185"><ele>135.5</ele><time>2026-04-11T15:15:34Z</time></trkpt><trkpt lat="43.93350829954266" lon="4.518164095889172"><ele>135.0</ele><time>2026-04-11T15:15:36Z</time></trkpt><trkpt lat="43.93358617737986" lon="4.518120904539799"><ele>134.5</ele><time>2026-04-11T15:15:38Z</time></trkpt><trkpt lat="43.933643250061195" lon="4.5181600242590045"><ele>134.0</ele><time>2026-04-11T15:15:40Z</time></trkpt><trkpt lat="43.93369604018166" lon="4.518214637255329"><ele>133.5</ele><time>2026-04-11T15:15:42Z</time></trkpt><trkpt lat="43.933740875816106" lon="4.518339825402488"><ele>133.0</ele><time>2026-04-11T15:15:44.999Z</time></trkpt><trkpt lat="43.933815510939745" lon="4.518420715930679"><ele>133.0</ele><time>2026-04-11T15:15:46.999Z</time></trkpt><trkpt lat="43.93393552855076" lon="4.518464845706976"><ele>133.0</ele><time>2026-04-11T15:15:48.999Z</time></trkpt><trkpt lat="43.93399697931368" lon="4.518490409316763"><ele>133.0</ele><time>2026-04-11T15:15:49.999Z</time></trkpt><trkpt lat="43.934067638623546" lon="4.518508807186627"><ele>133.0</ele><time>2026-04-11T15:15:50.999Z</time></trkpt><trkpt lat="43.934142316222506" lon="4.518521457616506"><ele>133.0</ele><time>2026-04-11T15:15:51.999Z</time></trkpt><trkpt lat="43.93422014766458" lon="4.518535873853753"><ele>133.0</ele><time>2026-04-11T15:15:52.999Z</time></trkpt><trkpt lat="43.93430105707041" lon="4.518552346709296"><ele>135.0</ele><time>2026-04-11T15:15:53.999Z</time></trkpt><trkpt lat="43.93438476293489" lon="4.518570169815806"><ele>137.0</ele><time>2026-04-11T15:15:54.999Z</time></trkpt><trkpt lat="43.93445658353434" lon="4.518582414862739"><ele>139.0</ele><time>2026-04-11T15:15:55.999Z</time></trkpt><trkpt lat="43.93458592282826" lon="4.518625501820373"><ele>141.0</ele><time>2026-04-11T15:15:57.999Z</time></trkpt><trkpt lat="43.93465696064376" lon="4.518657857522632"><ele>143.0</ele><time>2026-04-11T15:15:58.999Z</time></trkpt><trkpt lat="43.93473220035327" lon="4.518679360953046"><ele>145.0</ele><time>2026-04-11T15:15:59.999Z</time></trkpt><trkpt lat="43.93481675272897" lon="4.5186995706851585"><ele>145.0</ele><time>2026-04-11T15:16:00.999Z</time></trkpt><trkpt lat="43.93489028286508" lon="4.5187330860400365"><ele>145.0</ele><time>2026-04-11T15:16:01.999Z</time></trkpt><trkpt lat="43.934949695562814" lon="4.518775727375115"><ele>145.0</ele><time>2026-04-11T15:16:02.999Z</time></trkpt><trkpt lat="43.93504644616912" lon="4.518824494034989"><ele>145.0</ele><time>2026-04-11T15:16:04.999Z</time></trkpt><trkpt lat="43.93511100809948" lon="4.5187706690190375"><ele>145.0</ele><time>2026-04-11T15:16:06.999Z</time></trkpt><trkpt lat="43.935079175150975" lon="4.518667638265823"><ele>145.0</ele><time>2026-04-11T15:16:09.999Z</time></trkpt><trkpt lat="43.93501288039245" lon="4.518603435822958"><ele>145.0</ele><time>2026-04-11T15:16:11.999Z</time></trkpt><trkpt lat="43.93490066663038" lon="4.518514185462484"><ele>145.0</ele><time>2026-04-11T15:16:13.999Z</time></trkpt><trkpt lat="43.93483725186281" lon="4.51845172728113"><ele>145.0</ele><time>2026-04-11T15:16:14.999Z</time></trkpt><trkpt lat="43.93477620722953" lon="4.518382721412666"><ele>145.0</ele><time>2026-04-11T15:16:15.999Z</time></trkpt><trkpt lat="43.93472599298838" lon="4.5183223700930375"><ele>145.0</ele><time>2026-04-11T15:16:16.999Z</time></trkpt><trkpt lat="43.93468233053099" lon="4.518257021892162"><ele>145.0</ele><time>2026-04-11T15:16:17.999Z</time></trkpt><trkpt lat="43.93461895620545" lon="4.518130824222889"><ele>145.0</ele><time>2026-04-11T15:16:19.999Z</time></trkpt><trkpt lat="43.93463763531429" lon="4.518034621713368"><ele>145.0</ele><time>2026-04-11T15:16:21.999Z</time></trkpt><trkpt lat="43.93470218983993" lon="4.518010032133271"><ele>145.0</ele><time>2026-04-11T15:16:23.999Z</time></trkpt><trkpt lat="43.93479317758623" lon="4.518020782701472"><ele>145.0</ele><time>2026-04-11T15:16:25.999Z</time></trkpt><trkpt lat="43.93485570444731" lon="4.518054144929095"><ele>145.0</ele><time>2026-04-11T15:16:26.999Z</time></trkpt><trkpt lat="43.934930907379915" lon="4.518082231324165"><ele>145.0</ele><time>2026-04-11T15:16:27.999Z</time></trkpt><trkpt lat="43.93501356048336" lon="4.518086951190338"><ele>147.0</ele><time>2026-04-11T15:16:28.999Z</time></trkpt><trkpt lat="43.93510513946934" lon="4.518076992920865"><ele>149.0</ele><time>2026-04-11T15:16:29.999Z</time></trkpt><trkpt lat="43.935195080454776" lon="4.518071355880859"><ele>151.0</ele><time>2026-04-11T15:16:30.999Z</time></trkpt><trkpt lat="43.93529883722232" lon="4.51807207097066"><ele>153.0</ele><time>2026-04-11T15:16:31.999Z</time></trkpt><trkpt lat="43.93540136336621" lon="4.518078360837834"><ele>155.0</ele><time>2026-04-11T15:16:32.999Z</time></trkpt><trkpt lat="43.93550941361967" lon="4.5180898736975506"><ele>155.0</ele><time>2026-04-11T15:16:33.999Z</time></trkpt><trkpt lat="43.93561590843944" lon="4.518116675459007"><ele>155.0</ele><time>2026-04-11T15:16:34.999Z</time></trkpt><trkpt lat="43.93572773958212" lon="4.518161040815671"><ele>155.0</ele><time>2026-04-11T15:16:35.999Z</time></trkpt><trkpt lat="43.93583189322698" lon="4.5182079261060455"><ele>155.0</ele><time>2026-04-11T15:16:36.999Z</time></trkpt><trkpt lat="43.935926025192735" lon="4.518251046860191"><ele>155.0</ele><time>2026-04-11T15:16:37.999Z</time></trkpt><trkpt lat="43.93601823282" lon="4.518287203685297"><ele>154.83333333333331</ele><time>2026-04-11T15:16:38.999Z</time></trkpt><trkpt lat="43.936099888464454" lon="4.518324929539843"><ele>154.66666666666666</ele><time>2026-04-11T15:16:39.999Z</time></trkpt><trkpt lat="43.93617550697269" lon="4.518354503202853"><ele>154.5</ele><time>2026-04-11T15:16:40.999Z</time></trkpt><trkpt lat="43.93624695087271" lon="4.518372207924918"><ele>154.33333333333334</ele><time>2026-04-11T15:16:41.999Z</time></trkpt><trkpt lat="43.93631527433148" lon="4.518374212942404"><ele>154.16666666666669</ele><time>2026-04-11T15:16:42.999Z</time></trkpt><trkpt lat="43.936433568778554" lon="4.518346939889969"><ele>154.0</ele><time>2026-04-11T15:16:44.999Z</time></trkpt><trkpt lat="43.93651358171922" lon="4.518272421273441"><ele>154.0</ele><time>2026-04-11T15:16:46.999Z</time></trkpt><trkpt lat="43.93653594519242" lon="4.518162717821191"><ele>154.0</ele><time>2026-04-11T15:16:48.999Z</time></trkpt><trkpt lat="43.93651564934873" lon="4.5179951869006265"><ele>154.0</ele><time>2026-04-11T15:16:50.999Z</time></trkpt><trkpt lat="43.9364941141612" lon="4.517896978186116"><ele>154.0</ele><time>2026-04-11T15:16:51.999Z</time></trkpt><trkpt lat="43.93649099655967" lon="4.5177812046493555"><ele>154.0</ele><time>2026-04-11T15:16:52.999Z</time></trkpt><trkpt lat="43.93647272791576" lon="4.517652792134981"><ele>154.66666666666669</ele><time>2026-04-11T15:16:53.999Z</time></trkpt><trkpt lat="43.93645136847476" lon="4.517526133815551"><ele>155.33333333333334</ele><time>2026-04-11T15:16:54.999Z</time></trkpt><trkpt lat="43.93643301427929" lon="4.517412814601559"><ele>156.0</ele><time>2026-04-11T15:16:55.999Z</time></trkpt><trkpt lat="43.93642127687166" lon="4.517305627145115"><ele>156.66666666666666</ele><time>2026-04-11T15:16:56.999Z</time></trkpt><trkpt lat="43.9364077442343" lon="4.517192287947157"><ele>157.33333333333331</ele><time>2026-04-11T15:16:57.999Z</time></trkpt><trkpt lat="43.93644258485101" lon="4.517098499728578"><ele>158.0</ele><time>2026-04-11T15:16:58.999Z</time></trkpt><trkpt lat="43.936512790523246" lon="4.5170380285215925"><ele>159.0</ele><time>2026-04-11T15:16:59.999Z</time></trkpt><trkpt lat="43.93658761491138" lon="4.516956427002643"><ele>160.0</ele><time>2026-04-11T15:17:00.999Z</time></trkpt><trkpt lat="43.93665673041156" lon="4.5168688194644275"><ele>161.0</ele><time>2026-04-11T15:17:01.999Z</time></trkpt><trkpt lat="43.936721495124864" lon="4.5167948160854525"><ele>162.0</ele><time>2026-04-11T15:17:02.999Z</time></trkpt><trkpt lat="43.93676217692957" lon="4.5167063622120125"><ele>163.0</ele><time>2026-04-11T15:17:03.999Z</time></trkpt><trkpt lat="43.93679985927322" lon="4.516616656397027"><ele>164.0</ele><time>2026-04-11T15:17:04.999Z</time></trkpt><trkpt lat="43.936796592566886" lon="4.516503304517176"><ele>164.0</ele><time>2026-04-11T15:17:05.999Z</time></trkpt><trkpt lat="43.93675397631171" lon="4.516393417296019"><ele>164.0</ele><time>2026-04-11T15:17:06.999Z</time></trkpt><trkpt lat="43.93669672196016" lon="4.516290297882719"><ele>164.0</ele><time>2026-04-11T15:17:07.999Z</time></trkpt><trkpt lat="43.936616688570574" lon="4.516196725368516"><ele>164.0</ele><time>2026-04-11T15:17:08.999Z</time></trkpt><trkpt lat="43.9365394893695" lon="4.516116526718761"><ele>164.0</ele><time>2026-04-11T15:17:09.999Z</time></trkpt><trkpt lat="43.936451223085946" lon="4.516051670517936"><ele>163.79999999999998</ele><time>2026-04-11T15:17:10.999Z</time></trkpt><trkpt lat="43.93635318190928" lon="4.5160047025794965"><ele>163.6</ele><time>2026-04-11T15:17:11.999Z</time></trkpt><trkpt lat="43.93625418380629" lon="4.51597132784392"><ele>163.4</ele><time>2026-04-11T15:17:12.999Z</time></trkpt><trkpt lat="43.93615691475915" lon="4.515921183472059"><ele>163.2</ele><time>2026-04-11T15:17:13.999Z</time></trkpt><trkpt lat="43.93605907835196" lon="4.515880955088841"><ele>163.0</ele><time>2026-04-11T15:17:14.999Z</time></trkpt><trkpt lat="43.93596555476222" lon="4.515826665017684"><ele>163.4</ele><time>2026-04-11T15:17:15.999Z</time></trkpt><trkpt lat="43.93588056159245" lon="4.515747399615839"><ele>163.8</ele><time>2026-04-11T15:17:16.999Z</time></trkpt><trkpt lat="43.9357861596105" lon="4.5156777832293615"><ele>164.2</ele><time>2026-04-11T15:17:17.999Z</time></trkpt><trkpt lat="43.93570669580939" lon="4.5155785382820985"><ele>164.6</ele><time>2026-04-11T15:17:18.999Z</time></trkpt><trkpt lat="43.93560583868299" lon="4.515511403595416"><ele>165.0</ele><time>2026-04-11T15:17:19.999Z</time></trkpt><trkpt lat="43.935511067732904" lon="4.515433574038313"><ele>164.8</ele><time>2026-04-11T15:17:20.999Z</time></trkpt><trkpt lat="43.93541923818434" lon="4.515346291084341"><ele>164.6</ele><time>2026-04-11T15:17:21.999Z</time></trkpt><trkpt lat="43.935329375695716" lon="4.515260272259845"><ele>164.39999999999998</ele><time>2026-04-11T15:17:22.999Z</time></trkpt><trkpt lat="43.93523505542191" lon="4.51517537019517"><ele>164.2</ele><time>2026-04-11T15:17:23.999Z</time></trkpt><trkpt lat="43.93513703945139" lon="4.515108430431727"><ele>164.0</ele><time>2026-04-11T15:17:24.999Z</time></trkpt><trkpt lat="43.935035647681346" lon="4.515063469344672"><ele>164.0</ele><time>2026-04-11T15:17:25.999Z</time></trkpt><trkpt lat="43.93493204514821" lon="4.515012012808247"><ele>164.0</ele><time>2026-04-11T15:17:26.999Z</time></trkpt><trkpt lat="43.934823018916696" lon="4.51500221257707"><ele>164.0</ele><time>2026-04-11T15:17:27.999Z</time></trkpt><trkpt lat="43.93470646566734" lon="4.515024647556771"><ele>164.0</ele><time>2026-04-11T15:17:28.999Z</time></trkpt><trkpt lat="43.93459834112575" lon="4.515016820023278"><ele>164.0</ele><time>2026-04-11T15:17:29.999Z</time></trkpt><trkpt lat="43.93449840148248" lon="4.51497732273935"><ele>164.0</ele><time>2026-04-11T15:17:30.999Z</time></trkpt><trkpt lat="43.93442168796873" lon="4.514880244580923"><ele>164.0</ele><time>2026-04-11T15:17:31.999Z</time></trkpt><trkpt lat="43.93433097983307" lon="4.514795946823958"><ele>164.0</ele><time>2026-04-11T15:17:32.999Z</time></trkpt><trkpt lat="43.93424419245294" lon="4.5147136186303225"><ele>164.0</ele><time>2026-04-11T15:17:33.999Z</time></trkpt><trkpt lat="43.93416389088265" lon="4.5146352730901524"><ele>164.0</ele><time>2026-04-11T15:17:34.999Z</time></trkpt><trkpt lat="43.934101773770415" lon="4.5145747641479295"><ele>163.5</ele><time>2026-04-11T15:17:35.999Z</time></trkpt><trkpt lat="43.934005490606495" lon="4.514480973312422"><ele>163.0</ele><time>2026-04-11T15:17:37.999Z</time></trkpt><trkpt lat="43.933916581687356" lon="4.5144120941447"><ele>162.5</ele><time>2026-04-11T15:17:39.999Z</time></trkpt><trkpt lat="43.9338590865839" lon="4.514357990941571"><ele>162.0</ele><time>2026-04-11T15:17:41.999Z</time></trkpt><trkpt lat="43.93379567610809" lon="4.514275314607327"><ele>161.5</ele><time>2026-04-11T15:18:09.999Z</time></trkpt><trkpt lat="43.933741772047085" lon="4.514216035718398"><ele>161.0</ele><time>2026-04-11T15:18:11.999Z</time></trkpt><trkpt lat="43.933654561640694" lon="4.514096860704971"><ele>161.0</ele><time>2026-04-11T15:18:13.999Z</time></trkpt><trkpt lat="43.933591585260814" lon="4.514034288422108"><ele>161.0</ele><time>2026-04-11T15:18:14.999Z</time></trkpt><trkpt lat="43.93353377450986" lon="4.513947275607757"><ele>161.0</ele><time>2026-04-11T15:18:15.999Z</time></trkpt><trkpt lat="43.933462304199566" lon="4.5138640806852415"><ele>161.0</ele><time>2026-04-11T15:18:16.999Z</time></trkpt><trkpt lat="43.933385758922654" lon="4.513777218223076"><ele>161.0</ele><time>2026-04-11T15:18:17.999Z</time></trkpt><trkpt lat="43.93330832981332" lon="4.513681671962815"><ele>160.4</ele><time>2026-04-11T15:18:18.999Z</time></trkpt><trkpt lat="43.93323334607365" lon="4.513588714798621"><ele>159.8</ele><time>2026-04-11T15:18:19.999Z</time></trkpt><trkpt lat="43.933158758752406" lon="4.513489167030214"><ele>159.20000000000002</ele><time>2026-04-11T15:18:20.999Z</time></trkpt><trkpt lat="43.93310282050312" lon="4.513364092966571"><ele>158.60000000000002</ele><time>2026-04-11T15:18:21.999Z</time></trkpt><trkpt lat="43.933042477420216" lon="4.513246925242302"><ele>158.0</ele><time>2026-04-11T15:18:22.999Z</time></trkpt><trkpt lat="43.93298538600228" lon="4.513127928090418"><ele>158.0</ele><time>2026-04-11T15:18:23.999Z</time></trkpt><trkpt lat="43.932932421038494" lon="4.51300862164191"><ele>158.0</ele><time>2026-04-11T15:18:24.999Z</time></trkpt><trkpt lat="43.93287945734474" lon="4.512879237957951"><ele>158.0</ele><time>2026-04-11T15:18:25.999Z</time></trkpt><trkpt lat="43.932833057372754" lon="4.512746704660201"><ele>158.0</ele><time>2026-04-11T15:18:26.999Z</time></trkpt><trkpt lat="43.932788280333604" lon="4.512608438641923"><ele>158.0</ele><time>2026-04-11T15:18:27.999Z</time></trkpt><trkpt lat="43.93274367250915" lon="4.512469673989476"><ele>158.0</ele><time>2026-04-11T15:18:28.999Z</time></trkpt><trkpt lat="43.93268389644701" lon="4.512337490809169"><ele>158.0</ele><time>2026-04-11T15:18:29.999Z</time></trkpt><trkpt lat="43.9326447202068" lon="4.512187205558194"><ele>158.0</ele><time>2026-04-11T15:18:30.999Z</time></trkpt><trkpt lat="43.932584860222484" lon="4.512055056171883"><ele>158.0</ele><time>2026-04-11T15:18:31.999Z</time></trkpt><trkpt lat="43.932558452336345" lon="4.511895730906515"><ele>159.0</ele><time>2026-04-11T15:18:32.999Z</time></trkpt><trkpt lat="43.932536672135114" lon="4.511742869494831"><ele>160.0</ele><time>2026-04-11T15:18:33.999Z</time></trkpt><trkpt lat="43.93252645468706" lon="4.511593868205027"><ele>161.0</ele><time>2026-04-11T15:18:34.999Z</time></trkpt><trkpt lat="43.93253865751833" lon="4.511457614146394"><ele>162.0</ele><time>2026-04-11T15:18:35.999Z</time></trkpt><trkpt lat="43.93256216430499" lon="4.511332252221244"><ele>163.0</ele><time>2026-04-11T15:18:36.999Z</time></trkpt><trkpt lat="43.932590603897076" lon="4.511221327815569"><ele>163.57142857142858</ele><time>2026-04-11T15:18:37.999Z</time></trkpt><trkpt lat="43.93260354127422" lon="4.511116175650981"><ele>164.14285714285714</ele><time>2026-04-11T15:18:38.999Z</time></trkpt><trkpt lat="43.93259047354042" lon="4.511025534543614"><ele>164.71428571428572</ele><time>2026-04-11T15:18:39.999Z</time></trkpt><trkpt lat="43.932580222543336" lon="4.510938422660123"><ele>165.28571428571428</ele><time>2026-04-11T15:18:40.999Z</time></trkpt><trkpt lat="43.93254210087295" lon="4.510866938204355"><ele>165.85714285714286</ele><time>2026-04-11T15:18:41.999Z</time></trkpt><trkpt lat="43.93249545515558" lon="4.5108070787408066"><ele>166.42857142857142</ele><time>2026-04-11T15:18:42.999Z</time></trkpt><trkpt lat="43.932427036795964" lon="4.5107623491359545"><ele>167.0</ele><time>2026-04-11T15:18:43.999Z</time></trkpt><trkpt lat="43.9323661791811" lon="4.5107176457251645"><ele>167.0</ele><time>2026-04-11T15:18:44.999Z</time></trkpt><trkpt lat="43.932263684955345" lon="4.510647777185832"><ele>167.0</ele><time>2026-04-11T15:18:46.999Z</time></trkpt><trkpt lat="43.93220309970697" lon="4.510585596219546"><ele>167.0</ele><time>2026-04-11T15:19:05.999Z</time></trkpt><trkpt lat="43.93213688052182" lon="4.51050134637425"><ele>167.0</ele><time>2026-04-11T15:19:07.999Z</time></trkpt><trkpt lat="43.932090491157716" lon="4.510423790086262"><ele>167.0</ele><time>2026-04-11T15:19:09.999Z</time></trkpt><trkpt lat="43.93205159297194" lon="4.510322908195347"><ele>167.0</ele><time>2026-04-11T15:19:13Z</time></trkpt><trkpt lat="43.932027918857536" lon="4.510194708997514"><ele>167.0</ele><time>2026-04-11T15:19:17Z</time></trkpt><trkpt lat="43.931858112922654" lon="4.510306911977357"><ele>167.0</ele><time>2026-04-11T15:19:23Z</time></trkpt><trkpt lat="43.9317898037139" lon="4.510355879466423"><ele>167.0</ele><time>2026-04-11T15:19:25Z</time></trkpt><trkpt lat="43.93172512345682" lon="4.510477759022809"><ele>167.0</ele><time>2026-04-11T15:19:27Z</time></trkpt><trkpt lat="43.931644607089595" lon="4.5105718898352904"><ele>167.0</ele><time>2026-04-11T15:19:29Z</time></trkpt><trkpt lat="43.93155290044249" lon="4.510638718661938"><ele>167.0</ele><time>2026-04-11T15:19:31Z</time></trkpt><trkpt lat="43.93148626187405" lon="4.510724718123931"><ele>167.0</ele><time>2026-04-11T15:19:33Z</time></trkpt><trkpt lat="43.93143805842909" lon="4.51079055069333"><ele>167.0</ele><time>2026-04-11T15:19:35Z</time></trkpt><trkpt lat="43.93140840635941" lon="4.510899704319065"><ele>167.0</ele><time>2026-04-11T15:19:37Z</time></trkpt><trkpt lat="43.93136496679075" lon="4.510983007029695"><ele>167.0</ele><time>2026-04-11T15:19:39Z</time></trkpt><trkpt lat="43.93128374467968" lon="4.511025352087937"><ele>167.0</ele><time>2026-04-11T15:19:42Z</time></trkpt><trkpt lat="43.93120913633519" lon="4.511054657842703"><ele>167.0</ele><time>2026-04-11T15:19:45Z</time></trkpt><trkpt lat="43.93113527651148" lon="4.511063667806313"><ele>167.0</ele><time>2026-04-11T15:19:48Z</time></trkpt><trkpt lat="43.931061032317515" lon="4.511082693000431"><ele>167.0</ele><time>2026-04-11T15:19:52Z</time></trkpt><trkpt lat="43.93097313068998" lon="4.511083211418199"><ele>167.0</ele><time>2026-04-11T15:19:56Z</time></trkpt><trkpt lat="43.93089917165453" lon="4.511062293977258"><ele>167.0</ele><time>2026-04-11T15:20:00Z</time></trkpt><trkpt lat="43.93084013704534" lon="4.511000947734499"><ele>165.66666666666666</ele><time>2026-04-11T15:20:08Z</time></trkpt><trkpt lat="43.93076959342398" lon="4.5109645102372635"><ele>164.33333333333331</ele><time>2026-04-11T15:20:11Z</time></trkpt><trkpt lat="43.93070485892172" lon="4.510883388342043"><ele>163.0</ele><time>2026-04-11T15:20:14Z</time></trkpt><trkpt lat="43.93067126401518" lon="4.510787523531633"><ele>161.66666666666666</ele><time>2026-04-11T15:20:16Z</time></trkpt><trkpt lat="43.93061595088131" lon="4.510702779756453"><ele>160.33333333333334</ele><time>2026-04-11T15:20:20Z</time></trkpt><trkpt lat="43.93056930078012" lon="4.510630965280002"><ele>159.0</ele><time>2026-04-11T15:20:22Z</time></trkpt><trkpt lat="43.930518942275235" lon="4.510558030693873"><ele>159.0</ele><time>2026-04-11T15:20:24Z</time></trkpt><trkpt lat="43.93049092830586" lon="4.5104416727109164"><ele>159.0</ele><time>2026-04-11T15:20:26Z</time></trkpt><trkpt lat="43.930468955974945" lon="4.510337185903512"><ele>159.0</ele><time>2026-04-11T15:20:28Z</time></trkpt><trkpt lat="43.930444864072435" lon="4.510240895076674"><ele>159.0</ele><time>2026-04-11T15:20:30Z</time></trkpt><trkpt lat="43.930369661840636" lon="4.510210620087206"><ele>159.0</ele><time>2026-04-11T15:20:34Z</time></trkpt><trkpt lat="43.930352662455185" lon="4.510302901119128"><ele>159.0</ele><time>2026-04-11T15:21:17.001Z</time></trkpt><trkpt lat="43.930398383662514" lon="4.510382566214959"><ele>159.0</ele><time>2026-04-11T15:21:24.001Z</time></trkpt><trkpt lat="43.93043295164737" lon="4.510456999907338"><ele>159.0</ele><time>2026-04-11T15:21:37Z</time></trkpt><trkpt lat="43.93049451555922" lon="4.510531467082224"><ele>159.0</ele><time>2026-04-11T15:21:49Z</time></trkpt><trkpt lat="43.930547562836864" lon="4.510600072317472"><ele>159.0</ele><time>2026-04-11T15:21:57Z</time></trkpt><trkpt lat="43.93059170439304" lon="4.510665132079782"><ele>159.0</ele><time>2026-04-11T15:22:00Z</time></trkpt><trkpt lat="43.930644338496876" lon="4.510747579743795"><ele>159.0</ele><time>2026-04-11T15:22:05Z</time></trkpt><trkpt lat="43.93070010008151" lon="4.510855234575955"><ele>159.0</ele><time>2026-04-11T15:22:08Z</time></trkpt><trkpt lat="43.93074596032878" lon="4.510949815886929"><ele>159.0</ele><time>2026-04-11T15:22:11Z</time></trkpt><trkpt lat="43.93082451425626" lon="4.510995197949153"><ele>159.0</ele><time>2026-04-11T15:22:14Z</time></trkpt><trkpt lat="43.930895105029265" lon="4.51104657651196"><ele>159.0</ele><time>2026-04-11T15:22:17Z</time></trkpt><trkpt lat="43.93097270844144" lon="4.511074145805641"><ele>159.0</ele><time>2026-04-11T15:22:22Z</time></trkpt><trkpt lat="43.931041896983466" lon="4.511071784699938"><ele>159.0</ele><time>2026-04-11T15:22:30Z</time></trkpt><trkpt lat="43.93110728177598" lon="4.511076247245673"><ele>160.6</ele><time>2026-04-11T15:22:33Z</time></trkpt><trkpt lat="43.93117308834473" lon="4.51105096622025"><ele>162.2</ele><time>2026-04-11T15:22:35Z</time></trkpt><trkpt lat="43.93125236908469" lon="4.511043936325116"><ele>163.79999999999998</ele><time>2026-04-11T15:22:37Z</time></trkpt><trkpt lat="43.93134385663775" lon="4.511003042647399"><ele>165.4</ele><time>2026-04-11T15:22:39Z</time></trkpt><trkpt lat="43.9314071885645" lon="4.510904731113912"><ele>167.0</ele><time>2026-04-11T15:22:41Z</time></trkpt><trkpt lat="43.93145095889417" lon="4.510752931021274"><ele>167.0</ele><time>2026-04-11T15:22:43Z</time></trkpt><trkpt lat="43.931528609280235" lon="4.510664071151787"><ele>167.0</ele><time>2026-04-11T15:22:45Z</time></trkpt><trkpt lat="43.931583837856365" lon="4.5106061252681595"><ele>167.0</ele><time>2026-04-11T15:22:46Z</time></trkpt><trkpt lat="43.93166986208266" lon="4.510509148175495"><ele>167.0</ele><time>2026-04-11T15:22:48Z</time></trkpt><trkpt lat="43.931738364989194" lon="4.5104527645647465"><ele>167.0</ele><time>2026-04-11T15:22:50Z</time></trkpt><trkpt lat="43.93177760600262" lon="4.510367415284629"><ele>167.0</ele><time>2026-04-11T15:22:51Z</time></trkpt><trkpt lat="43.93182692086757" lon="4.510295500964984"><ele>167.66666666666666</ele><time>2026-04-11T15:22:52Z</time></trkpt><trkpt lat="43.931881680255906" lon="4.510247552081233"><ele>168.33333333333331</ele><time>2026-04-11T15:22:53Z</time></trkpt><trkpt lat="43.93197118005575" lon="4.510155493601277"><ele>169.0</ele><time>2026-04-11T15:22:55Z</time></trkpt><trkpt lat="43.931988075877925" lon="4.51006945211779"><ele>169.66666666666666</ele><time>2026-04-11T15:22:57Z</time></trkpt><trkpt lat="43.931950570395124" lon="4.509997936092101"><ele>170.33333333333334</ele><time>2026-04-11T15:22:59Z</time></trkpt><trkpt lat="43.93191714395086" lon="4.509876411592678"><ele>171.0</ele><time>2026-04-11T15:23:01Z</time></trkpt><trkpt lat="43.93189485610928" lon="4.509735419481219"><ele>171.0</ele><time>2026-04-11T15:23:03Z</time></trkpt><trkpt lat="43.931845913831914" lon="4.509605053848979"><ele>171.0</ele><time>2026-04-11T15:23:05Z</time></trkpt><trkpt lat="43.93180538225771" lon="4.50947694954699"><ele>171.0</ele><time>2026-04-11T15:23:07Z</time></trkpt><trkpt lat="43.931766902284" lon="4.50934749650573"><ele>171.0</ele><time>2026-04-11T15:23:09Z</time></trkpt><trkpt lat="43.93175370878544" lon="4.509242208713355"><ele>171.0</ele><time>2026-04-11T15:23:11Z</time></trkpt><trkpt lat="43.93174387560676" lon="4.509083080496339"><ele>171.20000000000002</ele><time>2026-04-11T15:23:13Z</time></trkpt><trkpt lat="43.93173594578155" lon="4.508990642195306"><ele>171.4</ele><time>2026-04-11T15:23:14Z</time></trkpt><trkpt lat="43.93179504957421" lon="4.508892021850258"><ele>171.6</ele><time>2026-04-11T15:23:15Z</time></trkpt><trkpt lat="43.93179477851124" lon="4.508792201658727"><ele>171.8</ele><time>2026-04-11T15:23:16Z</time></trkpt><trkpt lat="43.93179361009385" lon="4.508687366503166"><ele>172.0</ele><time>2026-04-11T15:23:17.001Z</time></trkpt><trkpt lat="43.93177759884325" lon="4.508478250159735"><ele>172.8</ele><time>2026-04-11T15:23:19.001Z</time></trkpt><trkpt lat="43.9317681630696" lon="4.508348303714081"><ele>173.6</ele><time>2026-04-11T15:23:20.001Z</time></trkpt><trkpt lat="43.931774831024626" lon="4.508214181653384"><ele>174.4</ele><time>2026-04-11T15:23:21.001Z</time></trkpt><trkpt lat="43.93175028686765" lon="4.508077638818066"><ele>175.20000000000002</ele><time>2026-04-11T15:23:22.001Z</time></trkpt><trkpt lat="43.93174635778083" lon="4.507940510665683"><ele>176.0</ele><time>2026-04-11T15:23:23.001Z</time></trkpt><trkpt lat="43.93173621694665" lon="4.5078222152905365"><ele>176.0</ele><time>2026-04-11T15:23:24.001Z</time></trkpt><trkpt lat="43.93172388873106" lon="4.5076961799746655"><ele>176.0</ele><time>2026-04-11T15:23:25.001Z</time></trkpt><trkpt lat="43.9317046275778" lon="4.507560632007229"><ele>176.0</ele><time>2026-04-11T15:23:26.001Z</time></trkpt><trkpt lat="43.93170732085601" lon="4.507408672206659"><ele>176.0</ele><time>2026-04-11T15:23:27.001Z</time></trkpt><trkpt lat="43.931712021075455" lon="4.507251138090995"><ele>176.0</ele><time>2026-04-11T15:23:28.001Z</time></trkpt><trkpt lat="43.93170387178185" lon="4.507085033315801"><ele>176.5</ele><time>2026-04-11T15:23:29.001Z</time></trkpt><trkpt lat="43.93170524984274" lon="4.506914771454599"><ele>177.0</ele><time>2026-04-11T15:23:30.001Z</time></trkpt><trkpt lat="43.93170840691723" lon="4.5067464554240235"><ele>177.5</ele><time>2026-04-11T15:23:31.001Z</time></trkpt><trkpt lat="43.93170538158061" lon="4.506575701491449"><ele>178.0</ele><time>2026-04-11T15:23:32.001Z</time></trkpt><trkpt lat="43.93169290937596" lon="4.506410999435745"><ele>178.0</ele><time>2026-04-11T15:23:33.001Z</time></trkpt><trkpt lat="43.93168841308921" lon="4.506245876900599"><ele>178.0</ele><time>2026-04-11T15:23:34.001Z</time></trkpt><trkpt lat="43.93167846284407" lon="4.506082403804422"><ele>178.0</ele><time>2026-04-11T15:23:35.001Z</time></trkpt><trkpt lat="43.93165710471431" lon="4.505923525399134"><ele>178.0</ele><time>2026-04-11T15:23:36.001Z</time></trkpt><trkpt lat="43.93163593186393" lon="4.505756256973228"><ele>178.75</ele><time>2026-04-11T15:23:37.001Z</time></trkpt><trkpt lat="43.93160790433617" lon="4.50559063415298"><ele>179.5</ele><time>2026-04-11T15:23:38.001Z</time></trkpt><trkpt lat="43.931567725744195" lon="4.505427070974012"><ele>180.25</ele><time>2026-04-11T15:23:39.001Z</time></trkpt><trkpt lat="43.931547174500274" lon="4.505261015432072"><ele>181.0</ele><time>2026-04-11T15:23:40Z</time></trkpt><trkpt lat="43.931515510879514" lon="4.505095935160935"><ele>181.5</ele><time>2026-04-11T15:23:41Z</time></trkpt><trkpt lat="43.931490502574825" lon="4.504931138962585"><ele>182.0</ele><time>2026-04-11T15:23:42Z</time></trkpt><trkpt lat="43.93147346272873" lon="4.504763334722569"><ele>182.5</ele><time>2026-04-11T15:23:43Z</time></trkpt><trkpt lat="43.931444152970045" lon="4.504603018818329"><ele>183.0</ele><time>2026-04-11T15:23:44Z</time></trkpt><trkpt lat="43.93142498520221" lon="4.504444320687762"><ele>184.25</ele><time>2026-04-11T15:23:45Z</time></trkpt><trkpt lat="43.93138709756071" lon="4.504295706760202"><ele>185.5</ele><time>2026-04-11T15:23:46Z</time></trkpt><trkpt lat="43.93135909690009" lon="4.504141352631152"><ele>186.75</ele><time>2026-04-11T15:23:47Z</time></trkpt><trkpt lat="43.93129007140473" lon="4.504003986318213"><ele>188.0</ele><time>2026-04-11T15:23:48Z</time></trkpt><trkpt lat="43.931198104956636" lon="4.503880053406411"><ele>188.0</ele><time>2026-04-11T15:23:49Z</time></trkpt><trkpt lat="43.93110450834857" lon="4.503766175084319"><ele>188.0</ele><time>2026-04-11T15:23:50Z</time></trkpt><trkpt lat="43.93100516909637" lon="4.503657010984411"><ele>188.0</ele><time>2026-04-11T15:23:51Z</time></trkpt><trkpt lat="43.930905881623495" lon="4.50356425405798"><ele>188.0</ele><time>2026-04-11T15:23:52Z</time></trkpt><trkpt lat="43.93079479890979" lon="4.503485741617043"><ele>189.0</ele><time>2026-04-11T15:23:53Z</time></trkpt><trkpt lat="43.93068500702645" lon="4.503419219320377"><ele>190.0</ele><time>2026-04-11T15:23:54Z</time></trkpt><trkpt lat="43.93057386058291" lon="4.503361286710507"><ele>191.0</ele><time>2026-04-11T15:23:55Z</time></trkpt><trkpt lat="43.93045624549335" lon="4.503308557152363"><ele>192.0</ele><time>2026-04-11T15:23:56Z</time></trkpt><trkpt lat="43.930335100518654" lon="4.503264131263965"><ele>192.0</ele><time>2026-04-11T15:23:57Z</time></trkpt><trkpt lat="43.930221347556305" lon="4.50322706654557"><ele>192.0</ele><time>2026-04-11T15:23:58Z</time></trkpt><trkpt lat="43.93010281382503" lon="4.503204480237394"><ele>192.0</ele><time>2026-04-11T15:23:59Z</time></trkpt><trkpt lat="43.929973361904445" lon="4.503225277395481"><ele>192.0</ele><time>2026-04-11T15:24:00Z</time></trkpt><trkpt lat="43.92988437886641" lon="4.503222358888704"><ele>192.2</ele><time>2026-04-11T15:24:01Z</time></trkpt><trkpt lat="43.9297725664252" lon="4.503196723365522"><ele>192.39999999999998</ele><time>2026-04-11T15:24:02Z</time></trkpt><trkpt lat="43.929659857631606" lon="4.5031681658097"><ele>192.60000000000002</ele><time>2026-04-11T15:24:03Z</time></trkpt><trkpt lat="43.929561935690835" lon="4.50314757548718"><ele>192.8</ele><time>2026-04-11T15:24:04Z</time></trkpt><trkpt lat="43.9294625657013" lon="4.503156080492111"><ele>193.0</ele><time>2026-04-11T15:24:05Z</time></trkpt><trkpt lat="43.92936063804109" lon="4.503220520877226"><ele>192.99999999999997</ele><time>2026-04-11T15:24:06Z</time></trkpt><trkpt lat="43.929269558129974" lon="4.503241731853245"><ele>193.0</ele><time>2026-04-11T15:24:07Z</time></trkpt><trkpt lat="43.9291869433863" lon="4.503245367904236"><ele>193.0</ele><time>2026-04-11T15:24:08Z</time></trkpt><trkpt lat="43.929116317933506" lon="4.503236119048821"><ele>193.0</ele><time>2026-04-11T15:24:09Z</time></trkpt><trkpt lat="43.92905638000749" lon="4.503188923636221"><ele>192.99999999999997</ele><time>2026-04-11T15:24:10Z</time></trkpt><trkpt lat="43.92899912586064" lon="4.503125562755832"><ele>193.0</ele><time>2026-04-11T15:24:11Z</time></trkpt><trkpt lat="43.92895707751871" lon="4.503043294826329"><ele>193.60000000000002</ele><time>2026-04-11T15:24:12Z</time></trkpt><trkpt lat="43.92891599994282" lon="4.50293793278445"><ele>194.20000000000002</ele><time>2026-04-11T15:24:13Z</time></trkpt><trkpt lat="43.928884029134736" lon="4.5028082762373725"><ele>194.8</ele><time>2026-04-11T15:24:14Z</time></trkpt><trkpt lat="43.92884171288441" lon="4.5026845592409845"><ele>195.4</ele><time>2026-04-11T15:24:15Z</time></trkpt><trkpt lat="43.928771416247116" lon="4.502555403505637"><ele>196.0</ele><time>2026-04-11T15:24:16Z</time></trkpt><trkpt lat="43.92867820899151" lon="4.502445350975883"><ele>196.75</ele><time>2026-04-11T15:24:17Z</time></trkpt><trkpt lat="43.92855712878156" lon="4.502404212218033"><ele>197.5</ele><time>2026-04-11T15:24:18Z</time></trkpt><trkpt lat="43.9284654951969" lon="4.502334642597291"><ele>198.25</ele><time>2026-04-11T15:24:19Z</time></trkpt><trkpt lat="43.92836655290536" lon="4.50225716344249"><ele>199.0</ele><time>2026-04-11T15:24:20Z</time></trkpt><trkpt lat="43.928265941409265" lon="4.502179621065809"><ele>199.0</ele><time>2026-04-11T15:24:21Z</time></trkpt><trkpt lat="43.92815762543675" lon="4.502096385731019"><ele>199.0</ele><time>2026-04-11T15:24:22Z</time></trkpt><trkpt lat="43.92805808033015" lon="4.502002142164369"><ele>199.0</ele><time>2026-04-11T15:24:23Z</time></trkpt><trkpt lat="43.92796072687911" lon="4.501898785936307"><ele>199.0</ele><time>2026-04-11T15:24:24Z</time></trkpt><trkpt lat="43.927880801765724" lon="4.5017685728832495"><ele>199.0</ele><time>2026-04-11T15:24:25Z</time></trkpt><trkpt lat="43.92778548016603" lon="4.501658042699311"><ele>199.0</ele><time>2026-04-11T15:24:26Z</time></trkpt><trkpt lat="43.92769681172641" lon="4.501556585900004"><ele>199.0</ele><time>2026-04-11T15:24:27Z</time></trkpt><trkpt lat="43.927605865457494" lon="4.501459031388816"><ele>199.0</ele><time>2026-04-11T15:24:28Z</time></trkpt><trkpt lat="43.927514219139866" lon="4.501391655645209"><ele>199.0</ele><time>2026-04-11T15:24:29Z</time></trkpt><trkpt lat="43.92742943197264" lon="4.501298095158749"><ele>199.0</ele><time>2026-04-11T15:24:30Z</time></trkpt><trkpt lat="43.92732859336479" lon="4.501209886179641"><ele>199.0</ele><time>2026-04-11T15:24:31Z</time></trkpt><trkpt lat="43.92724237897273" lon="4.501111812836882"><ele>199.0</ele><time>2026-04-11T15:24:32Z</time></trkpt><trkpt lat="43.92714482956806" lon="4.501015971200152"><ele>199.5</ele><time>2026-04-11T15:24:33Z</time></trkpt><trkpt lat="43.9270368714955" lon="4.500936071604122"><ele>200.0</ele><time>2026-04-11T15:24:34Z</time></trkpt><trkpt lat="43.92693972241539" lon="4.500829463338499"><ele>200.5</ele><time>2026-04-11T15:24:35Z</time></trkpt><trkpt lat="43.92684710179583" lon="4.500737445947013"><ele>201.0</ele><time>2026-04-11T15:24:36Z</time></trkpt><trkpt lat="43.926758608472284" lon="4.500649207494401"><ele>200.8</ele><time>2026-04-11T15:24:37Z</time></trkpt><trkpt lat="43.926681106611305" lon="4.50054908836618"><ele>200.60000000000002</ele><time>2026-04-11T15:24:38Z</time></trkpt><trkpt lat="43.92658580612427" lon="4.500491971348351"><ele>200.4</ele><time>2026-04-11T15:24:39Z</time></trkpt><trkpt lat="43.92649091067998" lon="4.500418057102871"><ele>200.2</ele><time>2026-04-11T15:24:40Z</time></trkpt><trkpt lat="43.92638708531514" lon="4.500350708514526"><ele>200.0</ele><time>2026-04-11T15:24:41Z</time></trkpt><trkpt lat="43.926280281516554" lon="4.500296710012803"><ele>200.0</ele><time>2026-04-11T15:24:42Z</time></trkpt><trkpt lat="43.926163517033146" lon="4.500231400733371"><ele>200.0</ele><time>2026-04-11T15:24:43Z</time></trkpt><trkpt lat="43.926056782235904" lon="4.500147627697628"><ele>200.0</ele><time>2026-04-11T15:24:44Z</time></trkpt><trkpt lat="43.925942500748064" lon="4.5000801195341245"><ele>200.0</ele><time>2026-04-11T15:24:45Z</time></trkpt><trkpt lat="43.92582908777456" lon="4.500008940571415"><ele>199.75</ele><time>2026-04-11T15:24:46Z</time></trkpt><trkpt lat="43.92571826865307" lon="4.499935498713359"><ele>199.5</ele><time>2026-04-11T15:24:47Z</time></trkpt><trkpt lat="43.92561157171351" lon="4.499863518399965"><ele>199.25</ele><time>2026-04-11T15:24:48Z</time></trkpt><trkpt lat="43.92550429574159" lon="4.499786260007361"><ele>199.0</ele><time>2026-04-11T15:24:49Z</time></trkpt><trkpt lat="43.92541213546243" lon="4.4997134581109"><ele>198.99999999999997</ele><time>2026-04-11T15:24:50Z</time></trkpt><trkpt lat="43.925332127165326" lon="4.499650110810619"><ele>199.0</ele><time>2026-04-11T15:24:51Z</time></trkpt><trkpt lat="43.92526612698621" lon="4.499591416610373"><ele>199.0</ele><time>2026-04-11T15:24:52Z</time></trkpt><trkpt lat="43.92519894456937" lon="4.499538714467612"><ele>199.0</ele><time>2026-04-11T15:24:53Z</time></trkpt><trkpt lat="43.92514950672309" lon="4.499443803311513"><ele>198.99999999999997</ele><time>2026-04-11T15:24:54Z</time></trkpt><trkpt lat="43.925125893401606" lon="4.499332276749884"><ele>199.0</ele><time>2026-04-11T15:24:55Z</time></trkpt><trkpt lat="43.925088506631866" lon="4.499237627589065"><ele>198.79999999999998</ele><time>2026-04-11T15:24:56Z</time></trkpt><trkpt lat="43.92502699623634" lon="4.499166850924174"><ele>198.6</ele><time>2026-04-11T15:24:57Z</time></trkpt><trkpt lat="43.92496029546241" lon="4.499095428206697"><ele>198.4</ele><time>2026-04-11T15:24:58Z</time></trkpt><trkpt lat="43.92487437573321" lon="4.499039554829864"><ele>198.2</ele><time>2026-04-11T15:24:59Z</time></trkpt><trkpt lat="43.92478270952434" lon="4.4989860503404095"><ele>198.0</ele><time>2026-04-11T15:25:00Z</time></trkpt><trkpt lat="43.92469389591084" lon="4.498936616555638"><ele>198.0</ele><time>2026-04-11T15:25:01Z</time></trkpt><trkpt lat="43.924599542449585" lon="4.498879151913975"><ele>198.0</ele><time>2026-04-11T15:25:02Z</time></trkpt><trkpt lat="43.924505061581215" lon="4.49881691201693"><ele>198.0</ele><time>2026-04-11T15:25:03Z</time></trkpt><trkpt lat="43.92441947583101" lon="4.498735850757114"><ele>198.0</ele><time>2026-04-11T15:25:04Z</time></trkpt><trkpt lat="43.92432458703295" lon="4.498672139192414"><ele>198.0</ele><time>2026-04-11T15:25:05Z</time></trkpt><trkpt lat="43.924226611704135" lon="4.4986063551241955"><ele>198.0</ele><time>2026-04-11T15:25:06Z</time></trkpt><trkpt lat="43.924130017797765" lon="4.498559176087096"><ele>198.0</ele><time>2026-04-11T15:25:07Z</time></trkpt><trkpt lat="43.924051812855254" lon="4.498504683949567"><ele>198.0</ele><time>2026-04-11T15:25:08Z</time></trkpt><trkpt lat="43.92396711991445" lon="4.4984646304559766"><ele>198.0</ele><time>2026-04-11T15:25:09Z</time></trkpt><trkpt lat="43.92388090726159" lon="4.4984373571386955"><ele>198.0</ele><time>2026-04-11T15:25:10Z</time></trkpt><trkpt lat="43.923791592045944" lon="4.498408448274036"><ele>198.0</ele><time>2026-04-11T15:25:11Z</time></trkpt><trkpt lat="43.923693880362876" lon="4.498364503643534"><ele>198.0</ele><time>2026-04-11T15:25:12Z</time></trkpt><trkpt lat="43.92359957657671" lon="4.498326772983111"><ele>198.0</ele><time>2026-04-11T15:25:13Z</time></trkpt><trkpt lat="43.92351464922693" lon="4.498258779822422"><ele>198.0</ele><time>2026-04-11T15:25:14Z</time></trkpt><trkpt lat="43.92341955933002" lon="4.498205113910247"><ele>198.0</ele><time>2026-04-11T15:25:15Z</time></trkpt><trkpt lat="43.923328901356825" lon="4.498161491198631"><ele>198.0</ele><time>2026-04-11T15:25:16Z</time></trkpt><trkpt lat="43.92322957132837" lon="4.498123648008313"><ele>198.0</ele><time>2026-04-11T15:25:17Z</time></trkpt><trkpt lat="43.923122252350396" lon="4.498105100097446"><ele>198.0</ele><time>2026-04-11T15:25:18Z</time></trkpt><trkpt lat="43.923016137554534" lon="4.498094747680144"><ele>198.0</ele><time>2026-04-11T15:25:19Z</time></trkpt><trkpt lat="43.92291113841034" lon="4.498104714293973"><ele>198.0</ele><time>2026-04-11T15:25:20Z</time></trkpt><trkpt lat="43.92280775543842" lon="4.498093106577767"><ele>198.0</ele><time>2026-04-11T15:25:21Z</time></trkpt><trkpt lat="43.922700055763244" lon="4.498093842894041"><ele>198.0</ele><time>2026-04-11T15:25:22Z</time></trkpt><trkpt lat="43.92260381674909" lon="4.498074616429821"><ele>198.0</ele><time>2026-04-11T15:25:23.001Z</time></trkpt><trkpt lat="43.92249667390851" lon="4.498089423028405"><ele>198.0</ele><time>2026-04-11T15:25:24.001Z</time></trkpt><trkpt lat="43.922382252413804" lon="4.498089747376024"><ele>198.0</ele><time>2026-04-11T15:25:25.001Z</time></trkpt><trkpt lat="43.92226684554243" lon="4.498097920032186"><ele>198.4</ele><time>2026-04-11T15:25:26.001Z</time></trkpt><trkpt lat="43.922160075445504" lon="4.498082242039994"><ele>198.8</ele><time>2026-04-11T15:25:27.001Z</time></trkpt><trkpt lat="43.92206329774634" lon="4.498086100682862"><ele>199.2</ele><time>2026-04-11T15:25:28.001Z</time></trkpt><trkpt lat="43.92195697400535" lon="4.498089533977176"><ele>199.6</ele><time>2026-04-11T15:25:29.001Z</time></trkpt><trkpt lat="43.92185489053206" lon="4.498091211554384"><ele>200.0</ele><time>2026-04-11T15:25:30.001Z</time></trkpt><trkpt lat="43.921754315343094" lon="4.498080661850217"><ele>200.4</ele><time>2026-04-11T15:25:31.001Z</time></trkpt><trkpt lat="43.921657561629424" lon="4.498054071210929"><ele>200.8</ele><time>2026-04-11T15:25:32.001Z</time></trkpt><trkpt lat="43.9215629809512" lon="4.498022327575925"><ele>201.2</ele><time>2026-04-11T15:25:33.001Z</time></trkpt><trkpt lat="43.92146344466552" lon="4.497979833745297"><ele>201.6</ele><time>2026-04-11T15:25:34.001Z</time></trkpt><trkpt lat="43.92135004659891" lon="4.497949383633223"><ele>202.0</ele><time>2026-04-11T15:25:35.001Z</time></trkpt><trkpt lat="43.92124496118613" lon="4.497869591849164"><ele>202.0</ele><time>2026-04-11T15:25:36.001Z</time></trkpt><trkpt lat="43.92113539113102" lon="4.497805580173168"><ele>202.0</ele><time>2026-04-11T15:25:37.001Z</time></trkpt><trkpt lat="43.921030593254" lon="4.497741731101188"><ele>202.0</ele><time>2026-04-11T15:25:38.001Z</time></trkpt><trkpt lat="43.92092603016078" lon="4.497675349371477"><ele>202.0</ele><time>2026-04-11T15:25:39.001Z</time></trkpt><trkpt lat="43.92082145819018" lon="4.497608962050266"><ele>202.39999999999998</ele><time>2026-04-11T15:25:40.001Z</time></trkpt><trkpt lat="43.92071666666637" lon="4.4975424353848155"><ele>202.79999999999998</ele><time>2026-04-11T15:25:41.001Z</time></trkpt><trkpt lat="43.92060942586629" lon="4.4974940787543956"><ele>203.2</ele><time>2026-04-11T15:25:42Z</time></trkpt><trkpt lat="43.92050823064086" lon="4.497443681985142"><ele>203.6</ele><time>2026-04-11T15:25:43Z</time></trkpt><trkpt lat="43.920417554378886" lon="4.4973891195075035"><ele>204.0</ele><time>2026-04-11T15:25:44Z</time></trkpt><trkpt lat="43.92033224267352" lon="4.49734689036539"><ele>204.0</ele><time>2026-04-11T15:25:45Z</time></trkpt><trkpt lat="43.92025753100779" lon="4.497319523764647"><ele>204.0</ele><time>2026-04-11T15:25:46Z</time></trkpt><trkpt lat="43.920152985414745" lon="4.497297609557978"><ele>204.0</ele><time>2026-04-11T15:25:48Z</time></trkpt><trkpt lat="43.92008023199705" lon="4.4972516413855095"><ele>204.0</ele><time>2026-04-11T15:25:51Z</time></trkpt><trkpt lat="43.92016113792849" lon="4.49795783044604"><ele>204.0</ele><time>2026-04-11T15:26:44Z</time></trkpt><trkpt lat="43.92015861269561" lon="4.498052386262893"><ele>204.0</ele><time>2026-04-11T15:26:46Z</time></trkpt><trkpt lat="43.92019202563782" lon="4.498174099611795"><ele>204.0</ele><time>2026-04-11T15:26:48Z</time></trkpt><trkpt lat="43.92018449262893" lon="4.498268654105483"><ele>204.0</ele><time>2026-04-11T15:26:50Z</time></trkpt><trkpt lat="43.92011773901797" lon="4.498353975721334"><ele>204.0</ele><time>2026-04-11T15:26:53Z</time></trkpt><trkpt lat="43.920063912274834" lon="4.498435028758669"><ele>204.0</ele><time>2026-04-11T15:26:55Z</time></trkpt><trkpt lat="43.92002372536208" lon="4.498524002876262"><ele>204.2</ele><time>2026-04-11T15:26:57Z</time></trkpt><trkpt lat="43.920000901361895" lon="4.498630924643355"><ele>204.39999999999998</ele><time>2026-04-11T15:26:59Z</time></trkpt><trkpt lat="43.91995512718253" lon="4.498794193862102"><ele>204.6</ele><time>2026-04-11T15:27:01Z</time></trkpt><trkpt lat="43.91990854654258" lon="4.49894445636312"><ele>204.8</ele><time>2026-04-11T15:27:03Z</time></trkpt><trkpt lat="43.91989439495307" lon="4.4990597544131905"><ele>205.0</ele><time>2026-04-11T15:27:04.999Z</time></trkpt><trkpt lat="43.91990967976267" lon="4.499160998170043"><ele>204.99999999999997</ele><time>2026-04-11T15:27:07.999Z</time></trkpt><trkpt lat="43.91995031734116" lon="4.499286710422255"><ele>205.0</ele><time>2026-04-11T15:27:09.999Z</time></trkpt><trkpt lat="43.91995330800057" lon="4.499410887279244"><ele>205.0</ele><time>2026-04-11T15:27:11.999Z</time></trkpt><trkpt lat="43.9199289684066" lon="4.499506614332142"><ele>205.0</ele><time>2026-04-11T15:27:13.999Z</time></trkpt><trkpt lat="43.919903444711935" lon="4.499595450204279"><ele>204.99999999999997</ele><time>2026-04-11T15:27:16.999Z</time></trkpt><trkpt lat="43.91991220211956" lon="4.499713707923896"><ele>205.0</ele><time>2026-04-11T15:27:19.999Z</time></trkpt><trkpt lat="43.91996133095676" lon="4.4998262323163285"><ele>204.85714285714286</ele><time>2026-04-11T15:27:22.999Z</time></trkpt><trkpt lat="43.91998992031203" lon="4.499932858989467"><ele>204.7142857142857</ele><time>2026-04-11T15:27:24.999Z</time></trkpt><trkpt lat="43.91998020395702" lon="4.500024111673635"><ele>204.57142857142856</ele><time>2026-04-11T15:27:26.999Z</time></trkpt><trkpt lat="43.919999545528405" lon="4.500149327305755"><ele>204.42857142857144</ele><time>2026-04-11T15:27:31.001Z</time></trkpt><trkpt lat="43.92001625106813" lon="4.50024917474705"><ele>204.28571428571428</ele><time>2026-04-11T15:27:33.001Z</time></trkpt><trkpt lat="43.920003734018515" lon="4.500338100815274"><ele>204.14285714285714</ele><time>2026-04-11T15:27:35.001Z</time></trkpt><trkpt lat="43.92005590875466" lon="4.5004017774317155"><ele>204.0</ele><time>2026-04-11T15:27:38.001Z</time></trkpt><trkpt lat="43.92011328568404" lon="4.500458518244189"><ele>203.83333333333334</ele><time>2026-04-11T15:27:41.001Z</time></trkpt><trkpt lat="43.920193644509766" lon="4.500487563734836"><ele>203.66666666666669</ele><time>2026-04-11T15:27:43.001Z</time></trkpt><trkpt lat="43.9202498424809" lon="4.500539003221786"><ele>203.5</ele><time>2026-04-11T15:27:45.001Z</time></trkpt><trkpt lat="43.9203121402913" lon="4.500595343478806"><ele>203.33333333333334</ele><time>2026-04-11T15:27:48Z</time></trkpt><trkpt lat="43.92039545976062" lon="4.50061245590289"><ele>203.16666666666669</ele><time>2026-04-11T15:27:51Z</time></trkpt><trkpt lat="43.92038579144989" lon="4.500722969461007"><ele>203.0</ele><time>2026-04-11T15:27:55Z</time></trkpt><trkpt lat="43.920454822190194" lon="4.50081803157079"><ele>203.00000000000003</ele><time>2026-04-11T15:27:58Z</time></trkpt><trkpt lat="43.92044510750216" lon="4.500908502216011"><ele>203.0</ele><time>2026-04-11T15:28:01Z</time></trkpt><trkpt lat="43.920373726703374" lon="4.500938481003029"><ele>203.0</ele><time>2026-04-11T15:28:04Z</time></trkpt><trkpt lat="43.920310636269846" lon="4.501000541196794"><ele>203.0</ele><time>2026-04-11T15:28:08Z</time></trkpt><trkpt lat="43.92031368264322" lon="4.501112469361604"><ele>203.00000000000003</ele><time>2026-04-11T15:28:11Z</time></trkpt><trkpt lat="43.92038686298812" lon="4.501166512111507"><ele>203.0</ele><time>2026-04-11T15:28:14Z</time></trkpt><trkpt lat="43.92040096002086" lon="4.501271544908535"><ele>202.66666666666669</ele><time>2026-04-11T15:28:17Z</time></trkpt><trkpt lat="43.92046834827715" lon="4.501316934020288"><ele>202.33333333333334</ele><time>2026-04-11T15:28:21Z</time></trkpt><trkpt lat="43.920523519739184" lon="4.501400194817462"><ele>202.0</ele><time>2026-04-11T15:28:25Z</time></trkpt><trkpt lat="43.92057074712608" lon="4.501488971969703"><ele>201.66666666666669</ele><time>2026-04-11T15:28:28Z</time></trkpt><trkpt lat="43.92065981403441" lon="4.501477580285079"><ele>201.33333333333334</ele><time>2026-04-11T15:28:30Z</time></trkpt><trkpt lat="43.92073219022493" lon="4.5014385988070185"><ele>201.0</ele><time>2026-04-11T15:28:32Z</time></trkpt><trkpt lat="43.920786561069704" lon="4.501382101690074"><ele>201.0</ele><time>2026-04-11T15:28:34Z</time></trkpt><trkpt lat="43.92089780195913" lon="4.501346246919092"><ele>201.0</ele><time>2026-04-11T15:28:37Z</time></trkpt><trkpt lat="43.920956068415315" lon="4.501312456593019"><ele>201.0</ele><time>2026-04-11T15:28:38Z</time></trkpt><trkpt lat="43.92102609094175" lon="4.501276063765139"><ele>201.0</ele><time>2026-04-11T15:28:40Z</time></trkpt><trkpt lat="43.92106250462267" lon="4.501420337304859"><ele>201.0</ele><time>2026-04-11T15:28:43Z</time></trkpt><trkpt lat="43.92110967571757" lon="4.501492600781654"><ele>201.0</ele><time>2026-04-11T15:28:45Z</time></trkpt><trkpt lat="43.921146177073005" lon="4.501577736603348"><ele>201.0</ele><time>2026-04-11T15:29:22.999Z</time></trkpt><trkpt lat="43.92108803016303" lon="4.5016928381739545"><ele>201.0</ele><time>2026-04-11T15:29:25.999Z</time></trkpt><trkpt lat="43.92104261937225" lon="4.5017803798067915"><ele>201.0</ele><time>2026-04-11T15:29:27.999Z</time></trkpt><trkpt lat="43.920994384084864" lon="4.5018467480780275"><ele>201.0</ele><time>2026-04-11T15:29:29.999Z</time></trkpt><trkpt lat="43.920938486213636" lon="4.501899245950297"><ele>201.0</ele><time>2026-04-11T15:29:31.999Z</time></trkpt><trkpt lat="43.92089540794182" lon="4.501979436562851"><ele>201.0</ele><time>2026-04-11T15:29:33.999Z</time></trkpt><trkpt lat="43.92080885718167" lon="4.502150259093052"><ele>200.8</ele><time>2026-04-11T15:29:36.001Z</time></trkpt><trkpt lat="43.920746223994456" lon="4.502258377355701"><ele>200.60000000000002</ele><time>2026-04-11T15:29:37.001Z</time></trkpt><trkpt lat="43.92068169705619" lon="4.502378485673938"><ele>200.4</ele><time>2026-04-11T15:29:38.001Z</time></trkpt><trkpt lat="43.9206169673407" lon="4.5025027534876925"><ele>200.2</ele><time>2026-04-11T15:29:39.001Z</time></trkpt><trkpt lat="43.92055636072013" lon="4.502616930894454"><ele>200.0</ele><time>2026-04-11T15:29:40.001Z</time></trkpt><trkpt lat="43.92049653411744" lon="4.502717424886313"><ele>200.00000000000003</ele><time>2026-04-11T15:29:41.001Z</time></trkpt><trkpt lat="43.92044147272306" lon="4.502808034287543"><ele>200.0</ele><time>2026-04-11T15:29:42.001Z</time></trkpt><trkpt lat="43.92037185013086" lon="4.502887333745648"><ele>200.0</ele><time>2026-04-11T15:29:43Z</time></trkpt><trkpt lat="43.92030271865928" lon="4.502956906253446"><ele>200.0</ele><time>2026-04-11T15:29:44Z</time></trkpt><trkpt lat="43.920235293416106" lon="4.5030187712903995"><ele>200.00000000000003</ele><time>2026-04-11T15:29:45Z</time></trkpt><trkpt lat="43.92016733008806" lon="4.5030789108692595"><ele>200.0</ele><time>2026-04-11T15:29:46Z</time></trkpt><trkpt lat="43.92011062920037" lon="4.503136759879923"><ele>200.16666666666669</ele><time>2026-04-11T15:29:47Z</time></trkpt><trkpt lat="43.920053767609815" lon="4.503190632460612"><ele>200.33333333333334</ele><time>2026-04-11T15:29:48Z</time></trkpt><trkpt lat="43.919969639090525" lon="4.503279898678195"><ele>200.5</ele><time>2026-04-11T15:29:50Z</time></trkpt><trkpt lat="43.919917529076066" lon="4.503338166987168"><ele>200.66666666666669</ele><time>2026-04-11T15:29:52Z</time></trkpt><trkpt lat="43.91986268315371" lon="4.50339621162217"><ele>200.83333333333334</ele><time>2026-04-11T15:29:54Z</time></trkpt><trkpt lat="43.91974450802067" lon="4.503430586284016"><ele>201.0</ele><time>2026-04-11T15:29:56Z</time></trkpt><trkpt lat="43.919679521658296" lon="4.503422502324859"><ele>201.0</ele><time>2026-04-11T15:29:57Z</time></trkpt><trkpt lat="43.919594554021394" lon="4.503393629010674"><ele>201.0</ele><time>2026-04-11T15:29:58Z</time></trkpt><trkpt lat="43.91951814300469" lon="4.503295993888942"><ele>201.0</ele><time>2026-04-11T15:29:59Z</time></trkpt><trkpt lat="43.91942672823514" lon="4.503222587531348"><ele>201.0</ele><time>2026-04-11T15:30:00Z</time></trkpt><trkpt lat="43.91934845951338" lon="4.503165918137468"><ele>201.0</ele><time>2026-04-11T15:30:01Z</time></trkpt><trkpt lat="43.91926750681681" lon="4.503084449972568"><ele>201.16666666666666</ele><time>2026-04-11T15:30:02Z</time></trkpt><trkpt lat="43.91921095499221" lon="4.503000640238658"><ele>201.33333333333331</ele><time>2026-04-11T15:30:03Z</time></trkpt><trkpt lat="43.919188093378814" lon="4.502912468722047"><ele>201.5</ele><time>2026-04-11T15:30:04Z</time></trkpt><trkpt lat="43.919125884393644" lon="4.50281976285361"><ele>201.66666666666666</ele><time>2026-04-11T15:30:06Z</time></trkpt><trkpt lat="43.91910048586422" lon="4.5027353803439025"><ele>201.83333333333331</ele><time>2026-04-11T15:30:08Z</time></trkpt><trkpt lat="43.91907150350995" lon="4.502614145492948"><ele>202.0</ele><time>2026-04-11T15:30:11Z</time></trkpt><trkpt lat="43.91905538819395" lon="4.50251404015816"><ele>201.33333333333331</ele><time>2026-04-11T15:30:13Z</time></trkpt><trkpt lat="43.91904043330007" lon="4.5024264352225805"><ele>200.66666666666666</ele><time>2026-04-11T15:30:15Z</time></trkpt><trkpt lat="43.9190222473499" lon="4.502325329829315"><ele>200.0</ele><time>2026-04-11T15:30:18Z</time></trkpt><trkpt lat="43.91899490348957" lon="4.502233775119621"><ele>199.33333333333331</ele><time>2026-04-11T15:30:22Z</time></trkpt><trkpt lat="43.91898188220063" lon="4.502125260933911"><ele>198.66666666666666</ele><time>2026-04-11T15:30:32Z</time></trkpt><trkpt lat="43.91893575850101" lon="4.501953448908631"><ele>198.0</ele><time>2026-04-11T15:30:34Z</time></trkpt><trkpt lat="43.91889722312972" lon="4.501844105265126"><ele>198.0</ele><time>2026-04-11T15:30:35Z</time></trkpt><trkpt lat="43.91882793196685" lon="4.50175378726483"><ele>198.0</ele><time>2026-04-11T15:30:36Z</time></trkpt><trkpt lat="43.91875508539542" lon="4.501658845376131"><ele>198.0</ele><time>2026-04-11T15:30:37Z</time></trkpt><trkpt lat="43.918672933909974" lon="4.501576713599355"><ele>198.0</ele><time>2026-04-11T15:30:38Z</time></trkpt><trkpt lat="43.918586335413046" lon="4.501506318444736"><ele>198.0</ele><time>2026-04-11T15:30:39Z</time></trkpt><trkpt lat="43.918506795767264" lon="4.5014256204010215"><ele>198.0</ele><time>2026-04-11T15:30:40Z</time></trkpt><trkpt lat="43.918424066344706" lon="4.50135024315834"><ele>198.0</ele><time>2026-04-11T15:30:41Z</time></trkpt><trkpt lat="43.91834966015753" lon="4.501262642309994"><ele>198.0</ele><time>2026-04-11T15:30:42Z</time></trkpt><trkpt lat="43.918263569805355" lon="4.501186008648542"><ele>198.0</ele><time>2026-04-11T15:30:43Z</time></trkpt><trkpt lat="43.91818157789762" lon="4.50110713266141"><ele>198.0</ele><time>2026-04-11T15:30:44Z</time></trkpt><trkpt lat="43.91809972616891" lon="4.501022349571139"><ele>198.4</ele><time>2026-04-11T15:30:44.999Z</time></trkpt><trkpt lat="43.918021054023335" lon="4.500929043082989"><ele>198.8</ele><time>2026-04-11T15:30:45.999Z</time></trkpt><trkpt lat="43.91794133978035" lon="4.500849449881635"><ele>199.2</ele><time>2026-04-11T15:30:46.999Z</time></trkpt><trkpt lat="43.91785256797882" lon="4.5007724275045184"><ele>199.6</ele><time>2026-04-11T15:30:47.999Z</time></trkpt><trkpt lat="43.9177697932582" lon="4.500693655591534"><ele>200.0</ele><time>2026-04-11T15:30:48.999Z</time></trkpt><trkpt lat="43.91768711183842" lon="4.500610107265027"><ele>200.0</ele><time>2026-04-11T15:30:49.999Z</time></trkpt><trkpt lat="43.91760207524228" lon="4.500530559833363"><ele>200.0</ele><time>2026-04-11T15:30:50.999Z</time></trkpt><trkpt lat="43.91751625960212" lon="4.500454420656847"><ele>200.0</ele><time>2026-04-11T15:30:51.999Z</time></trkpt><trkpt lat="43.91742836167008" lon="4.5003815841550505"><ele>200.0</ele><time>2026-04-11T15:30:52.999Z</time></trkpt><trkpt lat="43.91734095524655" lon="4.5003079528935235"><ele>200.0</ele><time>2026-04-11T15:30:53.999Z</time></trkpt><trkpt lat="43.91725716733978" lon="4.5002289890553335"><ele>200.2</ele><time>2026-04-11T15:30:54.999Z</time></trkpt><trkpt lat="43.917170104174275" lon="4.500154332511737"><ele>200.4</ele><time>2026-04-11T15:30:55.999Z</time></trkpt><trkpt lat="43.9170769796988" lon="4.500085605615856"><ele>200.60000000000002</ele><time>2026-04-11T15:30:56.999Z</time></trkpt><trkpt lat="43.91699118423441" lon="4.500004853922571"><ele>200.8</ele><time>2026-04-11T15:30:57.999Z</time></trkpt><trkpt lat="43.916911966304546" lon="4.499932270895271"><ele>201.0</ele><time>2026-04-11T15:30:58.999Z</time></trkpt><trkpt lat="43.91683444497353" lon="4.499864500697756"><ele>201.0</ele><time>2026-04-11T15:30:59.999Z</time></trkpt><trkpt lat="43.916773885717625" lon="4.499777809556112"><ele>201.0</ele><time>2026-04-11T15:31:00.999Z</time></trkpt><trkpt lat="43.9167067095395" lon="4.499720077084043"><ele>201.0</ele><time>2026-04-11T15:31:01.999Z</time></trkpt><trkpt lat="43.916689646406475" lon="4.499609324496401"><ele>201.0</ele><time>2026-04-11T15:31:02.999Z</time></trkpt><trkpt lat="43.91669006681896" lon="4.499493848407226"><ele>201.0</ele><time>2026-04-11T15:31:03.999Z</time></trkpt><trkpt lat="43.916674036520355" lon="4.499369186259238"><ele>201.0</ele><time>2026-04-11T15:31:04.999Z</time></trkpt><trkpt lat="43.91664501716951" lon="4.499248232757935"><ele>201.0</ele><time>2026-04-11T15:31:05.999Z</time></trkpt><trkpt lat="43.91663395485817" lon="4.499133764364814"><ele>201.0</ele><time>2026-04-11T15:31:06.999Z</time></trkpt><trkpt lat="43.91661026792983" lon="4.499028963467583"><ele>201.0</ele><time>2026-04-11T15:31:07.999Z</time></trkpt><trkpt lat="43.916570466733255" lon="4.498938784780974"><ele>201.0</ele><time>2026-04-11T15:31:08.999Z</time></trkpt><trkpt lat="43.916523202398295" lon="4.498860635164317"><ele>201.0</ele><time>2026-04-11T15:31:09.999Z</time></trkpt><trkpt lat="43.916463576238215" lon="4.498731517504324"><ele>201.0</ele><time>2026-04-11T15:31:11.999Z</time></trkpt><trkpt lat="43.91640728383707" lon="4.498691028773404"><ele>200.66666666666666</ele><time>2026-04-11T15:31:13.999Z</time></trkpt><trkpt lat="43.91630636534669" lon="4.498598071989941"><ele>200.33333333333331</ele><time>2026-04-11T15:31:15.999Z</time></trkpt><trkpt lat="43.91625733656313" lon="4.4985211067001565"><ele>200.0</ele><time>2026-04-11T15:31:16.999Z</time></trkpt><trkpt lat="43.91618519667151" lon="4.498468969755644"><ele>199.66666666666666</ele><time>2026-04-11T15:31:17.999Z</time></trkpt><trkpt lat="43.91612485972503" lon="4.498402722635474"><ele>199.33333333333331</ele><time>2026-04-11T15:31:18.999Z</time></trkpt><trkpt lat="43.91605820527589" lon="4.498333116584826"><ele>199.0</ele><time>2026-04-11T15:31:19.999Z</time></trkpt><trkpt lat="43.91599991202952" lon="4.498238067883594"><ele>198.99999999999997</ele><time>2026-04-11T15:31:20.999Z</time></trkpt><trkpt lat="43.91592847104401" lon="4.498180306573119"><ele>199.0</ele><time>2026-04-11T15:31:21.999Z</time></trkpt><trkpt lat="43.915864426315245" lon="4.498116100752287"><ele>199.0</ele><time>2026-04-11T15:31:22.999Z</time></trkpt><trkpt lat="43.91581056486021" lon="4.4980267889905745"><ele>199.0</ele><time>2026-04-11T15:31:23.999Z</time></trkpt><trkpt lat="43.91577471907457" lon="4.497905924776465"><ele>198.99999999999997</ele><time>2026-04-11T15:31:24.999Z</time></trkpt><trkpt lat="43.915710543029085" lon="4.497830397559356"><ele>199.0</ele><time>2026-04-11T15:31:25.999Z</time></trkpt><trkpt lat="43.9156620912884" lon="4.497751003954767"><ele>198.49999999999997</ele><time>2026-04-11T15:31:26.999Z</time></trkpt><trkpt lat="43.91561666849582" lon="4.497640983046044"><ele>198.0</ele><time>2026-04-11T15:31:27.999Z</time></trkpt><trkpt lat="43.915562030486505" lon="4.497586565899052"><ele>197.5</ele><time>2026-04-11T15:31:28.999Z</time></trkpt><trkpt lat="43.91549969755257" lon="4.49753253357343"><ele>197.0</ele><time>2026-04-11T15:31:29.999Z</time></trkpt><trkpt lat="43.9154226115159" lon="4.497489307829545"><ele>196.49999999999997</ele><time>2026-04-11T15:31:30.999Z</time></trkpt><trkpt lat="43.915360364013274" lon="4.497406688355835"><ele>196.0</ele><time>2026-04-11T15:31:31.999Z</time></trkpt><trkpt lat="43.91530927523979" lon="4.49732697009925"><ele>195.99999999999997</ele><time>2026-04-11T15:31:32.999Z</time></trkpt><trkpt lat="43.91527186935099" lon="4.497240177250322"><ele>196.0</ele><time>2026-04-11T15:31:33.999Z</time></trkpt><trkpt lat="43.91521605939177" lon="4.497158750024623"><ele>196.0</ele><time>2026-04-11T15:31:34.999Z</time></trkpt><trkpt lat="43.91516202236932" lon="4.497058180836274"><ele>196.0</ele><time>2026-04-11T15:31:35.999Z</time></trkpt><trkpt lat="43.915101230959166" lon="4.496964923848671"><ele>195.99999999999997</ele><time>2026-04-11T15:31:36.999Z</time></trkpt><trkpt lat="43.91503350579858" lon="4.496863442642574"><ele>196.0</ele><time>2026-04-11T15:31:37.999Z</time></trkpt><trkpt lat="43.91496037087922" lon="4.496755708622501"><ele>195.8</ele><time>2026-04-11T15:31:38.999Z</time></trkpt><trkpt lat="43.914885673715204" lon="4.496649105582654"><ele>195.60000000000002</ele><time>2026-04-11T15:31:39.999Z</time></trkpt><trkpt lat="43.91481066052376" lon="4.496566616953434"><ele>195.4</ele><time>2026-04-11T15:31:41Z</time></trkpt><trkpt lat="43.91472663811192" lon="4.496486271540814"><ele>195.2</ele><time>2026-04-11T15:31:42Z</time></trkpt><trkpt lat="43.91463486421521" lon="4.4964024029035485"><ele>195.0</ele><time>2026-04-11T15:31:43Z</time></trkpt><trkpt lat="43.914538834854945" lon="4.496326612279242"><ele>195.0</ele><time>2026-04-11T15:31:44Z</time></trkpt><trkpt lat="43.914455813613095" lon="4.496276266523968"><ele>195.0</ele><time>2026-04-11T15:31:45Z</time></trkpt><trkpt lat="43.91437376683209" lon="4.49623900819598"><ele>195.0</ele><time>2026-04-11T15:31:46Z</time></trkpt><trkpt lat="43.91430084039097" lon="4.4961923140003535"><ele>195.0</ele><time>2026-04-11T15:31:47Z</time></trkpt><trkpt lat="43.91424055666906" lon="4.496100345462389"><ele>195.0</ele><time>2026-04-11T15:31:48Z</time></trkpt><trkpt lat="43.91416403674879" lon="4.496046907917889"><ele>195.0</ele><time>2026-04-11T15:31:49Z</time></trkpt><trkpt lat="43.91410022957463" lon="4.4959732978240075"><ele>194.66666666666666</ele><time>2026-04-11T15:31:50Z</time></trkpt><trkpt lat="43.914026405864206" lon="4.495922670762524"><ele>194.33333333333331</ele><time>2026-04-11T15:31:51Z</time></trkpt><trkpt lat="43.91394869233504" lon="4.495887014936837"><ele>194.0</ele><time>2026-04-11T15:31:52Z</time></trkpt><trkpt lat="43.91387250013422" lon="4.495865332991047"><ele>193.66666666666666</ele><time>2026-04-11T15:31:53Z</time></trkpt><trkpt lat="43.91380076104124" lon="4.495853888888516"><ele>193.33333333333331</ele><time>2026-04-11T15:31:54Z</time></trkpt><trkpt lat="43.91373337185319" lon="4.495864666269298"><ele>193.0</ele><time>2026-04-11T15:31:55Z</time></trkpt><trkpt lat="43.91366749119039" lon="4.495898014359729"><ele>192.99999999999997</ele><time>2026-04-11T15:31:56Z</time></trkpt><trkpt lat="43.913609375619124" lon="4.495963316815303"><ele>193.0</ele><time>2026-04-11T15:31:57Z</time></trkpt><trkpt lat="43.913557727722875" lon="4.496061452205103"><ele>193.0</ele><time>2026-04-11T15:31:58Z</time></trkpt><trkpt lat="43.91349612140792" lon="4.4961415213031115"><ele>193.0</ele><time>2026-04-11T15:31:59Z</time></trkpt><trkpt lat="43.913439571716076" lon="4.496213308784884"><ele>192.99999999999997</ele><time>2026-04-11T15:32:00Z</time></trkpt><trkpt lat="43.913382937425176" lon="4.496260357569714"><ele>193.0</ele><time>2026-04-11T15:32:01Z</time></trkpt><trkpt lat="43.913279869730985" lon="4.496261229601088"><ele>192.0</ele><time>2026-04-11T15:32:03Z</time></trkpt><trkpt lat="43.913158916175156" lon="4.496230774549518"><ele>191.0</ele><time>2026-04-11T15:32:05Z</time></trkpt><trkpt lat="43.91304607512178" lon="4.496203079311071"><ele>190.0</ele><time>2026-04-11T15:32:07Z</time></trkpt><trkpt lat="43.91300353812611" lon="4.496324995219816"><ele>189.0</ele><time>2026-04-11T15:32:08Z</time></trkpt><trkpt lat="43.9129288718024" lon="4.496435740015657"><ele>188.0</ele><time>2026-04-11T15:32:10Z</time></trkpt><trkpt lat="43.91280964213466" lon="4.496404753849452"><ele>187.5</ele><time>2026-04-11T15:32:12Z</time></trkpt><trkpt lat="43.9127499713642" lon="4.496362616386558"><ele>187.0</ele><time>2026-04-11T15:32:13Z</time></trkpt><trkpt lat="43.91268313728501" lon="4.4963640587425555"><ele>186.5</ele><time>2026-04-11T15:32:14Z</time></trkpt><trkpt lat="43.91262392570368" lon="4.496412789608239"><ele>186.0</ele><time>2026-04-11T15:32:15Z</time></trkpt><trkpt lat="43.91251073908225" lon="4.49645613030946"><ele>185.5</ele><time>2026-04-11T15:32:17Z</time></trkpt><trkpt lat="43.91244069019493" lon="4.4964189193232"><ele>185.0</ele><time>2026-04-11T15:32:18Z</time></trkpt><trkpt lat="43.91236311590048" lon="4.496376000902593"><ele>184.6</ele><time>2026-04-11T15:32:19Z</time></trkpt><trkpt lat="43.91227674449485" lon="4.496345388766986"><ele>184.2</ele><time>2026-04-11T15:32:20Z</time></trkpt><trkpt lat="43.91218651796858" lon="4.496324358175191"><ele>183.8</ele><time>2026-04-11T15:32:21Z</time></trkpt><trkpt lat="43.91212160617123" lon="4.496289783372182"><ele>183.4</ele><time>2026-04-11T15:32:22Z</time></trkpt><trkpt lat="43.91203131807356" lon="4.496199983379621"><ele>183.0</ele><time>2026-04-11T15:32:24Z</time></trkpt><trkpt lat="43.91194166273458" lon="4.496210565351253"><ele>182.60000000000002</ele><time>2026-04-11T15:32:26Z</time></trkpt><trkpt lat="43.911897773857305" lon="4.496339572027926"><ele>182.20000000000002</ele><time>2026-04-11T15:32:28Z</time></trkpt><trkpt lat="43.9118924597631" lon="4.49647542725332"><ele>181.8</ele><time>2026-04-11T15:32:30Z</time></trkpt><trkpt lat="43.91178433036403" lon="4.496503318663762"><ele>181.4</ele><time>2026-04-11T15:32:32Z</time></trkpt><trkpt lat="43.911700303975195" lon="4.496488551878175"><ele>181.0</ele><time>2026-04-11T15:32:34Z</time></trkpt><trkpt lat="43.91160660485247" lon="4.49648448362053"><ele>180.16666666666669</ele><time>2026-04-11T15:32:36Z</time></trkpt><trkpt lat="43.91152682301059" lon="4.496541934852573"><ele>179.33333333333334</ele><time>2026-04-11T15:32:38Z</time></trkpt><trkpt lat="43.91147615424045" lon="4.496624277216626"><ele>178.5</ele><time>2026-04-11T15:32:40Z</time></trkpt><trkpt lat="43.911447646111384" lon="4.496702389119022"><ele>177.66666666666666</ele><time>2026-04-11T15:32:42Z</time></trkpt><trkpt lat="43.911411636214304" lon="4.496790411179385"><ele>176.83333333333331</ele><time>2026-04-11T15:32:43.999Z</time></trkpt><trkpt lat="43.911319301289055" lon="4.496762358580975"><ele>176.0</ele><time>2026-04-11T15:33:25.999Z</time></trkpt><trkpt lat="43.911283189333965" lon="4.496620103696368"><ele>176.0</ele><time>2026-04-11T15:33:27.999Z</time></trkpt><trkpt lat="43.911244657506444" lon="4.496462983561047"><ele>176.0</ele><time>2026-04-11T15:33:29.999Z</time></trkpt><trkpt lat="43.911202502285455" lon="4.496327874741594"><ele>176.0</ele><time>2026-04-11T15:33:31.999Z</time></trkpt><trkpt lat="43.91119248094912" lon="4.496227532857058"><ele>176.0</ele><time>2026-04-11T15:33:33.999Z</time></trkpt><trkpt lat="43.91120188653593" lon="4.496109163653964"><ele>176.0</ele><time>2026-04-11T15:33:35.999Z</time></trkpt><trkpt lat="43.91122851692888" lon="4.495961940370207"><ele>176.33333333333331</ele><time>2026-04-11T15:33:37.999Z</time></trkpt><trkpt lat="43.91123266344764" lon="4.495873545079877"><ele>176.66666666666666</ele><time>2026-04-11T15:33:38.999Z</time></trkpt><trkpt lat="43.91122273306659" lon="4.495727830503564"><ele>177.0</ele><time>2026-04-11T15:33:40.999Z</time></trkpt><trkpt lat="43.91123594925598" lon="4.495606579883332"><ele>177.33333333333334</ele><time>2026-04-11T15:33:43.999Z</time></trkpt><trkpt lat="43.91121667088979" lon="4.495507218841254"><ele>177.66666666666669</ele><time>2026-04-11T15:33:45.999Z</time></trkpt><trkpt lat="43.91118249011111" lon="4.495405732769471"><ele>178.0</ele><time>2026-04-11T15:33:48Z</time></trkpt><trkpt lat="43.911132266686145" lon="4.4952864832300685"><ele>178.0</ele><time>2026-04-11T15:33:50Z</time></trkpt><trkpt lat="43.911060592878314" lon="4.495141126507671"><ele>178.0</ele><time>2026-04-11T15:33:52Z</time></trkpt><trkpt lat="43.91102027321374" lon="4.495060493213219"><ele>178.0</ele><time>2026-04-11T15:33:53Z</time></trkpt><trkpt lat="43.91099219198998" lon="4.494981232517258"><ele>178.0</ele><time>2026-04-11T15:33:54Z</time></trkpt><trkpt lat="43.910970020271876" lon="4.494898876781737"><ele>178.0</ele><time>2026-04-11T15:33:56Z</time></trkpt><trkpt lat="43.91101251680801" lon="4.494795619467555"><ele>178.0</ele><time>2026-04-11T15:34:00Z</time></trkpt><trkpt lat="43.91107349908581" lon="4.494727664725294"><ele>178.0</ele><time>2026-04-11T15:34:02Z</time></trkpt><trkpt lat="43.911135855158776" lon="4.494678065996164"><ele>178.0</ele><time>2026-04-11T15:34:04Z</time></trkpt><trkpt lat="43.91124149715752" lon="4.4946052314404"><ele>178.0</ele><time>2026-04-11T15:34:06Z</time></trkpt><trkpt lat="43.91129769694036" lon="4.494560882763045"><ele>178.0</ele><time>2026-04-11T15:34:07Z</time></trkpt><trkpt lat="43.91136102019519" lon="4.4945001250076695"><ele>178.0</ele><time>2026-04-11T15:34:08Z</time></trkpt><trkpt lat="43.91144063728175" lon="4.494414752238513"><ele>178.0</ele><time>2026-04-11T15:34:09Z</time></trkpt><trkpt lat="43.91151968732268" lon="4.494335970387049"><ele>178.0</ele><time>2026-04-11T15:34:10Z</time></trkpt><trkpt lat="43.91160269523325" lon="4.494273500872833"><ele>178.0</ele><time>2026-04-11T15:34:11Z</time></trkpt><trkpt lat="43.911674614251545" lon="4.494212718352778"><ele>178.0</ele><time>2026-04-11T15:34:12Z</time></trkpt><trkpt lat="43.91173460463528" lon="4.494160374682188"><ele>178.0</ele><time>2026-04-11T15:34:13Z</time></trkpt><trkpt lat="43.91178694156407" lon="4.494102816373749"><ele>178.0</ele><time>2026-04-11T15:34:14Z</time></trkpt><trkpt lat="43.911832575054376" lon="4.494042196501505"><ele>178.0</ele><time>2026-04-11T15:34:15Z</time></trkpt><trkpt lat="43.91190635183069" lon="4.493942368967908"><ele>178.0</ele><time>2026-04-11T15:34:17Z</time></trkpt><trkpt lat="43.91183123498078" lon="4.494040721472642"><ele>178.0</ele><time>2026-04-11T15:37:42.999Z</time></trkpt><trkpt lat="43.91177135300669" lon="4.494108505797296"><ele>178.0</ele><time>2026-04-11T15:38:00Z</time></trkpt><trkpt lat="43.911700543963505" lon="4.494180898183966"><ele>178.0</ele><time>2026-04-11T15:38:02Z</time></trkpt><trkpt lat="43.911643958911796" lon="4.49424105602473"><ele>178.0</ele><time>2026-04-11T15:38:03Z</time></trkpt><trkpt lat="43.91157695066793" lon="4.4943026074101295"><ele>178.0</ele><time>2026-04-11T15:38:04Z</time></trkpt><trkpt lat="43.91150720954312" lon="4.494363523031326"><ele>177.99999999999997</ele><time>2026-04-11T15:38:05Z</time></trkpt><trkpt lat="43.911441035754635" lon="4.494416281723897"><ele>178.0</ele><time>2026-04-11T15:38:06Z</time></trkpt><trkpt lat="43.9113790551988" lon="4.494467733181321"><ele>178.0</ele><time>2026-04-11T15:38:07Z</time></trkpt><trkpt lat="43.91132313181914" lon="4.494526404775869"><ele>178.0</ele><time>2026-04-11T15:38:08Z</time></trkpt><trkpt lat="43.91127003027011" lon="4.494597793921033"><ele>178.0</ele><time>2026-04-11T15:38:09Z</time></trkpt><trkpt lat="43.91121478628401" lon="4.494657610014023"><ele>177.99999999999997</ele><time>2026-04-11T15:38:10Z</time></trkpt><trkpt lat="43.911155792452575" lon="4.494712370139585"><ele>178.0</ele><time>2026-04-11T15:38:11Z</time></trkpt><trkpt lat="43.911083058234624" lon="4.494704521976767"><ele>178.0</ele><time>2026-04-11T15:38:12Z</time></trkpt><trkpt lat="43.9110078219461" lon="4.494763313386876"><ele>178.0</ele><time>2026-04-11T15:38:14Z</time></trkpt><trkpt lat="43.91094747600652" lon="4.494795944222227"><ele>178.0</ele><time>2026-04-11T15:38:16Z</time></trkpt><trkpt lat="43.91101816066921" lon="4.495066922646986"><ele>178.0</ele><time>2026-04-11T15:38:18Z</time></trkpt><trkpt lat="43.911060044864" lon="4.495169486672023"><ele>178.0</ele><time>2026-04-11T15:38:19Z</time></trkpt><trkpt lat="43.91111034363991" lon="4.495280608309356"><ele>178.0</ele><time>2026-04-11T15:38:20Z</time></trkpt><trkpt lat="43.91116091623805" lon="4.49537444858954"><ele>178.0</ele><time>2026-04-11T15:38:21Z</time></trkpt><trkpt lat="43.91120027030001" lon="4.495467046125479"><ele>178.0</ele><time>2026-04-11T15:38:22Z</time></trkpt><trkpt lat="43.91122578579854" lon="4.495575406663681"><ele>178.0</ele><time>2026-04-11T15:38:23Z</time></trkpt><trkpt lat="43.91121558917411" lon="4.495674050668778"><ele>178.0</ele><time>2026-04-11T15:38:24Z</time></trkpt><trkpt lat="43.911202819161524" lon="4.495777693101165"><ele>178.0</ele><time>2026-04-11T15:38:25Z</time></trkpt><trkpt lat="43.911189995666035" lon="4.495870134623029"><ele>178.0</ele><time>2026-04-11T15:38:26Z</time></trkpt><trkpt lat="43.91118428404855" lon="4.4959615963456265"><ele>178.0</ele><time>2026-04-11T15:38:27Z</time></trkpt><trkpt lat="43.91118826086745" lon="4.4960627620231985"><ele>178.0</ele><time>2026-04-11T15:38:28Z</time></trkpt><trkpt lat="43.91118645560775" lon="4.496174289961962"><ele>178.0</ele><time>2026-04-11T15:38:29Z</time></trkpt><trkpt lat="43.91118981182357" lon="4.496281423578775"><ele>178.0</ele><time>2026-04-11T15:38:30Z</time></trkpt><trkpt lat="43.91121307971211" lon="4.496381656200468"><ele>178.0</ele><time>2026-04-11T15:38:31Z</time></trkpt><trkpt lat="43.91125492951231" lon="4.496494511937571"><ele>177.60000000000002</ele><time>2026-04-11T15:38:32Z</time></trkpt><trkpt lat="43.911301639080946" lon="4.496629298868791"><ele>177.20000000000002</ele><time>2026-04-11T15:38:33Z</time></trkpt><trkpt lat="43.91134050748548" lon="4.496764445743675"><ele>176.8</ele><time>2026-04-11T15:38:34Z</time></trkpt><trkpt lat="43.91137211893875" lon="4.4968863092929645"><ele>176.4</ele><time>2026-04-11T15:38:35Z</time></trkpt><trkpt lat="43.9114157542833" lon="4.496997425542874"><ele>176.0</ele><time>2026-04-11T15:38:36Z</time></trkpt><trkpt lat="43.91145989373943" lon="4.497103244809701"><ele>174.85714285714286</ele><time>2026-04-11T15:38:37Z</time></trkpt><trkpt lat="43.91149974703705" lon="4.4972002886917455"><ele>173.71428571428572</ele><time>2026-04-11T15:38:38Z</time></trkpt><trkpt lat="43.91153258969441" lon="4.497300429002099"><ele>172.57142857142856</ele><time>2026-04-11T15:38:39Z</time></trkpt><trkpt lat="43.91155990502767" lon="4.497400084565773"><ele>171.42857142857144</ele><time>2026-04-11T15:38:40Z</time></trkpt><trkpt lat="43.91157978347577" lon="4.497486579969826"><ele>170.28571428571428</ele><time>2026-04-11T15:38:41Z</time></trkpt><trkpt lat="43.911598801953666" lon="4.497573718029702"><ele>169.14285714285714</ele><time>2026-04-11T15:38:42Z</time></trkpt><trkpt lat="43.91161865110939" lon="4.497665855439772"><ele>168.0</ele><time>2026-04-11T15:38:43Z</time></trkpt><trkpt lat="43.91164224655492" lon="4.497757300571235"><ele>168.0</ele><time>2026-04-11T15:38:44Z</time></trkpt><trkpt lat="43.911712212663815" lon="4.497893147578049"><ele>168.0</ele><time>2026-04-11T15:38:46Z</time></trkpt><trkpt lat="43.9117782646135" lon="4.497928845642512"><ele>168.0</ele><time>2026-04-11T15:38:46.999Z</time></trkpt><trkpt lat="43.91183520268572" lon="4.497984728934112"><ele>168.0</ele><time>2026-04-11T15:38:47.999Z</time></trkpt><trkpt lat="43.911893832691426" lon="4.498041736613557"><ele>168.0</ele><time>2026-04-11T15:38:48.999Z</time></trkpt><trkpt lat="43.91196055607519" lon="4.4980834478325225"><ele>168.0</ele><time>2026-04-11T15:38:49.999Z</time></trkpt><trkpt lat="43.912028727138065" lon="4.498113220056091"><ele>168.2</ele><time>2026-04-11T15:38:50.999Z</time></trkpt><trkpt lat="43.91214702317481" lon="4.498112660447931"><ele>168.4</ele><time>2026-04-11T15:38:52.999Z</time></trkpt><trkpt lat="43.9122367331553" lon="4.498134027135456"><ele>168.6</ele><time>2026-04-11T15:38:54.999Z</time></trkpt><trkpt lat="43.912260303843325" lon="4.498222704673836"><ele>168.79999999999998</ele><time>2026-04-11T15:38:56.999Z</time></trkpt><trkpt lat="43.91221612682388" lon="4.498337694219932"><ele>169.0</ele><time>2026-04-11T15:38:58.999Z</time></trkpt><trkpt lat="43.91216651347038" lon="4.4984261437657596"><ele>169.0</ele><time>2026-04-11T15:38:59.999Z</time></trkpt><trkpt lat="43.91209096503312" lon="4.498514081871048"><ele>169.0</ele><time>2026-04-11T15:39:00.999Z</time></trkpt><trkpt lat="43.91200343573462" lon="4.4985966863223"><ele>169.0</ele><time>2026-04-11T15:39:01.999Z</time></trkpt><trkpt lat="43.91190905959619" lon="4.498664338268732"><ele>169.0</ele><time>2026-04-11T15:39:02.999Z</time></trkpt><trkpt lat="43.911812316448675" lon="4.498709045611799"><ele>169.0</ele><time>2026-04-11T15:39:03.999Z</time></trkpt><trkpt lat="43.91172247703927" lon="4.498741567202956"><ele>166.79999999999998</ele><time>2026-04-11T15:39:04.999Z</time></trkpt><trkpt lat="43.9116311137163" lon="4.4987690597885415"><ele>164.6</ele><time>2026-04-11T15:39:05.999Z</time></trkpt><trkpt lat="43.911539433695246" lon="4.498787722490377"><ele>162.4</ele><time>2026-04-11T15:39:06.999Z</time></trkpt><trkpt lat="43.91144222854452" lon="4.498794264794381"><ele>160.2</ele><time>2026-04-11T15:39:07.999Z</time></trkpt><trkpt lat="43.911343006498" lon="4.498818699783704"><ele>158.0</ele><time>2026-04-11T15:39:08.999Z</time></trkpt><trkpt lat="43.911241212300325" lon="4.498889396145915"><ele>158.0</ele><time>2026-04-11T15:39:09.999Z</time></trkpt><trkpt lat="43.91113841818212" lon="4.498982647258781"><ele>158.0</ele><time>2026-04-11T15:39:10.999Z</time></trkpt><trkpt lat="43.9110362285502" lon="4.499065415913486"><ele>158.0</ele><time>2026-04-11T15:39:11.999Z</time></trkpt><trkpt lat="43.910919778626486" lon="4.499112443947703"><ele>158.0</ele><time>2026-04-11T15:39:12.999Z</time></trkpt><trkpt lat="43.91079535628679" lon="4.499131640104844"><ele>156.20000000000002</ele><time>2026-04-11T15:39:13.999Z</time></trkpt><trkpt lat="43.910676898730834" lon="4.499133137869574"><ele>154.4</ele><time>2026-04-11T15:39:14.999Z</time></trkpt><trkpt lat="43.910566712095296" lon="4.499123880551859"><ele>152.60000000000002</ele><time>2026-04-11T15:39:15.999Z</time></trkpt><trkpt lat="43.910475862179254" lon="4.499170004707489"><ele>150.8</ele><time>2026-04-11T15:39:16.999Z</time></trkpt><trkpt lat="43.91041141010357" lon="4.499273802638918"><ele>149.0</ele><time>2026-04-11T15:39:17.999Z</time></trkpt><trkpt lat="43.91037045229838" lon="4.499383149010838"><ele>149.0</ele><time>2026-04-11T15:39:18.999Z</time></trkpt><trkpt lat="43.91035203961583" lon="4.499507507626902"><ele>149.0</ele><time>2026-04-11T15:39:19.999Z</time></trkpt><trkpt lat="43.91035473463845" lon="4.499647939774989"><ele>149.0</ele><time>2026-04-11T15:39:20.999Z</time></trkpt><trkpt lat="43.910372603420875" lon="4.49980396194117"><ele>149.0</ele><time>2026-04-11T15:39:21.999Z</time></trkpt><trkpt lat="43.910402712159325" lon="4.499957326885306"><ele>149.0</ele><time>2026-04-11T15:39:22.999Z</time></trkpt><trkpt lat="43.910453417032194" lon="4.500113813027628"><ele>147.75</ele><time>2026-04-11T15:39:23.999Z</time></trkpt><trkpt lat="43.91051240386829" lon="4.500267954935739"><ele>146.5</ele><time>2026-04-11T15:39:24.999Z</time></trkpt><trkpt lat="43.910574078681016" lon="4.500414937134103"><ele>145.25</ele><time>2026-04-11T15:39:25.999Z</time></trkpt><trkpt lat="43.91063107480415" lon="4.500559401116174"><ele>144.0</ele><time>2026-04-11T15:39:26.999Z</time></trkpt><trkpt lat="43.910640788061535" lon="4.500719634720846"><ele>143.75</ele><time>2026-04-11T15:39:27.999Z</time></trkpt><trkpt lat="43.91064355028648" lon="4.50087187218848"><ele>143.5</ele><time>2026-04-11T15:39:28.999Z</time></trkpt><trkpt lat="43.91063840411128" lon="4.501026367059287"><ele>143.25</ele><time>2026-04-11T15:39:29.999Z</time></trkpt><trkpt lat="43.91063151330905" lon="4.5011933620003175"><ele>143.0</ele><time>2026-04-11T15:39:30.999Z</time></trkpt><trkpt lat="43.91063038433938" lon="4.501372048220496"><ele>142.25</ele><time>2026-04-11T15:39:31.999Z</time></trkpt><trkpt lat="43.91062286106887" lon="4.501552522282655"><ele>141.5</ele><time>2026-04-11T15:39:32.999Z</time></trkpt><trkpt lat="43.91061061265533" lon="4.501732129490645"><ele>140.75</ele><time>2026-04-11T15:39:33.999Z</time></trkpt><trkpt lat="43.9105992380353" lon="4.501909158341358"><ele>140.0</ele><time>2026-04-11T15:39:34.999Z</time></trkpt><trkpt lat="43.91060360650892" lon="4.50208760285854"><ele>138.25</ele><time>2026-04-11T15:39:35.999Z</time></trkpt><trkpt lat="43.910623808991076" lon="4.502269372948763"><ele>136.5</ele><time>2026-04-11T15:39:36.999Z</time></trkpt><trkpt lat="43.91064893145709" lon="4.502442314582471"><ele>134.75</ele><time>2026-04-11T15:39:37.999Z</time></trkpt><trkpt lat="43.910664276096185" lon="4.502617437564494"><ele>133.0</ele><time>2026-04-11T15:39:38.999Z</time></trkpt><trkpt lat="43.91064458095554" lon="4.502791545148154"><ele>132.25</ele><time>2026-04-11T15:39:39.999Z</time></trkpt><trkpt lat="43.9106230585459" lon="4.502958038454118"><ele>131.5</ele><time>2026-04-11T15:39:40.999Z</time></trkpt><trkpt lat="43.91061098383043" lon="4.503120844968488"><ele>130.75</ele><time>2026-04-11T15:39:41.999Z</time></trkpt><trkpt lat="43.91059695526448" lon="4.503275910827561"><ele>130.0</ele><time>2026-04-11T15:39:42.999Z</time></trkpt><trkpt lat="43.91058140026335" lon="4.5034259659289075"><ele>130.0</ele><time>2026-04-11T15:39:43.999Z</time></trkpt><trkpt lat="43.91056611816323" lon="4.503572283277287"><ele>130.0</ele><time>2026-04-11T15:39:44.999Z</time></trkpt><trkpt lat="43.910548722086816" lon="4.503700077875685"><ele>130.0</ele><time>2026-04-11T15:39:45.999Z</time></trkpt><trkpt lat="43.910539951183665" lon="4.5038028867443956"><ele>130.0</ele><time>2026-04-11T15:39:46.999Z</time></trkpt><trkpt lat="43.91052748423799" lon="4.503897445230753"><ele>130.0</ele><time>2026-04-11T15:39:47.999Z</time></trkpt><trkpt lat="43.91053204066787" lon="4.503990472980707"><ele>130.0</ele><time>2026-04-11T15:39:48.999Z</time></trkpt><trkpt lat="43.910523051283924" lon="4.504081590371968"><ele>130.33333333333334</ele><time>2026-04-11T15:39:49.999Z</time></trkpt><trkpt lat="43.91052031766703" lon="4.504171204056647"><ele>130.66666666666669</ele><time>2026-04-11T15:39:50.999Z</time></trkpt><trkpt lat="43.910521469123104" lon="4.504275955661042"><ele>131.0</ele><time>2026-04-11T15:39:51.999Z</time></trkpt><trkpt lat="43.91053848919724" lon="4.504397949759936"><ele>131.33333333333334</ele><time>2026-04-11T15:39:52.999Z</time></trkpt><trkpt lat="43.9105624642307" lon="4.504511026127401"><ele>131.66666666666666</ele><time>2026-04-11T15:39:53.999Z</time></trkpt><trkpt lat="43.91058700453855" lon="4.504626173037797"><ele>132.0</ele><time>2026-04-11T15:39:54.999Z</time></trkpt><trkpt lat="43.910613931071886" lon="4.504734148699652"><ele>132.0</ele><time>2026-04-11T15:39:55.999Z</time></trkpt><trkpt lat="43.91064921182307" lon="4.504833665935811"><ele>132.0</ele><time>2026-04-11T15:39:56.999Z</time></trkpt><trkpt lat="43.91067614797318" lon="4.5049463039544255"><ele>132.0</ele><time>2026-04-11T15:39:57.999Z</time></trkpt><trkpt lat="43.910724941838154" lon="4.505037443612672"><ele>132.0</ele><time>2026-04-11T15:39:58.999Z</time></trkpt><trkpt lat="43.91076994807875" lon="4.5051274445484575"><ele>132.0</ele><time>2026-04-11T15:39:59.999Z</time></trkpt><trkpt lat="43.91080683331252" lon="4.505207524363327"><ele>132.0</ele><time>2026-04-11T15:40:00.999Z</time></trkpt><trkpt lat="43.910850060451835" lon="4.50528140474971"><ele>132.2</ele><time>2026-04-11T15:40:01.999Z</time></trkpt><trkpt lat="43.91091802183967" lon="4.505382549383557"><ele>132.39999999999998</ele><time>2026-04-11T15:40:03.998Z</time></trkpt><trkpt lat="43.91098152976343" lon="4.505465852092197"><ele>132.60000000000002</ele><time>2026-04-11T15:40:06Z</time></trkpt><trkpt lat="43.91104208673342" lon="4.505576523408556"><ele>132.8</ele><time>2026-04-11T15:40:08Z</time></trkpt><trkpt lat="43.91110541463077" lon="4.505675188694425"><ele>133.0</ele><time>2026-04-11T15:40:10Z</time></trkpt><trkpt lat="43.911156249903215" lon="4.5057605467786574"><ele>133.0</ele><time>2026-04-11T15:40:13Z</time></trkpt><trkpt lat="43.911196937044686" lon="4.505854630272527"><ele>133.0</ele><time>2026-04-11T15:40:19Z</time></trkpt><trkpt lat="43.91131916021434" lon="4.505975837683022"><ele>133.0</ele><time>2026-04-11T15:40:21Z</time></trkpt><trkpt lat="43.91140295654679" lon="4.506039582143186"><ele>133.0</ele><time>2026-04-11T15:40:22Z</time></trkpt><trkpt lat="43.911493625701986" lon="4.506107146008139"><ele>133.0</ele><time>2026-04-11T15:40:23Z</time></trkpt><trkpt lat="43.91159390380202" lon="4.50619555530914"><ele>130.75</ele><time>2026-04-11T15:40:24Z</time></trkpt><trkpt lat="43.91170316102171" lon="4.5062792531779055"><ele>128.5</ele><time>2026-04-11T15:40:25Z</time></trkpt><trkpt lat="43.91181469265149" lon="4.506355778806915"><ele>126.25</ele><time>2026-04-11T15:40:26Z</time></trkpt><trkpt lat="43.911923445220694" lon="4.506427323514284"><ele>124.0</ele><time>2026-04-11T15:40:27Z</time></trkpt><trkpt lat="43.912039543064374" lon="4.50649500105256"><ele>124.0</ele><time>2026-04-11T15:40:28Z</time></trkpt><trkpt lat="43.912151454393396" lon="4.506556086590631"><ele>124.0</ele><time>2026-04-11T15:40:29Z</time></trkpt><trkpt lat="43.91227149203365" lon="4.506618142732436"><ele>124.0</ele><time>2026-04-11T15:40:30Z</time></trkpt><trkpt lat="43.91238503374694" lon="4.506675872935803"><ele>124.0</ele><time>2026-04-11T15:40:31Z</time></trkpt><trkpt lat="43.912466258744516" lon="4.506723283819429"><ele>124.0</ele><time>2026-04-11T15:40:32Z</time></trkpt><trkpt lat="43.91253622796254" lon="4.506761159866077"><ele>124.0</ele><time>2026-04-11T15:40:33Z</time></trkpt><trkpt lat="43.91261489408084" lon="4.506801747537421"><ele>124.0</ele><time>2026-04-11T15:40:34Z</time></trkpt><trkpt lat="43.912711278049436" lon="4.506856509127064"><ele>124.0</ele><time>2026-04-11T15:40:35Z</time></trkpt><trkpt lat="43.91281751880713" lon="4.5069209803405315"><ele>124.0</ele><time>2026-04-11T15:40:36Z</time></trkpt><trkpt lat="43.91292747334899" lon="4.506983358010239"><ele>124.80000000000001</ele><time>2026-04-11T15:40:37Z</time></trkpt><trkpt lat="43.9130295649592" lon="4.507039868952388"><ele>125.60000000000001</ele><time>2026-04-11T15:40:38Z</time></trkpt><trkpt lat="43.91312774823383" lon="4.507098000688721"><ele>126.4</ele><time>2026-04-11T15:40:39Z</time></trkpt><trkpt lat="43.91322550290199" lon="4.507160351934446"><ele>127.2</ele><time>2026-04-11T15:40:40Z</time></trkpt><trkpt lat="43.91330610435297" lon="4.507218225962747"><ele>128.0</ele><time>2026-04-11T15:40:41Z</time></trkpt><trkpt lat="43.91337192043681" lon="4.507265666064891"><ele>127.25</ele><time>2026-04-11T15:40:42Z</time></trkpt><trkpt lat="43.913477125932594" lon="4.5073360397864795"><ele>126.5</ele><time>2026-04-11T15:40:44Z</time></trkpt><trkpt lat="43.913531883666806" lon="4.507379773415358"><ele>125.75</ele><time>2026-04-11T15:40:47Z</time></trkpt><trkpt lat="43.913425228231986" lon="4.507618714485886"><ele>125.0</ele><time>2026-04-11T15:40:53Z</time></trkpt><trkpt lat="43.91335989081925" lon="4.507707414146155"><ele>123.8</ele><time>2026-04-11T15:40:54Z</time></trkpt><trkpt lat="43.91329269475209" lon="4.507812200048674"><ele>122.6</ele><time>2026-04-11T15:40:55Z</time></trkpt><trkpt lat="43.9132163536445" lon="4.507909254289411"><ele>121.4</ele><time>2026-04-11T15:40:56Z</time></trkpt><trkpt lat="43.913134762335346" lon="4.508002244017597"><ele>120.2</ele><time>2026-04-11T15:40:56.999Z</time></trkpt><trkpt lat="43.913046996957995" lon="4.50810008688697"><ele>119.0</ele><time>2026-04-11T15:40:57.999Z</time></trkpt><trkpt lat="43.9129676276662" lon="4.508192758464543"><ele>118.33333333333333</ele><time>2026-04-11T15:40:58.999Z</time></trkpt><trkpt lat="43.912895608308595" lon="4.508284349518327"><ele>117.66666666666666</ele><time>2026-04-11T15:40:59.999Z</time></trkpt><trkpt lat="43.9128311371785" lon="4.508376854508229"><ele>117.0</ele><time>2026-04-11T15:41:00.999Z</time></trkpt><trkpt lat="43.9127708049248" lon="4.508465327013284"><ele>116.33333333333334</ele><time>2026-04-11T15:41:01.999Z</time></trkpt><trkpt lat="43.912715276151886" lon="4.508545931035368"><ele>115.66666666666667</ele><time>2026-04-11T15:41:02.999Z</time></trkpt><trkpt lat="43.91266032338176" lon="4.508601915439998"><ele>115.0</ele><time>2026-04-11T15:41:03.999Z</time></trkpt><trkpt lat="43.91260245268121" lon="4.5086486372361625"><ele>114.8</ele><time>2026-04-11T15:41:04.999Z</time></trkpt><trkpt lat="43.91252715912725" lon="4.508698068063309"><ele>114.6</ele><time>2026-04-11T15:41:05.999Z</time></trkpt><trkpt lat="43.91243481072229" lon="4.5087495585449195"><ele>114.4</ele><time>2026-04-11T15:41:06.999Z</time></trkpt><trkpt lat="43.9123451579498" lon="4.508797891751932"><ele>114.2</ele><time>2026-04-11T15:41:07.999Z</time></trkpt><trkpt lat="43.91225837454414" lon="4.5088400395175725"><ele>114.0</ele><time>2026-04-11T15:41:08.999Z</time></trkpt><trkpt lat="43.912180955625004" lon="4.508881471738712"><ele>113.6</ele><time>2026-04-11T15:41:09.999Z</time></trkpt><trkpt lat="43.91211415136377" lon="4.508937430451487"><ele>113.2</ele><time>2026-04-11T15:41:10.999Z</time></trkpt><trkpt lat="43.91205308466444" lon="4.509008811310054"><ele>112.79999999999998</ele><time>2026-04-11T15:41:11.999Z</time></trkpt><trkpt lat="43.91198532949463" lon="4.5091085198119"><ele>112.39999999999999</ele><time>2026-04-11T15:41:12.999Z</time></trkpt><trkpt lat="43.911911837487516" lon="4.509213549092436"><ele>112.0</ele><time>2026-04-11T15:41:13.999Z</time></trkpt><trkpt lat="43.91183731518306" lon="4.5093018994612954"><ele>112.0</ele><time>2026-04-11T15:41:14.999Z</time></trkpt><trkpt lat="43.9117738433581" lon="4.509373181795351"><ele>111.99999999999999</ele><time>2026-04-11T15:41:15.999Z</time></trkpt><trkpt lat="43.91172179758499" lon="4.5094295166614335"><ele>111.99999999999999</ele><time>2026-04-11T15:41:16.999Z</time></trkpt><trkpt lat="43.911641650942386" lon="4.509520233286669"><ele>112.0</ele><time>2026-04-11T15:41:18.999Z</time></trkpt><trkpt lat="43.91164567553049" lon="4.509725653826133"><ele>112.0</ele><time>2026-04-11T15:41:21.999Z</time></trkpt><trkpt lat="43.91167125199202" lon="4.509831464081053"><ele>111.8</ele><time>2026-04-11T15:41:22.999Z</time></trkpt><trkpt lat="43.911694441801544" lon="4.509960166800018"><ele>111.6</ele><time>2026-04-11T15:41:23.999Z</time></trkpt><trkpt lat="43.911716577738716" lon="4.510103764243858"><ele>111.39999999999999</ele><time>2026-04-11T15:41:24.999Z</time></trkpt><trkpt lat="43.91174446200669" lon="4.510237542354858"><ele>111.19999999999999</ele><time>2026-04-11T15:41:25.999Z</time></trkpt><trkpt lat="43.911784016987234" lon="4.510359584120072"><ele>111.0</ele><time>2026-04-11T15:41:26.999Z</time></trkpt><trkpt lat="43.91182744835279" lon="4.510468537444483"><ele>110.4</ele><time>2026-04-11T15:41:27.999Z</time></trkpt><trkpt lat="43.91186240718026" lon="4.510565666224131"><ele>109.8</ele><time>2026-04-11T15:41:28.999Z</time></trkpt><trkpt lat="43.911881843593214" lon="4.510699572395324"><ele>109.20000000000002</ele><time>2026-04-11T15:41:30.999Z</time></trkpt><trkpt lat="43.911888330380926" lon="4.510816492319046"><ele>108.60000000000001</ele><time>2026-04-11T15:41:33.999Z</time></trkpt><trkpt lat="43.91187276586989" lon="4.510912347962427"><ele>108.0</ele><time>2026-04-11T15:41:36.999Z</time></trkpt><trkpt lat="43.9120592213859" lon="4.510901823774366"><ele>108.0</ele><time>2026-04-11T15:41:40.999Z</time></trkpt><trkpt lat="43.9121349515968" lon="4.51085977455276"><ele>108.0</ele><time>2026-04-11T15:41:41.999Z</time></trkpt><trkpt lat="43.912203512001284" lon="4.5108204222809025"><ele>108.0</ele><time>2026-04-11T15:41:42.999Z</time></trkpt><trkpt lat="43.9122638823871" lon="4.510762182135468"><ele>108.0</ele><time>2026-04-11T15:41:43.999Z</time></trkpt><trkpt lat="43.91232997980937" lon="4.510724914203644"><ele>108.0</ele><time>2026-04-11T15:41:44.999Z</time></trkpt><trkpt lat="43.91240795847143" lon="4.51068272188479"><ele>108.0</ele><time>2026-04-11T15:41:45.999Z</time></trkpt><trkpt lat="43.912491078174604" lon="4.510643605867485"><ele>108.4</ele><time>2026-04-11T15:41:46.999Z</time></trkpt><trkpt lat="43.91258782756467" lon="4.510639135547804"><ele>108.80000000000001</ele><time>2026-04-11T15:41:47.999Z</time></trkpt><trkpt lat="43.912683841473" lon="4.510691964593425"><ele>109.2</ele><time>2026-04-11T15:41:48.999Z</time></trkpt><trkpt lat="43.91278430843396" lon="4.5107503143263505"><ele>109.6</ele><time>2026-04-11T15:41:49.999Z</time></trkpt><trkpt lat="43.91289738931415" lon="4.5107794888170245"><ele>110.0</ele><time>2026-04-11T15:41:50.999Z</time></trkpt><trkpt lat="43.91301961978238" lon="4.51079777072284"><ele>110.0</ele><time>2026-04-11T15:41:51.999Z</time></trkpt><trkpt lat="43.913136307535474" lon="4.510815533958941"><ele>110.0</ele><time>2026-04-11T15:41:52.999Z</time></trkpt><trkpt lat="43.91323977498561" lon="4.510845782727321"><ele>110.0</ele><time>2026-04-11T15:41:53.999Z</time></trkpt><trkpt lat="43.91331584908299" lon="4.510879467370777"><ele>110.0</ele><time>2026-04-11T15:41:54.999Z</time></trkpt><trkpt lat="43.91342054403082" lon="4.510925787454895"><ele>110.0</ele><time>2026-04-11T15:41:56.999Z</time></trkpt><trkpt lat="43.91348843744182" lon="4.510971808153966"><ele>110.16666666666666</ele><time>2026-04-11T15:41:57.999Z</time></trkpt><trkpt lat="43.91356510501466" lon="4.511043799553847"><ele>110.33333333333333</ele><time>2026-04-11T15:41:58.999Z</time></trkpt><trkpt lat="43.913642527071936" lon="4.511113743532879"><ele>110.5</ele><time>2026-04-11T15:41:59.999Z</time></trkpt><trkpt lat="43.91371196076401" lon="4.511179764092168"><ele>110.66666666666666</ele><time>2026-04-11T15:42:00.999Z</time></trkpt><trkpt lat="43.913772360432866" lon="4.5112423812927664"><ele>110.83333333333333</ele><time>2026-04-11T15:42:01.999Z</time></trkpt><trkpt lat="43.91383313050136" lon="4.511306381557532"><ele>111.0</ele><time>2026-04-11T15:42:02.999Z</time></trkpt><trkpt lat="43.91389133240364" lon="4.511364653481754"><ele>111.0</ele><time>2026-04-11T15:42:03.999Z</time></trkpt><trkpt lat="43.91394957438973" lon="4.5114128499545485"><ele>111.0</ele><time>2026-04-11T15:42:04.999Z</time></trkpt><trkpt lat="43.91399935165141" lon="4.511480868884127"><ele>111.0</ele><time>2026-04-11T15:42:05.999Z</time></trkpt><trkpt lat="43.9140608693072" lon="4.511555428195113"><ele>111.0</ele><time>2026-04-11T15:42:07.999Z</time></trkpt><trkpt lat="43.9140978582364" lon="4.511629462236402"><ele>111.0</ele><time>2026-04-11T15:42:12Z</time></trkpt><trkpt lat="43.91398664973227" lon="4.511763937133414"><ele>111.0</ele><time>2026-04-11T15:42:18Z</time></trkpt><trkpt lat="43.91393620017542" lon="4.5118216991818505"><ele>111.0</ele><time>2026-04-11T15:42:19Z</time></trkpt><trkpt lat="43.9138761151777" lon="4.511890493374104"><ele>111.0</ele><time>2026-04-11T15:42:20Z</time></trkpt><trkpt lat="43.913823647136276" lon="4.511949265498107"><ele>111.0</ele><time>2026-04-11T15:42:21Z</time></trkpt><trkpt lat="43.91379982136727" lon="4.512051330062325"><ele>111.0</ele><time>2026-04-11T15:42:23Z</time></trkpt><trkpt lat="43.91379035406517" lon="4.512146403621646"><ele>111.0</ele><time>2026-04-11T15:42:27Z</time></trkpt><trkpt lat="43.91390164459189" lon="4.512226629416841"><ele>111.0</ele><time>2026-04-11T15:42:29Z</time></trkpt><trkpt lat="43.91397053523103" lon="4.512195556689543"><ele>111.0</ele><time>2026-04-11T15:42:30Z</time></trkpt><trkpt lat="43.914031204887074" lon="4.512233342582879"><ele>111.0</ele><time>2026-04-11T15:42:31Z</time></trkpt><trkpt lat="43.91415059614373" lon="4.512282030482963"><ele>111.0</ele><time>2026-04-11T15:42:33Z</time></trkpt><trkpt lat="43.91426437533626" lon="4.512347461972255"><ele>112.0</ele><time>2026-04-11T15:42:35Z</time></trkpt><trkpt lat="43.91434477786319" lon="4.512392462864974"><ele>112.0</ele><time>2026-04-11T15:42:37Z</time></trkpt></trkseg></trk></gpx>